<?xml version="1.0" encoding="UTF-8" standalone="no" ?>
<gpx xmlns="http://www.topografix.com/GPX/1/1" xmlns:xsi="http://www.w3.org/2001/XMLSchema-instance" xsi:schemaLocation="http://www.topografix.com/GPX/1/1 http://www.topografix.com/GPX/1/1/gpx.xsd" version="1.1" creator="VisuGPX - https://www.visugpx.com">
  <metadata>
    <name>VTT-2023-04-23-01</name>
  </metadata>
  <trk>
    <name><![CDATA[VTT-2023-04-23-01]]></name>
    <extensions>
      <line xmlns="http://www.topografix.com/GPX/gpx_style/0/2">
        <width>4</width>
      </line>
    </extensions>
    <trkseg>
      <trkpt lat="42.98357" lon="1.93705">
        <ele>412.6</ele>
        <time>2023-04-23T12:24:04.000Z</time>
      </trkpt>
      <trkpt lat="42.98357" lon="1.93705">
        <ele>412.6</ele>
        <time>2023-04-23T12:24:05.000Z</time>
      </trkpt>
      <trkpt lat="42.98351" lon="1.93717">
        <ele>414.1</ele>
        <time>2023-04-23T12:24:37.000Z</time>
      </trkpt>
      <trkpt lat="42.98349" lon="1.9373">
        <ele>415.3</ele>
        <time>2023-04-23T12:24:40.000Z</time>
      </trkpt>
      <trkpt lat="42.98345" lon="1.93743">
        <ele>415.9</ele>
        <time>2023-04-23T12:24:43.000Z</time>
      </trkpt>
      <trkpt lat="42.98342" lon="1.93755">
        <ele>415.8</ele>
        <time>2023-04-23T12:24:46.000Z</time>
      </trkpt>
      <trkpt lat="42.98339" lon="1.93769">
        <ele>415.8</ele>
        <time>2023-04-23T12:24:49.000Z</time>
      </trkpt>
      <trkpt lat="42.98334" lon="1.93782">
        <ele>415.7</ele>
        <time>2023-04-23T12:24:52.000Z</time>
      </trkpt>
      <trkpt lat="42.98331" lon="1.93795">
        <ele>416.1</ele>
        <time>2023-04-23T12:24:55.000Z</time>
      </trkpt>
      <trkpt lat="42.98326" lon="1.93813">
        <ele>417</ele>
        <time>2023-04-23T12:24:58.000Z</time>
      </trkpt>
      <trkpt lat="42.98322" lon="1.93826">
        <ele>416.2</ele>
        <time>2023-04-23T12:25:00.000Z</time>
      </trkpt>
      <trkpt lat="42.98317" lon="1.9384">
        <ele>412.7</ele>
        <time>2023-04-23T12:25:02.000Z</time>
      </trkpt>
      <trkpt lat="42.98311" lon="1.93853">
        <ele>409.7</ele>
        <time>2023-04-23T12:25:04.000Z</time>
      </trkpt>
      <trkpt lat="42.98307" lon="1.93867">
        <ele>407.9</ele>
        <time>2023-04-23T12:25:06.000Z</time>
      </trkpt>
      <trkpt lat="42.98305" lon="1.93881">
        <ele>405.8</ele>
        <time>2023-04-23T12:25:08.000Z</time>
      </trkpt>
      <trkpt lat="42.98307" lon="1.93894">
        <ele>403.2</ele>
        <time>2023-04-23T12:25:11.000Z</time>
      </trkpt>
      <trkpt lat="42.98315" lon="1.93905">
        <ele>400.1</ele>
        <time>2023-04-23T12:25:23.000Z</time>
      </trkpt>
      <trkpt lat="42.98323" lon="1.93917">
        <ele>397.4</ele>
        <time>2023-04-23T12:25:27.000Z</time>
      </trkpt>
      <trkpt lat="42.98331" lon="1.93928">
        <ele>395.2</ele>
        <time>2023-04-23T12:25:31.000Z</time>
      </trkpt>
      <trkpt lat="42.98339" lon="1.93937">
        <ele>394.2</ele>
        <time>2023-04-23T12:25:35.000Z</time>
      </trkpt>
      <trkpt lat="42.98347" lon="1.93944">
        <ele>393.1</ele>
        <time>2023-04-23T12:25:50.000Z</time>
      </trkpt>
      <trkpt lat="42.98354" lon="1.93953">
        <ele>391.6</ele>
        <time>2023-04-23T12:25:54.000Z</time>
      </trkpt>
      <trkpt lat="42.98363" lon="1.93965">
        <ele>389.5</ele>
        <time>2023-04-23T12:25:57.000Z</time>
      </trkpt>
      <trkpt lat="42.98372" lon="1.93976">
        <ele>387.4</ele>
        <time>2023-04-23T12:25:59.000Z</time>
      </trkpt>
      <trkpt lat="42.98382" lon="1.93989">
        <ele>385.1</ele>
        <time>2023-04-23T12:26:01.000Z</time>
      </trkpt>
      <trkpt lat="42.98393" lon="1.94">
        <ele>384.4</ele>
        <time>2023-04-23T12:26:03.000Z</time>
      </trkpt>
      <trkpt lat="42.98403" lon="1.94011">
        <ele>384.7</ele>
        <time>2023-04-23T12:26:05.000Z</time>
      </trkpt>
      <trkpt lat="42.98409" lon="1.9402">
        <ele>383.5</ele>
        <time>2023-04-23T12:26:07.000Z</time>
      </trkpt>
      <trkpt lat="42.98419" lon="1.94031">
        <ele>382.1</ele>
        <time>2023-04-23T12:26:10.000Z</time>
      </trkpt>
      <trkpt lat="42.98426" lon="1.9404">
        <ele>382.1</ele>
        <time>2023-04-23T12:26:13.000Z</time>
      </trkpt>
      <trkpt lat="42.98433" lon="1.94049">
        <ele>381.6</ele>
        <time>2023-04-23T12:26:16.000Z</time>
      </trkpt>
      <trkpt lat="42.98441" lon="1.94058">
        <ele>380.5</ele>
        <time>2023-04-23T12:26:19.000Z</time>
      </trkpt>
      <trkpt lat="42.98448" lon="1.94068">
        <ele>379.5</ele>
        <time>2023-04-23T12:26:22.000Z</time>
      </trkpt>
      <trkpt lat="42.98456" lon="1.94078">
        <ele>378.3</ele>
        <time>2023-04-23T12:26:25.000Z</time>
      </trkpt>
      <trkpt lat="42.98463" lon="1.94087">
        <ele>378.2</ele>
        <time>2023-04-23T12:26:28.000Z</time>
      </trkpt>
      <trkpt lat="42.98471" lon="1.94097">
        <ele>378.5</ele>
        <time>2023-04-23T12:26:31.000Z</time>
      </trkpt>
      <trkpt lat="42.98479" lon="1.94107">
        <ele>378.7</ele>
        <time>2023-04-23T12:26:34.000Z</time>
      </trkpt>
      <trkpt lat="42.98487" lon="1.94117">
        <ele>379</ele>
        <time>2023-04-23T12:26:37.000Z</time>
      </trkpt>
      <trkpt lat="42.98497" lon="1.9413">
        <ele>379.3</ele>
        <time>2023-04-23T12:26:40.000Z</time>
      </trkpt>
      <trkpt lat="42.98504" lon="1.94138">
        <ele>379.9</ele>
        <time>2023-04-23T12:26:42.000Z</time>
      </trkpt>
      <trkpt lat="42.98514" lon="1.94148">
        <ele>381.7</ele>
        <time>2023-04-23T12:26:45.000Z</time>
      </trkpt>
      <trkpt lat="42.98522" lon="1.94159">
        <ele>383.1</ele>
        <time>2023-04-23T12:26:48.000Z</time>
      </trkpt>
      <trkpt lat="42.98531" lon="1.94169">
        <ele>384.1</ele>
        <time>2023-04-23T12:26:51.000Z</time>
      </trkpt>
      <trkpt lat="42.98539" lon="1.94179">
        <ele>384.8</ele>
        <time>2023-04-23T12:26:54.000Z</time>
      </trkpt>
      <trkpt lat="42.98547" lon="1.94189">
        <ele>386.7</ele>
        <time>2023-04-23T12:26:57.000Z</time>
      </trkpt>
      <trkpt lat="42.98555" lon="1.94199">
        <ele>388.6</ele>
        <time>2023-04-23T12:27:00.000Z</time>
      </trkpt>
      <trkpt lat="42.98562" lon="1.94209">
        <ele>390.3</ele>
        <time>2023-04-23T12:27:03.000Z</time>
      </trkpt>
      <trkpt lat="42.9857" lon="1.9422">
        <ele>391.4</ele>
        <time>2023-04-23T12:27:06.000Z</time>
      </trkpt>
      <trkpt lat="42.98578" lon="1.9423">
        <ele>391.4</ele>
        <time>2023-04-23T12:27:09.000Z</time>
      </trkpt>
      <trkpt lat="42.98587" lon="1.9424">
        <ele>391.5</ele>
        <time>2023-04-23T12:27:12.000Z</time>
      </trkpt>
      <trkpt lat="42.98595" lon="1.94249">
        <ele>391.5</ele>
        <time>2023-04-23T12:27:15.000Z</time>
      </trkpt>
      <trkpt lat="42.98604" lon="1.9426">
        <ele>393.2</ele>
        <time>2023-04-23T12:27:18.000Z</time>
      </trkpt>
      <trkpt lat="42.98613" lon="1.94272">
        <ele>395.6</ele>
        <time>2023-04-23T12:27:21.000Z</time>
      </trkpt>
      <trkpt lat="42.98619" lon="1.94287">
        <ele>397.5</ele>
        <time>2023-04-23T12:27:24.000Z</time>
      </trkpt>
      <trkpt lat="42.98619" lon="1.943">
        <ele>397.5</ele>
        <time>2023-04-23T12:27:27.000Z</time>
      </trkpt>
      <trkpt lat="42.98612" lon="1.94312">
        <ele>396.1</ele>
        <time>2023-04-23T12:27:30.000Z</time>
      </trkpt>
      <trkpt lat="42.98609" lon="1.94325">
        <ele>396.3</ele>
        <time>2023-04-23T12:27:32.000Z</time>
      </trkpt>
      <trkpt lat="42.98607" lon="1.94338">
        <ele>397.9</ele>
        <time>2023-04-23T12:27:34.000Z</time>
      </trkpt>
      <trkpt lat="42.98605" lon="1.94355">
        <ele>399.1</ele>
        <time>2023-04-23T12:27:37.000Z</time>
      </trkpt>
      <trkpt lat="42.98599" lon="1.94369">
        <ele>397</ele>
        <time>2023-04-23T12:27:41.000Z</time>
      </trkpt>
      <trkpt lat="42.9859" lon="1.94379">
        <ele>395.9</ele>
        <time>2023-04-23T12:27:44.000Z</time>
      </trkpt>
      <trkpt lat="42.98582" lon="1.94391">
        <ele>396.8</ele>
        <time>2023-04-23T12:27:47.000Z</time>
      </trkpt>
      <trkpt lat="42.98575" lon="1.94405">
        <ele>397.5</ele>
        <time>2023-04-23T12:27:50.000Z</time>
      </trkpt>
      <trkpt lat="42.98568" lon="1.94416">
        <ele>397.3</ele>
        <time>2023-04-23T12:27:54.000Z</time>
      </trkpt>
      <trkpt lat="42.98563" lon="1.94431">
        <ele>398</ele>
        <time>2023-04-23T12:27:57.000Z</time>
      </trkpt>
      <trkpt lat="42.98559" lon="1.94446">
        <ele>398.8</ele>
        <time>2023-04-23T12:28:01.000Z</time>
      </trkpt>
      <trkpt lat="42.98556" lon="1.94458">
        <ele>399.1</ele>
        <time>2023-04-23T12:28:04.000Z</time>
      </trkpt>
      <trkpt lat="42.98554" lon="1.9447">
        <ele>398.8</ele>
        <time>2023-04-23T12:28:07.000Z</time>
      </trkpt>
      <trkpt lat="42.9855" lon="1.94487">
        <ele>397.9</ele>
        <time>2023-04-23T12:28:10.000Z</time>
      </trkpt>
      <trkpt lat="42.98545" lon="1.945">
        <ele>395.8</ele>
        <time>2023-04-23T12:28:13.000Z</time>
      </trkpt>
      <trkpt lat="42.98543" lon="1.94514">
        <ele>394.5</ele>
        <time>2023-04-23T12:28:15.000Z</time>
      </trkpt>
      <trkpt lat="42.98539" lon="1.94528">
        <ele>394.3</ele>
        <time>2023-04-23T12:28:18.000Z</time>
      </trkpt>
      <trkpt lat="42.98535" lon="1.94539">
        <ele>394.6</ele>
        <time>2023-04-23T12:28:21.000Z</time>
      </trkpt>
      <trkpt lat="42.98531" lon="1.94552">
        <ele>394.9</ele>
        <time>2023-04-23T12:28:23.000Z</time>
      </trkpt>
      <trkpt lat="42.98528" lon="1.94564">
        <ele>394.9</ele>
        <time>2023-04-23T12:28:25.000Z</time>
      </trkpt>
      <trkpt lat="42.98522" lon="1.94581">
        <ele>394.4</ele>
        <time>2023-04-23T12:28:28.000Z</time>
      </trkpt>
      <trkpt lat="42.98518" lon="1.94595">
        <ele>393.9</ele>
        <time>2023-04-23T12:28:30.000Z</time>
      </trkpt>
      <trkpt lat="42.98516" lon="1.94612">
        <ele>394</ele>
        <time>2023-04-23T12:28:33.000Z</time>
      </trkpt>
      <trkpt lat="42.98516" lon="1.94626">
        <ele>394.5</ele>
        <time>2023-04-23T12:28:36.000Z</time>
      </trkpt>
      <trkpt lat="42.98512" lon="1.9464">
        <ele>394.3</ele>
        <time>2023-04-23T12:28:39.000Z</time>
      </trkpt>
      <trkpt lat="42.98506" lon="1.94652">
        <ele>394.3</ele>
        <time>2023-04-23T12:28:41.000Z</time>
      </trkpt>
      <trkpt lat="42.98502" lon="1.94665">
        <ele>394.4</ele>
        <time>2023-04-23T12:28:43.000Z</time>
      </trkpt>
      <trkpt lat="42.985" lon="1.94682">
        <ele>394.6</ele>
        <time>2023-04-23T12:28:45.000Z</time>
      </trkpt>
      <trkpt lat="42.985" lon="1.94698">
        <ele>395.2</ele>
        <time>2023-04-23T12:28:47.000Z</time>
      </trkpt>
      <trkpt lat="42.98503" lon="1.94714">
        <ele>396</ele>
        <time>2023-04-23T12:28:50.000Z</time>
      </trkpt>
      <trkpt lat="42.98502" lon="1.94728">
        <ele>396.4</ele>
        <time>2023-04-23T12:28:53.000Z</time>
      </trkpt>
      <trkpt lat="42.98502" lon="1.9474">
        <ele>397</ele>
        <time>2023-04-23T12:28:57.000Z</time>
      </trkpt>
      <trkpt lat="42.98501" lon="1.94753">
        <ele>397.8</ele>
        <time>2023-04-23T12:29:00.000Z</time>
      </trkpt>
      <trkpt lat="42.985" lon="1.94769">
        <ele>398.7</ele>
        <time>2023-04-23T12:29:03.000Z</time>
      </trkpt>
      <trkpt lat="42.98494" lon="1.94783">
        <ele>397.7</ele>
        <time>2023-04-23T12:29:12.000Z</time>
      </trkpt>
      <trkpt lat="42.98492" lon="1.94801">
        <ele>397.3</ele>
        <time>2023-04-23T12:29:15.000Z</time>
      </trkpt>
      <trkpt lat="42.98491" lon="1.94816">
        <ele>397</ele>
        <time>2023-04-23T12:29:17.000Z</time>
      </trkpt>
      <trkpt lat="42.9849" lon="1.94829">
        <ele>396.5</ele>
        <time>2023-04-23T12:29:19.000Z</time>
      </trkpt>
      <trkpt lat="42.98489" lon="1.94842">
        <ele>395.9</ele>
        <time>2023-04-23T12:29:21.000Z</time>
      </trkpt>
      <trkpt lat="42.98488" lon="1.94855">
        <ele>395.5</ele>
        <time>2023-04-23T12:29:23.000Z</time>
      </trkpt>
      <trkpt lat="42.98488" lon="1.94872">
        <ele>394.7</ele>
        <time>2023-04-23T12:29:26.000Z</time>
      </trkpt>
      <trkpt lat="42.98488" lon="1.94888">
        <ele>395</ele>
        <time>2023-04-23T12:29:29.000Z</time>
      </trkpt>
      <trkpt lat="42.98488" lon="1.94903">
        <ele>395.4</ele>
        <time>2023-04-23T12:29:32.000Z</time>
      </trkpt>
      <trkpt lat="42.98486" lon="1.94916">
        <ele>395.5</ele>
        <time>2023-04-23T12:29:35.000Z</time>
      </trkpt>
      <trkpt lat="42.98486" lon="1.94932">
        <ele>396</ele>
        <time>2023-04-23T12:29:38.000Z</time>
      </trkpt>
      <trkpt lat="42.98487" lon="1.94947">
        <ele>395.5</ele>
        <time>2023-04-23T12:29:41.000Z</time>
      </trkpt>
      <trkpt lat="42.98484" lon="1.94962">
        <ele>394.9</ele>
        <time>2023-04-23T12:29:44.000Z</time>
      </trkpt>
      <trkpt lat="42.98482" lon="1.9498">
        <ele>394.9</ele>
        <time>2023-04-23T12:29:47.000Z</time>
      </trkpt>
      <trkpt lat="42.98478" lon="1.94997">
        <ele>393.9</ele>
        <time>2023-04-23T12:29:50.000Z</time>
      </trkpt>
      <trkpt lat="42.9848" lon="1.95012">
        <ele>393.7</ele>
        <time>2023-04-23T12:29:54.000Z</time>
      </trkpt>
      <trkpt lat="42.98478" lon="1.95026">
        <ele>391.8</ele>
        <time>2023-04-23T12:29:57.000Z</time>
      </trkpt>
      <trkpt lat="42.98478" lon="1.95039">
        <ele>390.2</ele>
        <time>2023-04-23T12:29:59.000Z</time>
      </trkpt>
      <trkpt lat="42.9848" lon="1.95053">
        <ele>390.4</ele>
        <time>2023-04-23T12:30:01.000Z</time>
      </trkpt>
      <trkpt lat="42.98484" lon="1.95065">
        <ele>391.5</ele>
        <time>2023-04-23T12:30:03.000Z</time>
      </trkpt>
      <trkpt lat="42.9849" lon="1.95079">
        <ele>393</ele>
        <time>2023-04-23T12:30:06.000Z</time>
      </trkpt>
      <trkpt lat="42.98491" lon="1.95094">
        <ele>393.4</ele>
        <time>2023-04-23T12:30:10.000Z</time>
      </trkpt>
      <trkpt lat="42.98491" lon="1.95108">
        <ele>393.6</ele>
        <time>2023-04-23T12:30:13.000Z</time>
      </trkpt>
      <trkpt lat="42.98491" lon="1.95121">
        <ele>393.4</ele>
        <time>2023-04-23T12:30:16.000Z</time>
      </trkpt>
      <trkpt lat="42.98491" lon="1.95135">
        <ele>393.3</ele>
        <time>2023-04-23T12:30:18.000Z</time>
      </trkpt>
      <trkpt lat="42.9849" lon="1.95153">
        <ele>392.7</ele>
        <time>2023-04-23T12:30:21.000Z</time>
      </trkpt>
      <trkpt lat="42.9849" lon="1.95168">
        <ele>392.8</ele>
        <time>2023-04-23T12:30:24.000Z</time>
      </trkpt>
      <trkpt lat="42.98487" lon="1.95184">
        <ele>392.3</ele>
        <time>2023-04-23T12:30:28.000Z</time>
      </trkpt>
      <trkpt lat="42.98484" lon="1.95196">
        <ele>392.6</ele>
        <time>2023-04-23T12:30:30.000Z</time>
      </trkpt>
      <trkpt lat="42.98482" lon="1.95216">
        <ele>393.3</ele>
        <time>2023-04-23T12:30:33.000Z</time>
      </trkpt>
      <trkpt lat="42.9848" lon="1.95228">
        <ele>393.6</ele>
        <time>2023-04-23T12:30:35.000Z</time>
      </trkpt>
      <trkpt lat="42.98481" lon="1.95245">
        <ele>394.1</ele>
        <time>2023-04-23T12:30:38.000Z</time>
      </trkpt>
      <trkpt lat="42.98484" lon="1.95261">
        <ele>395.4</ele>
        <time>2023-04-23T12:30:41.000Z</time>
      </trkpt>
      <trkpt lat="42.98487" lon="1.95275">
        <ele>396.7</ele>
        <time>2023-04-23T12:30:44.000Z</time>
      </trkpt>
      <trkpt lat="42.98486" lon="1.95288">
        <ele>396.9</ele>
        <time>2023-04-23T12:30:47.000Z</time>
      </trkpt>
      <trkpt lat="42.98483" lon="1.95301">
        <ele>397</ele>
        <time>2023-04-23T12:30:50.000Z</time>
      </trkpt>
      <trkpt lat="42.98481" lon="1.95315">
        <ele>397.9</ele>
        <time>2023-04-23T12:30:53.000Z</time>
      </trkpt>
      <trkpt lat="42.98481" lon="1.95331">
        <ele>400.1</ele>
        <time>2023-04-23T12:30:57.000Z</time>
      </trkpt>
      <trkpt lat="42.9848" lon="1.95346">
        <ele>402.4</ele>
        <time>2023-04-23T12:31:01.000Z</time>
      </trkpt>
      <trkpt lat="42.98478" lon="1.95361">
        <ele>402.2</ele>
        <time>2023-04-23T12:31:04.000Z</time>
      </trkpt>
      <trkpt lat="42.98476" lon="1.95376">
        <ele>401.9</ele>
        <time>2023-04-23T12:31:07.000Z</time>
      </trkpt>
      <trkpt lat="42.98476" lon="1.95388">
        <ele>400.6</ele>
        <time>2023-04-23T12:31:10.000Z</time>
      </trkpt>
      <trkpt lat="42.98473" lon="1.95401">
        <ele>399.2</ele>
        <time>2023-04-23T12:31:13.000Z</time>
      </trkpt>
      <trkpt lat="42.98469" lon="1.95419">
        <ele>398.3</ele>
        <time>2023-04-23T12:31:16.000Z</time>
      </trkpt>
      <trkpt lat="42.9847" lon="1.95432">
        <ele>398.1</ele>
        <time>2023-04-23T12:31:18.000Z</time>
      </trkpt>
      <trkpt lat="42.98469" lon="1.95446">
        <ele>397.3</ele>
        <time>2023-04-23T12:31:20.000Z</time>
      </trkpt>
      <trkpt lat="42.98473" lon="1.95458">
        <ele>397.6</ele>
        <time>2023-04-23T12:31:25.000Z</time>
      </trkpt>
      <trkpt lat="42.98478" lon="1.95469">
        <ele>398.3</ele>
        <time>2023-04-23T12:31:35.000Z</time>
      </trkpt>
      <trkpt lat="42.98487" lon="1.95474">
        <ele>400.2</ele>
        <time>2023-04-23T12:31:40.000Z</time>
      </trkpt>
      <trkpt lat="42.98499" lon="1.95474">
        <ele>402.8</ele>
        <time>2023-04-23T12:31:44.000Z</time>
      </trkpt>
      <trkpt lat="42.9851" lon="1.95473">
        <ele>405.3</ele>
        <time>2023-04-23T12:31:47.000Z</time>
      </trkpt>
      <trkpt lat="42.98524" lon="1.95474">
        <ele>406.5</ele>
        <time>2023-04-23T12:31:50.000Z</time>
      </trkpt>
      <trkpt lat="42.98533" lon="1.95471">
        <ele>407.3</ele>
        <time>2023-04-23T12:31:53.000Z</time>
      </trkpt>
      <trkpt lat="42.98544" lon="1.95467">
        <ele>409</ele>
        <time>2023-04-23T12:31:56.000Z</time>
      </trkpt>
      <trkpt lat="42.98554" lon="1.95466">
        <ele>410.5</ele>
        <time>2023-04-23T12:31:59.000Z</time>
      </trkpt>
      <trkpt lat="42.98565" lon="1.9547">
        <ele>411</ele>
        <time>2023-04-23T12:32:03.000Z</time>
      </trkpt>
      <trkpt lat="42.98574" lon="1.95474">
        <ele>410.6</ele>
        <time>2023-04-23T12:32:06.000Z</time>
      </trkpt>
      <trkpt lat="42.98583" lon="1.95477">
        <ele>409.6</ele>
        <time>2023-04-23T12:32:09.000Z</time>
      </trkpt>
      <trkpt lat="42.98593" lon="1.95471">
        <ele>410.8</ele>
        <time>2023-04-23T12:32:13.000Z</time>
      </trkpt>
      <trkpt lat="42.98599" lon="1.95458">
        <ele>413.5</ele>
        <time>2023-04-23T12:32:19.000Z</time>
      </trkpt>
      <trkpt lat="42.98606" lon="1.95447">
        <ele>412.4</ele>
        <time>2023-04-23T12:32:22.000Z</time>
      </trkpt>
      <trkpt lat="42.98614" lon="1.95438">
        <ele>410.8</ele>
        <time>2023-04-23T12:32:25.000Z</time>
      </trkpt>
      <trkpt lat="42.98619" lon="1.95427">
        <ele>410.8</ele>
        <time>2023-04-23T12:32:29.000Z</time>
      </trkpt>
      <trkpt lat="42.98624" lon="1.95415">
        <ele>410.7</ele>
        <time>2023-04-23T12:32:33.000Z</time>
      </trkpt>
      <trkpt lat="42.98625" lon="1.95401">
        <ele>412.1</ele>
        <time>2023-04-23T12:32:38.000Z</time>
      </trkpt>
      <trkpt lat="42.98628" lon="1.95385">
        <ele>412.6</ele>
        <time>2023-04-23T12:32:42.000Z</time>
      </trkpt>
      <trkpt lat="42.98634" lon="1.95373">
        <ele>409.9</ele>
        <time>2023-04-23T12:32:46.000Z</time>
      </trkpt>
      <trkpt lat="42.98639" lon="1.95359">
        <ele>407.1</ele>
        <time>2023-04-23T12:32:50.000Z</time>
      </trkpt>
      <trkpt lat="42.98643" lon="1.95347">
        <ele>404.8</ele>
        <time>2023-04-23T12:32:52.000Z</time>
      </trkpt>
      <trkpt lat="42.98645" lon="1.95332">
        <ele>404.1</ele>
        <time>2023-04-23T12:32:55.000Z</time>
      </trkpt>
      <trkpt lat="42.98649" lon="1.95324">
        <ele>401.9</ele>
        <time>2023-04-23T12:33:27.000Z</time>
      </trkpt>
      <trkpt lat="42.98647" lon="1.95314">
        <ele>405</ele>
        <time>2023-04-23T12:34:06.000Z</time>
      </trkpt>
      <trkpt lat="42.98647" lon="1.95308">
        <ele>405.9</ele>
        <time>2023-04-23T12:34:08.000Z</time>
      </trkpt>
      <trkpt lat="42.98648" lon="1.95301">
        <ele>406</ele>
        <time>2023-04-23T12:34:10.000Z</time>
      </trkpt>
      <trkpt lat="42.9865" lon="1.95294">
        <ele>406.1</ele>
        <time>2023-04-23T12:34:12.000Z</time>
      </trkpt>
      <trkpt lat="42.98653" lon="1.95286">
        <ele>406.3</ele>
        <time>2023-04-23T12:34:14.000Z</time>
      </trkpt>
      <trkpt lat="42.98656" lon="1.9528">
        <ele>406.8</ele>
        <time>2023-04-23T12:34:16.000Z</time>
      </trkpt>
      <trkpt lat="42.98658" lon="1.95273">
        <ele>407.6</ele>
        <time>2023-04-23T12:34:18.000Z</time>
      </trkpt>
      <trkpt lat="42.98661" lon="1.95265">
        <ele>408.3</ele>
        <time>2023-04-23T12:34:20.000Z</time>
      </trkpt>
      <trkpt lat="42.98664" lon="1.95258">
        <ele>408</ele>
        <time>2023-04-23T12:34:22.000Z</time>
      </trkpt>
      <trkpt lat="42.9867" lon="1.9525">
        <ele>406.8</ele>
        <time>2023-04-23T12:34:24.000Z</time>
      </trkpt>
      <trkpt lat="42.98672" lon="1.95244">
        <ele>406.8</ele>
        <time>2023-04-23T12:34:25.000Z</time>
      </trkpt>
      <trkpt lat="42.98672" lon="1.95237">
        <ele>407.4</ele>
        <time>2023-04-23T12:34:26.000Z</time>
      </trkpt>
      <trkpt lat="42.98674" lon="1.95227">
        <ele>408.1</ele>
        <time>2023-04-23T12:34:28.000Z</time>
      </trkpt>
      <trkpt lat="42.98674" lon="1.95221">
        <ele>409</ele>
        <time>2023-04-23T12:34:29.000Z</time>
      </trkpt>
      <trkpt lat="42.98676" lon="1.95209">
        <ele>410.2</ele>
        <time>2023-04-23T12:34:31.000Z</time>
      </trkpt>
      <trkpt lat="42.9868" lon="1.952">
        <ele>411</ele>
        <time>2023-04-23T12:34:33.000Z</time>
      </trkpt>
      <trkpt lat="42.98684" lon="1.9519">
        <ele>411.7</ele>
        <time>2023-04-23T12:34:35.000Z</time>
      </trkpt>
      <trkpt lat="42.98685" lon="1.95181">
        <ele>413.2</ele>
        <time>2023-04-23T12:34:36.000Z</time>
      </trkpt>
      <trkpt lat="42.98688" lon="1.95174">
        <ele>412.9</ele>
        <time>2023-04-23T12:34:37.000Z</time>
      </trkpt>
      <trkpt lat="42.98694" lon="1.95166">
        <ele>411.6</ele>
        <time>2023-04-23T12:34:39.000Z</time>
      </trkpt>
      <trkpt lat="42.98693" lon="1.95157">
        <ele>413.9</ele>
        <time>2023-04-23T12:34:40.000Z</time>
      </trkpt>
      <trkpt lat="42.98699" lon="1.95151">
        <ele>412.2</ele>
        <time>2023-04-23T12:34:42.000Z</time>
      </trkpt>
      <trkpt lat="42.98705" lon="1.95146">
        <ele>410</ele>
        <time>2023-04-23T12:34:44.000Z</time>
      </trkpt>
      <trkpt lat="42.98708" lon="1.95138">
        <ele>410.3</ele>
        <time>2023-04-23T12:34:46.000Z</time>
      </trkpt>
      <trkpt lat="42.98714" lon="1.95132">
        <ele>409.8</ele>
        <time>2023-04-23T12:34:48.000Z</time>
      </trkpt>
      <trkpt lat="42.98717" lon="1.95125">
        <ele>410.6</ele>
        <time>2023-04-23T12:34:50.000Z</time>
      </trkpt>
      <trkpt lat="42.9872" lon="1.95119">
        <ele>410.8</ele>
        <time>2023-04-23T12:34:52.000Z</time>
      </trkpt>
      <trkpt lat="42.98725" lon="1.95115">
        <ele>410</ele>
        <time>2023-04-23T12:34:53.000Z</time>
      </trkpt>
      <trkpt lat="42.98731" lon="1.95108">
        <ele>410.3</ele>
        <time>2023-04-23T12:34:55.000Z</time>
      </trkpt>
      <trkpt lat="42.98736" lon="1.95104">
        <ele>410.4</ele>
        <time>2023-04-23T12:34:56.000Z</time>
      </trkpt>
      <trkpt lat="42.9874" lon="1.95098">
        <ele>410.5</ele>
        <time>2023-04-23T12:34:58.000Z</time>
      </trkpt>
      <trkpt lat="42.98744" lon="1.95092">
        <ele>410.7</ele>
        <time>2023-04-23T12:35:00.000Z</time>
      </trkpt>
      <trkpt lat="42.98748" lon="1.95085">
        <ele>411.3</ele>
        <time>2023-04-23T12:35:02.000Z</time>
      </trkpt>
      <trkpt lat="42.98751" lon="1.95078">
        <ele>412.7</ele>
        <time>2023-04-23T12:35:04.000Z</time>
      </trkpt>
      <trkpt lat="42.98753" lon="1.95071">
        <ele>414.1</ele>
        <time>2023-04-23T12:35:06.000Z</time>
      </trkpt>
      <trkpt lat="42.98756" lon="1.95063">
        <ele>415.1</ele>
        <time>2023-04-23T12:35:08.000Z</time>
      </trkpt>
      <trkpt lat="42.98757" lon="1.95056">
        <ele>416</ele>
        <time>2023-04-23T12:35:10.000Z</time>
      </trkpt>
      <trkpt lat="42.9876" lon="1.95047">
        <ele>417.3</ele>
        <time>2023-04-23T12:35:12.000Z</time>
      </trkpt>
      <trkpt lat="42.98764" lon="1.95039">
        <ele>418.2</ele>
        <time>2023-04-23T12:35:14.000Z</time>
      </trkpt>
      <trkpt lat="42.98769" lon="1.95031">
        <ele>417.1</ele>
        <time>2023-04-23T12:35:16.000Z</time>
      </trkpt>
      <trkpt lat="42.98772" lon="1.95023">
        <ele>416.8</ele>
        <time>2023-04-23T12:35:18.000Z</time>
      </trkpt>
      <trkpt lat="42.98775" lon="1.95016">
        <ele>416.4</ele>
        <time>2023-04-23T12:35:20.000Z</time>
      </trkpt>
      <trkpt lat="42.98778" lon="1.95009">
        <ele>415.9</ele>
        <time>2023-04-23T12:35:22.000Z</time>
      </trkpt>
      <trkpt lat="42.9878" lon="1.95003">
        <ele>416</ele>
        <time>2023-04-23T12:35:24.000Z</time>
      </trkpt>
      <trkpt lat="42.98783" lon="1.94994">
        <ele>416.3</ele>
        <time>2023-04-23T12:35:26.000Z</time>
      </trkpt>
      <trkpt lat="42.98784" lon="1.94985">
        <ele>417</ele>
        <time>2023-04-23T12:35:28.000Z</time>
      </trkpt>
      <trkpt lat="42.98788" lon="1.94977">
        <ele>417.7</ele>
        <time>2023-04-23T12:35:30.000Z</time>
      </trkpt>
      <trkpt lat="42.98789" lon="1.94969">
        <ele>419.2</ele>
        <time>2023-04-23T12:35:33.000Z</time>
      </trkpt>
      <trkpt lat="42.98789" lon="1.94959">
        <ele>421</ele>
        <time>2023-04-23T12:35:35.000Z</time>
      </trkpt>
      <trkpt lat="42.98791" lon="1.94952">
        <ele>421.5</ele>
        <time>2023-04-23T12:35:37.000Z</time>
      </trkpt>
      <trkpt lat="42.98791" lon="1.94943">
        <ele>422.2</ele>
        <time>2023-04-23T12:35:38.000Z</time>
      </trkpt>
      <trkpt lat="42.98792" lon="1.94937">
        <ele>422.5</ele>
        <time>2023-04-23T12:35:39.000Z</time>
      </trkpt>
      <trkpt lat="42.98792" lon="1.9493">
        <ele>423</ele>
        <time>2023-04-23T12:35:40.000Z</time>
      </trkpt>
      <trkpt lat="42.98794" lon="1.9492">
        <ele>423.3</ele>
        <time>2023-04-23T12:35:42.000Z</time>
      </trkpt>
      <trkpt lat="42.98797" lon="1.94911">
        <ele>423.1</ele>
        <time>2023-04-23T12:35:44.000Z</time>
      </trkpt>
      <trkpt lat="42.98802" lon="1.94902">
        <ele>422.5</ele>
        <time>2023-04-23T12:35:46.000Z</time>
      </trkpt>
      <trkpt lat="42.98807" lon="1.94897">
        <ele>421.5</ele>
        <time>2023-04-23T12:35:48.000Z</time>
      </trkpt>
      <trkpt lat="42.98814" lon="1.94894">
        <ele>419.7</ele>
        <time>2023-04-23T12:35:50.000Z</time>
      </trkpt>
      <trkpt lat="42.98821" lon="1.94891">
        <ele>418.3</ele>
        <time>2023-04-23T12:35:52.000Z</time>
      </trkpt>
      <trkpt lat="42.98826" lon="1.94893">
        <ele>417.6</ele>
        <time>2023-04-23T12:35:54.000Z</time>
      </trkpt>
      <trkpt lat="42.98834" lon="1.94898">
        <ele>416.3</ele>
        <time>2023-04-23T12:35:56.000Z</time>
      </trkpt>
      <trkpt lat="42.98839" lon="1.949">
        <ele>415.4</ele>
        <time>2023-04-23T12:35:57.000Z</time>
      </trkpt>
      <trkpt lat="42.98844" lon="1.94904">
        <ele>414.2</ele>
        <time>2023-04-23T12:35:58.000Z</time>
      </trkpt>
      <trkpt lat="42.98849" lon="1.94908">
        <ele>412.9</ele>
        <time>2023-04-23T12:35:59.000Z</time>
      </trkpt>
      <trkpt lat="42.98853" lon="1.94912">
        <ele>412</ele>
        <time>2023-04-23T12:36:00.000Z</time>
      </trkpt>
      <trkpt lat="42.9886" lon="1.94919">
        <ele>410.2</ele>
        <time>2023-04-23T12:36:02.000Z</time>
      </trkpt>
      <trkpt lat="42.98865" lon="1.94922">
        <ele>409.4</ele>
        <time>2023-04-23T12:36:05.000Z</time>
      </trkpt>
      <trkpt lat="42.9888" lon="1.94921">
        <ele>409.3</ele>
        <time>2023-04-23T12:36:09.000Z</time>
      </trkpt>
      <trkpt lat="42.98885" lon="1.94925">
        <ele>407.9</ele>
        <time>2023-04-23T12:36:12.000Z</time>
      </trkpt>
      <trkpt lat="42.9889" lon="1.94927">
        <ele>407</ele>
        <time>2023-04-23T12:36:15.000Z</time>
      </trkpt>
      <trkpt lat="42.98896" lon="1.94922">
        <ele>408</ele>
        <time>2023-04-23T12:36:17.000Z</time>
      </trkpt>
      <trkpt lat="42.98902" lon="1.94917">
        <ele>409.4</ele>
        <time>2023-04-23T12:36:19.000Z</time>
      </trkpt>
      <trkpt lat="42.98906" lon="1.94912">
        <ele>410.9</ele>
        <time>2023-04-23T12:36:21.000Z</time>
      </trkpt>
      <trkpt lat="42.9891" lon="1.94907">
        <ele>411.8</ele>
        <time>2023-04-23T12:36:23.000Z</time>
      </trkpt>
      <trkpt lat="42.98917" lon="1.94905">
        <ele>411.9</ele>
        <time>2023-04-23T12:36:26.000Z</time>
      </trkpt>
      <trkpt lat="42.98923" lon="1.94905">
        <ele>411.2</ele>
        <time>2023-04-23T12:36:28.000Z</time>
      </trkpt>
      <trkpt lat="42.9893" lon="1.94908">
        <ele>409.7</ele>
        <time>2023-04-23T12:36:31.000Z</time>
      </trkpt>
      <trkpt lat="42.98935" lon="1.94909">
        <ele>408.7</ele>
        <time>2023-04-23T12:36:33.000Z</time>
      </trkpt>
      <trkpt lat="42.98942" lon="1.94909">
        <ele>407.9</ele>
        <time>2023-04-23T12:36:35.000Z</time>
      </trkpt>
      <trkpt lat="42.98946" lon="1.94909">
        <ele>407.4</ele>
        <time>2023-04-23T12:36:37.000Z</time>
      </trkpt>
      <trkpt lat="42.98953" lon="1.94906">
        <ele>407.2</ele>
        <time>2023-04-23T12:36:39.000Z</time>
      </trkpt>
      <trkpt lat="42.98958" lon="1.94905">
        <ele>406.7</ele>
        <time>2023-04-23T12:36:40.000Z</time>
      </trkpt>
      <trkpt lat="42.98963" lon="1.94903">
        <ele>406.1</ele>
        <time>2023-04-23T12:36:41.000Z</time>
      </trkpt>
      <trkpt lat="42.98969" lon="1.94901">
        <ele>405.6</ele>
        <time>2023-04-23T12:36:43.000Z</time>
      </trkpt>
      <trkpt lat="42.98973" lon="1.94899">
        <ele>405.3</ele>
        <time>2023-04-23T12:36:45.000Z</time>
      </trkpt>
      <trkpt lat="42.98978" lon="1.94897">
        <ele>405.1</ele>
        <time>2023-04-23T12:36:47.000Z</time>
      </trkpt>
      <trkpt lat="42.98982" lon="1.94894">
        <ele>404.9</ele>
        <time>2023-04-23T12:36:49.000Z</time>
      </trkpt>
      <trkpt lat="42.98987" lon="1.94891">
        <ele>404.9</ele>
        <time>2023-04-23T12:36:51.000Z</time>
      </trkpt>
      <trkpt lat="42.98991" lon="1.94887">
        <ele>405.5</ele>
        <time>2023-04-23T12:36:53.000Z</time>
      </trkpt>
      <trkpt lat="42.98997" lon="1.94884">
        <ele>406</ele>
        <time>2023-04-23T12:36:55.000Z</time>
      </trkpt>
      <trkpt lat="42.99005" lon="1.9488">
        <ele>406.1</ele>
        <time>2023-04-23T12:36:57.000Z</time>
      </trkpt>
      <trkpt lat="42.99011" lon="1.94878">
        <ele>405.8</ele>
        <time>2023-04-23T12:36:59.000Z</time>
      </trkpt>
      <trkpt lat="42.99018" lon="1.94874">
        <ele>405.2</ele>
        <time>2023-04-23T12:37:02.000Z</time>
      </trkpt>
      <trkpt lat="42.99026" lon="1.94868">
        <ele>404.4</ele>
        <time>2023-04-23T12:37:04.000Z</time>
      </trkpt>
      <trkpt lat="42.99031" lon="1.94861">
        <ele>404.2</ele>
        <time>2023-04-23T12:37:06.000Z</time>
      </trkpt>
      <trkpt lat="42.99037" lon="1.94855">
        <ele>403.5</ele>
        <time>2023-04-23T12:37:08.000Z</time>
      </trkpt>
      <trkpt lat="42.99042" lon="1.94848">
        <ele>402.8</ele>
        <time>2023-04-23T12:37:10.000Z</time>
      </trkpt>
      <trkpt lat="42.99046" lon="1.94844">
        <ele>403.4</ele>
        <time>2023-04-23T12:37:11.000Z</time>
      </trkpt>
      <trkpt lat="42.9905" lon="1.94839">
        <ele>404.1</ele>
        <time>2023-04-23T12:37:12.000Z</time>
      </trkpt>
      <trkpt lat="42.99055" lon="1.9483">
        <ele>405.5</ele>
        <time>2023-04-23T12:37:14.000Z</time>
      </trkpt>
      <trkpt lat="42.99057" lon="1.94822">
        <ele>406.9</ele>
        <time>2023-04-23T12:37:16.000Z</time>
      </trkpt>
      <trkpt lat="42.99058" lon="1.94814">
        <ele>408.1</ele>
        <time>2023-04-23T12:37:18.000Z</time>
      </trkpt>
      <trkpt lat="42.9906" lon="1.94808">
        <ele>409</ele>
        <time>2023-04-23T12:37:20.000Z</time>
      </trkpt>
      <trkpt lat="42.99063" lon="1.948">
        <ele>410.1</ele>
        <time>2023-04-23T12:37:22.000Z</time>
      </trkpt>
      <trkpt lat="42.99069" lon="1.94791">
        <ele>411.1</ele>
        <time>2023-04-23T12:37:24.000Z</time>
      </trkpt>
      <trkpt lat="42.99076" lon="1.94784">
        <ele>410.5</ele>
        <time>2023-04-23T12:37:26.000Z</time>
      </trkpt>
      <trkpt lat="42.99083" lon="1.9478">
        <ele>409.2</ele>
        <time>2023-04-23T12:37:28.000Z</time>
      </trkpt>
      <trkpt lat="42.99089" lon="1.94777">
        <ele>407.7</ele>
        <time>2023-04-23T12:37:30.000Z</time>
      </trkpt>
      <trkpt lat="42.99096" lon="1.94776">
        <ele>405.8</ele>
        <time>2023-04-23T12:37:32.000Z</time>
      </trkpt>
      <trkpt lat="42.99103" lon="1.94778">
        <ele>404.2</ele>
        <time>2023-04-23T12:37:34.000Z</time>
      </trkpt>
      <trkpt lat="42.99109" lon="1.94783">
        <ele>402.4</ele>
        <time>2023-04-23T12:37:36.000Z</time>
      </trkpt>
      <trkpt lat="42.99114" lon="1.9479">
        <ele>401.3</ele>
        <time>2023-04-23T12:37:38.000Z</time>
      </trkpt>
      <trkpt lat="42.99116" lon="1.94798">
        <ele>401.1</ele>
        <time>2023-04-23T12:37:40.000Z</time>
      </trkpt>
      <trkpt lat="42.99118" lon="1.94804">
        <ele>400.9</ele>
        <time>2023-04-23T12:37:42.000Z</time>
      </trkpt>
      <trkpt lat="42.99121" lon="1.94812">
        <ele>400.8</ele>
        <time>2023-04-23T12:37:44.000Z</time>
      </trkpt>
      <trkpt lat="42.99121" lon="1.94819">
        <ele>401.1</ele>
        <time>2023-04-23T12:37:46.000Z</time>
      </trkpt>
      <trkpt lat="42.99122" lon="1.94829">
        <ele>400.8</ele>
        <time>2023-04-23T12:37:49.000Z</time>
      </trkpt>
      <trkpt lat="42.99122" lon="1.94837">
        <ele>400.4</ele>
        <time>2023-04-23T12:37:51.000Z</time>
      </trkpt>
      <trkpt lat="42.99126" lon="1.94845">
        <ele>400.1</ele>
        <time>2023-04-23T12:37:53.000Z</time>
      </trkpt>
      <trkpt lat="42.99128" lon="1.94851">
        <ele>399.6</ele>
        <time>2023-04-23T12:37:55.000Z</time>
      </trkpt>
      <trkpt lat="42.99129" lon="1.94858">
        <ele>398.9</ele>
        <time>2023-04-23T12:37:57.000Z</time>
      </trkpt>
      <trkpt lat="42.99129" lon="1.94865">
        <ele>398.1</ele>
        <time>2023-04-23T12:37:59.000Z</time>
      </trkpt>
      <trkpt lat="42.99128" lon="1.94872">
        <ele>397.1</ele>
        <time>2023-04-23T12:38:01.000Z</time>
      </trkpt>
      <trkpt lat="42.99127" lon="1.94878">
        <ele>396.4</ele>
        <time>2023-04-23T12:38:03.000Z</time>
      </trkpt>
      <trkpt lat="42.99126" lon="1.94885">
        <ele>396.2</ele>
        <time>2023-04-23T12:38:06.000Z</time>
      </trkpt>
      <trkpt lat="42.99124" lon="1.94892">
        <ele>396.1</ele>
        <time>2023-04-23T12:38:22.000Z</time>
      </trkpt>
      <trkpt lat="42.99119" lon="1.94899">
        <ele>396.5</ele>
        <time>2023-04-23T12:38:23.000Z</time>
      </trkpt>
      <trkpt lat="42.99115" lon="1.94905">
        <ele>396.6</ele>
        <time>2023-04-23T12:38:24.000Z</time>
      </trkpt>
      <trkpt lat="42.99112" lon="1.94915">
        <ele>396.3</ele>
        <time>2023-04-23T12:38:26.000Z</time>
      </trkpt>
      <trkpt lat="42.99112" lon="1.94923">
        <ele>395.9</ele>
        <time>2023-04-23T12:38:28.000Z</time>
      </trkpt>
      <trkpt lat="42.99112" lon="1.9493">
        <ele>395.5</ele>
        <time>2023-04-23T12:38:31.000Z</time>
      </trkpt>
      <trkpt lat="42.99111" lon="1.94936">
        <ele>395.7</ele>
        <time>2023-04-23T12:38:33.000Z</time>
      </trkpt>
      <trkpt lat="42.99109" lon="1.94943">
        <ele>395.8</ele>
        <time>2023-04-23T12:38:35.000Z</time>
      </trkpt>
      <trkpt lat="42.9911" lon="1.94952">
        <ele>396.2</ele>
        <time>2023-04-23T12:38:38.000Z</time>
      </trkpt>
      <trkpt lat="42.99113" lon="1.94958">
        <ele>396.7</ele>
        <time>2023-04-23T12:38:40.000Z</time>
      </trkpt>
      <trkpt lat="42.99115" lon="1.94966">
        <ele>397.5</ele>
        <time>2023-04-23T12:38:42.000Z</time>
      </trkpt>
      <trkpt lat="42.99116" lon="1.94974">
        <ele>398.2</ele>
        <time>2023-04-23T12:38:44.000Z</time>
      </trkpt>
      <trkpt lat="42.99115" lon="1.9498">
        <ele>398.5</ele>
        <time>2023-04-23T12:38:46.000Z</time>
      </trkpt>
      <trkpt lat="42.99109" lon="1.94987">
        <ele>398.4</ele>
        <time>2023-04-23T12:38:49.000Z</time>
      </trkpt>
      <trkpt lat="42.99104" lon="1.94987">
        <ele>397.8</ele>
        <time>2023-04-23T12:38:51.000Z</time>
      </trkpt>
      <trkpt lat="42.99097" lon="1.94984">
        <ele>396.8</ele>
        <time>2023-04-23T12:38:53.000Z</time>
      </trkpt>
      <trkpt lat="42.99093" lon="1.94982">
        <ele>396.6</ele>
        <time>2023-04-23T12:38:54.000Z</time>
      </trkpt>
      <trkpt lat="42.99087" lon="1.94987">
        <ele>396.6</ele>
        <time>2023-04-23T12:38:56.000Z</time>
      </trkpt>
      <trkpt lat="42.99083" lon="1.94992">
        <ele>396.8</ele>
        <time>2023-04-23T12:38:58.000Z</time>
      </trkpt>
      <trkpt lat="42.9908" lon="1.94998">
        <ele>396.8</ele>
        <time>2023-04-23T12:39:00.000Z</time>
      </trkpt>
      <trkpt lat="42.99077" lon="1.95004">
        <ele>396.8</ele>
        <time>2023-04-23T12:39:02.000Z</time>
      </trkpt>
      <trkpt lat="42.99074" lon="1.95012">
        <ele>396.6</ele>
        <time>2023-04-23T12:39:04.000Z</time>
      </trkpt>
      <trkpt lat="42.9907" lon="1.95019">
        <ele>396.4</ele>
        <time>2023-04-23T12:39:07.000Z</time>
      </trkpt>
      <trkpt lat="42.99065" lon="1.95023">
        <ele>396.2</ele>
        <time>2023-04-23T12:39:09.000Z</time>
      </trkpt>
      <trkpt lat="42.99061" lon="1.9503">
        <ele>395.9</ele>
        <time>2023-04-23T12:39:11.000Z</time>
      </trkpt>
      <trkpt lat="42.99057" lon="1.95039">
        <ele>395.7</ele>
        <time>2023-04-23T12:39:13.000Z</time>
      </trkpt>
      <trkpt lat="42.99054" lon="1.95048">
        <ele>395.8</ele>
        <time>2023-04-23T12:39:15.000Z</time>
      </trkpt>
      <trkpt lat="42.99052" lon="1.95058">
        <ele>395.8</ele>
        <time>2023-04-23T12:39:17.000Z</time>
      </trkpt>
      <trkpt lat="42.9905" lon="1.95068">
        <ele>396</ele>
        <time>2023-04-23T12:39:19.000Z</time>
      </trkpt>
      <trkpt lat="42.99051" lon="1.95077">
        <ele>396.9</ele>
        <time>2023-04-23T12:39:21.000Z</time>
      </trkpt>
      <trkpt lat="42.9905" lon="1.95083">
        <ele>397.1</ele>
        <time>2023-04-23T12:39:23.000Z</time>
      </trkpt>
      <trkpt lat="42.99047" lon="1.95091">
        <ele>396.3</ele>
        <time>2023-04-23T12:39:25.000Z</time>
      </trkpt>
      <trkpt lat="42.99045" lon="1.95098">
        <ele>395.7</ele>
        <time>2023-04-23T12:39:27.000Z</time>
      </trkpt>
      <trkpt lat="42.99043" lon="1.95106">
        <ele>395</ele>
        <time>2023-04-23T12:39:29.000Z</time>
      </trkpt>
      <trkpt lat="42.99041" lon="1.95115">
        <ele>394.5</ele>
        <time>2023-04-23T12:39:31.000Z</time>
      </trkpt>
      <trkpt lat="42.9904" lon="1.95124">
        <ele>394.6</ele>
        <time>2023-04-23T12:39:33.000Z</time>
      </trkpt>
      <trkpt lat="42.99039" lon="1.95135">
        <ele>394.2</ele>
        <time>2023-04-23T12:39:35.000Z</time>
      </trkpt>
      <trkpt lat="42.9904" lon="1.95146">
        <ele>393.9</ele>
        <time>2023-04-23T12:39:37.000Z</time>
      </trkpt>
      <trkpt lat="42.99042" lon="1.95156">
        <ele>393.8</ele>
        <time>2023-04-23T12:39:39.000Z</time>
      </trkpt>
      <trkpt lat="42.99044" lon="1.95164">
        <ele>394.1</ele>
        <time>2023-04-23T12:39:41.000Z</time>
      </trkpt>
      <trkpt lat="42.99047" lon="1.95174">
        <ele>394.3</ele>
        <time>2023-04-23T12:39:43.000Z</time>
      </trkpt>
      <trkpt lat="42.99049" lon="1.9518">
        <ele>394.6</ele>
        <time>2023-04-23T12:39:44.000Z</time>
      </trkpt>
      <trkpt lat="42.99055" lon="1.95185">
        <ele>395.9</ele>
        <time>2023-04-23T12:39:46.000Z</time>
      </trkpt>
      <trkpt lat="42.99058" lon="1.95189">
        <ele>396.6</ele>
        <time>2023-04-23T12:39:48.000Z</time>
      </trkpt>
      <trkpt lat="42.99062" lon="1.95194">
        <ele>397.6</ele>
        <time>2023-04-23T12:39:50.000Z</time>
      </trkpt>
      <trkpt lat="42.99068" lon="1.95202">
        <ele>398.8</ele>
        <time>2023-04-23T12:39:52.000Z</time>
      </trkpt>
      <trkpt lat="42.99068" lon="1.95212">
        <ele>397.8</ele>
        <time>2023-04-23T12:39:55.000Z</time>
      </trkpt>
      <trkpt lat="42.99071" lon="1.95218">
        <ele>397.3</ele>
        <time>2023-04-23T12:39:56.000Z</time>
      </trkpt>
      <trkpt lat="42.99074" lon="1.95228">
        <ele>395.8</ele>
        <time>2023-04-23T12:39:58.000Z</time>
      </trkpt>
      <trkpt lat="42.99079" lon="1.9524">
        <ele>394.5</ele>
        <time>2023-04-23T12:40:00.000Z</time>
      </trkpt>
      <trkpt lat="42.99082" lon="1.95245">
        <ele>394.2</ele>
        <time>2023-04-23T12:40:01.000Z</time>
      </trkpt>
      <trkpt lat="42.99085" lon="1.9525">
        <ele>393.7</ele>
        <time>2023-04-23T12:40:02.000Z</time>
      </trkpt>
      <trkpt lat="42.99089" lon="1.95259">
        <ele>392.8</ele>
        <time>2023-04-23T12:40:04.000Z</time>
      </trkpt>
      <trkpt lat="42.99091" lon="1.95265">
        <ele>392.1</ele>
        <time>2023-04-23T12:40:06.000Z</time>
      </trkpt>
      <trkpt lat="42.99093" lon="1.95272">
        <ele>392.1</ele>
        <time>2023-04-23T12:40:08.000Z</time>
      </trkpt>
      <trkpt lat="42.99094" lon="1.9528">
        <ele>391.9</ele>
        <time>2023-04-23T12:40:10.000Z</time>
      </trkpt>
      <trkpt lat="42.99091" lon="1.95287">
        <ele>391.3</ele>
        <time>2023-04-23T12:40:12.000Z</time>
      </trkpt>
      <trkpt lat="42.99091" lon="1.95294">
        <ele>391.1</ele>
        <time>2023-04-23T12:40:14.000Z</time>
      </trkpt>
      <trkpt lat="42.99091" lon="1.953">
        <ele>391.4</ele>
        <time>2023-04-23T12:40:16.000Z</time>
      </trkpt>
      <trkpt lat="42.99091" lon="1.95311">
        <ele>391.7</ele>
        <time>2023-04-23T12:40:30.000Z</time>
      </trkpt>
      <trkpt lat="42.99093" lon="1.95319">
        <ele>392.3</ele>
        <time>2023-04-23T12:40:32.000Z</time>
      </trkpt>
      <trkpt lat="42.99095" lon="1.95327">
        <ele>393.4</ele>
        <time>2023-04-23T12:40:34.000Z</time>
      </trkpt>
      <trkpt lat="42.99096" lon="1.95335">
        <ele>394.4</ele>
        <time>2023-04-23T12:40:36.000Z</time>
      </trkpt>
      <trkpt lat="42.99097" lon="1.95342">
        <ele>395.3</ele>
        <time>2023-04-23T12:40:38.000Z</time>
      </trkpt>
      <trkpt lat="42.99095" lon="1.95351">
        <ele>395.5</ele>
        <time>2023-04-23T12:40:40.000Z</time>
      </trkpt>
      <trkpt lat="42.99093" lon="1.95359">
        <ele>395.4</ele>
        <time>2023-04-23T12:40:42.000Z</time>
      </trkpt>
      <trkpt lat="42.99092" lon="1.95368">
        <ele>395.6</ele>
        <time>2023-04-23T12:40:44.000Z</time>
      </trkpt>
      <trkpt lat="42.99091" lon="1.95377">
        <ele>395.8</ele>
        <time>2023-04-23T12:40:46.000Z</time>
      </trkpt>
      <trkpt lat="42.99089" lon="1.95388">
        <ele>395.6</ele>
        <time>2023-04-23T12:40:48.000Z</time>
      </trkpt>
      <trkpt lat="42.99088" lon="1.95396">
        <ele>395.6</ele>
        <time>2023-04-23T12:40:50.000Z</time>
      </trkpt>
      <trkpt lat="42.99088" lon="1.95404">
        <ele>395.7</ele>
        <time>2023-04-23T12:40:52.000Z</time>
      </trkpt>
      <trkpt lat="42.99088" lon="1.95412">
        <ele>396.1</ele>
        <time>2023-04-23T12:40:54.000Z</time>
      </trkpt>
      <trkpt lat="42.99086" lon="1.9542">
        <ele>395.9</ele>
        <time>2023-04-23T12:40:56.000Z</time>
      </trkpt>
      <trkpt lat="42.99085" lon="1.95428">
        <ele>396</ele>
        <time>2023-04-23T12:40:58.000Z</time>
      </trkpt>
      <trkpt lat="42.99085" lon="1.95434">
        <ele>396.3</ele>
        <time>2023-04-23T12:41:00.000Z</time>
      </trkpt>
      <trkpt lat="42.99083" lon="1.95441">
        <ele>396.2</ele>
        <time>2023-04-23T12:41:02.000Z</time>
      </trkpt>
      <trkpt lat="42.99082" lon="1.95448">
        <ele>396.5</ele>
        <time>2023-04-23T12:41:04.000Z</time>
      </trkpt>
      <trkpt lat="42.9908" lon="1.95456">
        <ele>396.7</ele>
        <time>2023-04-23T12:41:06.000Z</time>
      </trkpt>
      <trkpt lat="42.99077" lon="1.95462">
        <ele>396.5</ele>
        <time>2023-04-23T12:41:08.000Z</time>
      </trkpt>
      <trkpt lat="42.99072" lon="1.95468">
        <ele>395.8</ele>
        <time>2023-04-23T12:41:10.000Z</time>
      </trkpt>
      <trkpt lat="42.99067" lon="1.95477">
        <ele>395.6</ele>
        <time>2023-04-23T12:41:12.000Z</time>
      </trkpt>
      <trkpt lat="42.99062" lon="1.95486">
        <ele>395.6</ele>
        <time>2023-04-23T12:41:14.000Z</time>
      </trkpt>
      <trkpt lat="42.99056" lon="1.95494">
        <ele>395.1</ele>
        <time>2023-04-23T12:41:16.000Z</time>
      </trkpt>
      <trkpt lat="42.99052" lon="1.95503">
        <ele>394.9</ele>
        <time>2023-04-23T12:41:18.000Z</time>
      </trkpt>
      <trkpt lat="42.99055" lon="1.95511">
        <ele>396.1</ele>
        <time>2023-04-23T12:41:20.000Z</time>
      </trkpt>
      <trkpt lat="42.99058" lon="1.95517">
        <ele>397.3</ele>
        <time>2023-04-23T12:41:22.000Z</time>
      </trkpt>
      <trkpt lat="42.99064" lon="1.95519">
        <ele>399.2</ele>
        <time>2023-04-23T12:41:25.000Z</time>
      </trkpt>
      <trkpt lat="42.99068" lon="1.95521">
        <ele>400.5</ele>
        <time>2023-04-23T12:41:28.000Z</time>
      </trkpt>
      <trkpt lat="42.99074" lon="1.9552">
        <ele>401.1</ele>
        <time>2023-04-23T12:41:31.000Z</time>
      </trkpt>
      <trkpt lat="42.99081" lon="1.95521">
        <ele>402.1</ele>
        <time>2023-04-23T12:41:33.000Z</time>
      </trkpt>
      <trkpt lat="42.99086" lon="1.9552">
        <ele>402.8</ele>
        <time>2023-04-23T12:41:35.000Z</time>
      </trkpt>
      <trkpt lat="42.99093" lon="1.95521">
        <ele>403.5</ele>
        <time>2023-04-23T12:41:37.000Z</time>
      </trkpt>
      <trkpt lat="42.99102" lon="1.95527">
        <ele>403.4</ele>
        <time>2023-04-23T12:41:39.000Z</time>
      </trkpt>
      <trkpt lat="42.99106" lon="1.95531">
        <ele>403.1</ele>
        <time>2023-04-23T12:41:40.000Z</time>
      </trkpt>
      <trkpt lat="42.99111" lon="1.95534">
        <ele>402.8</ele>
        <time>2023-04-23T12:41:41.000Z</time>
      </trkpt>
      <trkpt lat="42.99119" lon="1.95537">
        <ele>402.6</ele>
        <time>2023-04-23T12:41:43.000Z</time>
      </trkpt>
      <trkpt lat="42.99125" lon="1.95537">
        <ele>402.8</ele>
        <time>2023-04-23T12:41:44.000Z</time>
      </trkpt>
      <trkpt lat="42.99134" lon="1.95539">
        <ele>402.4</ele>
        <time>2023-04-23T12:41:46.000Z</time>
      </trkpt>
      <trkpt lat="42.99138" lon="1.95542">
        <ele>402</ele>
        <time>2023-04-23T12:41:47.000Z</time>
      </trkpt>
      <trkpt lat="42.99143" lon="1.95544">
        <ele>401.9</ele>
        <time>2023-04-23T12:41:48.000Z</time>
      </trkpt>
      <trkpt lat="42.99148" lon="1.95547">
        <ele>401.8</ele>
        <time>2023-04-23T12:41:49.000Z</time>
      </trkpt>
      <trkpt lat="42.99154" lon="1.95547">
        <ele>401.9</ele>
        <time>2023-04-23T12:41:50.000Z</time>
      </trkpt>
      <trkpt lat="42.9916" lon="1.95547">
        <ele>402.1</ele>
        <time>2023-04-23T12:41:51.000Z</time>
      </trkpt>
      <trkpt lat="42.99166" lon="1.95547">
        <ele>402.4</ele>
        <time>2023-04-23T12:41:53.000Z</time>
      </trkpt>
      <trkpt lat="42.99172" lon="1.95548">
        <ele>402.6</ele>
        <time>2023-04-23T12:41:54.000Z</time>
      </trkpt>
      <trkpt lat="42.99181" lon="1.95551">
        <ele>402.3</ele>
        <time>2023-04-23T12:41:56.000Z</time>
      </trkpt>
      <trkpt lat="42.99189" lon="1.95558">
        <ele>402.3</ele>
        <time>2023-04-23T12:41:58.000Z</time>
      </trkpt>
      <trkpt lat="42.99195" lon="1.95565">
        <ele>401.1</ele>
        <time>2023-04-23T12:42:00.000Z</time>
      </trkpt>
      <trkpt lat="42.99199" lon="1.95573">
        <ele>399.7</ele>
        <time>2023-04-23T12:42:02.000Z</time>
      </trkpt>
      <trkpt lat="42.99204" lon="1.95576">
        <ele>399.4</ele>
        <time>2023-04-23T12:42:04.000Z</time>
      </trkpt>
      <trkpt lat="42.99208" lon="1.95582">
        <ele>398.3</ele>
        <time>2023-04-23T12:42:06.000Z</time>
      </trkpt>
      <trkpt lat="42.99211" lon="1.95589">
        <ele>397.2</ele>
        <time>2023-04-23T12:42:08.000Z</time>
      </trkpt>
      <trkpt lat="42.99215" lon="1.95594">
        <ele>397.2</ele>
        <time>2023-04-23T12:42:10.000Z</time>
      </trkpt>
      <trkpt lat="42.9922" lon="1.95599">
        <ele>397.4</ele>
        <time>2023-04-23T12:42:13.000Z</time>
      </trkpt>
      <trkpt lat="42.99224" lon="1.95604">
        <ele>397.6</ele>
        <time>2023-04-23T12:42:28.000Z</time>
      </trkpt>
      <trkpt lat="42.9923" lon="1.95605">
        <ele>398.9</ele>
        <time>2023-04-23T12:42:31.000Z</time>
      </trkpt>
      <trkpt lat="42.99235" lon="1.95603">
        <ele>400.2</ele>
        <time>2023-04-23T12:42:33.000Z</time>
      </trkpt>
      <trkpt lat="42.99242" lon="1.95606">
        <ele>401.8</ele>
        <time>2023-04-23T12:42:35.000Z</time>
      </trkpt>
      <trkpt lat="42.99248" lon="1.95606">
        <ele>403.4</ele>
        <time>2023-04-23T12:42:37.000Z</time>
      </trkpt>
      <trkpt lat="42.99254" lon="1.95607">
        <ele>404.9</ele>
        <time>2023-04-23T12:42:39.000Z</time>
      </trkpt>
      <trkpt lat="42.99263" lon="1.95609">
        <ele>407.2</ele>
        <time>2023-04-23T12:42:41.000Z</time>
      </trkpt>
      <trkpt lat="42.99268" lon="1.95613">
        <ele>407.4</ele>
        <time>2023-04-23T12:42:42.000Z</time>
      </trkpt>
      <trkpt lat="42.99279" lon="1.95618">
        <ele>407</ele>
        <time>2023-04-23T12:42:44.000Z</time>
      </trkpt>
      <trkpt lat="42.99285" lon="1.95622">
        <ele>406.6</ele>
        <time>2023-04-23T12:42:45.000Z</time>
      </trkpt>
      <trkpt lat="42.9929" lon="1.95625">
        <ele>406.1</ele>
        <time>2023-04-23T12:42:46.000Z</time>
      </trkpt>
      <trkpt lat="42.99294" lon="1.95628">
        <ele>405.9</ele>
        <time>2023-04-23T12:42:47.000Z</time>
      </trkpt>
      <trkpt lat="42.99299" lon="1.9563">
        <ele>405.6</ele>
        <time>2023-04-23T12:42:48.000Z</time>
      </trkpt>
      <trkpt lat="42.99303" lon="1.95634">
        <ele>405.2</ele>
        <time>2023-04-23T12:42:49.000Z</time>
      </trkpt>
      <trkpt lat="42.99309" lon="1.95637">
        <ele>404.5</ele>
        <time>2023-04-23T12:42:51.000Z</time>
      </trkpt>
      <trkpt lat="42.99316" lon="1.95641">
        <ele>403.5</ele>
        <time>2023-04-23T12:42:53.000Z</time>
      </trkpt>
      <trkpt lat="42.99323" lon="1.95645">
        <ele>402.7</ele>
        <time>2023-04-23T12:42:55.000Z</time>
      </trkpt>
      <trkpt lat="42.99331" lon="1.95648">
        <ele>402.4</ele>
        <time>2023-04-23T12:42:57.000Z</time>
      </trkpt>
      <trkpt lat="42.99339" lon="1.95652">
        <ele>401.3</ele>
        <time>2023-04-23T12:42:59.000Z</time>
      </trkpt>
      <trkpt lat="42.99347" lon="1.95656">
        <ele>400</ele>
        <time>2023-04-23T12:43:01.000Z</time>
      </trkpt>
      <trkpt lat="42.99354" lon="1.95661">
        <ele>400.3</ele>
        <time>2023-04-23T12:43:03.000Z</time>
      </trkpt>
      <trkpt lat="42.99362" lon="1.95665">
        <ele>401.2</ele>
        <time>2023-04-23T12:43:05.000Z</time>
      </trkpt>
      <trkpt lat="42.9937" lon="1.95667">
        <ele>402.5</ele>
        <time>2023-04-23T12:43:07.000Z</time>
      </trkpt>
      <trkpt lat="42.99373" lon="1.95671">
        <ele>402.5</ele>
        <time>2023-04-23T12:43:08.000Z</time>
      </trkpt>
      <trkpt lat="42.99378" lon="1.95674">
        <ele>402.5</ele>
        <time>2023-04-23T12:43:09.000Z</time>
      </trkpt>
      <trkpt lat="42.99382" lon="1.95678">
        <ele>402.2</ele>
        <time>2023-04-23T12:43:10.000Z</time>
      </trkpt>
      <trkpt lat="42.99387" lon="1.95681">
        <ele>402</ele>
        <time>2023-04-23T12:43:11.000Z</time>
      </trkpt>
      <trkpt lat="42.99392" lon="1.95684">
        <ele>402</ele>
        <time>2023-04-23T12:43:12.000Z</time>
      </trkpt>
      <trkpt lat="42.994" lon="1.9569">
        <ele>401.9</ele>
        <time>2023-04-23T12:43:14.000Z</time>
      </trkpt>
      <trkpt lat="42.99406" lon="1.95695">
        <ele>401.5</ele>
        <time>2023-04-23T12:43:16.000Z</time>
      </trkpt>
      <trkpt lat="42.99412" lon="1.95698">
        <ele>401.8</ele>
        <time>2023-04-23T12:43:18.000Z</time>
      </trkpt>
      <trkpt lat="42.99417" lon="1.95702">
        <ele>401.8</ele>
        <time>2023-04-23T12:43:20.000Z</time>
      </trkpt>
      <trkpt lat="42.99421" lon="1.95707">
        <ele>401.2</ele>
        <time>2023-04-23T12:43:22.000Z</time>
      </trkpt>
      <trkpt lat="42.99421" lon="1.95715">
        <ele>400.3</ele>
        <time>2023-04-23T12:43:25.000Z</time>
      </trkpt>
      <trkpt lat="42.9942" lon="1.95722">
        <ele>399.3</ele>
        <time>2023-04-23T12:43:28.000Z</time>
      </trkpt>
      <trkpt lat="42.99419" lon="1.95729">
        <ele>398.3</ele>
        <time>2023-04-23T12:43:31.000Z</time>
      </trkpt>
      <trkpt lat="42.99419" lon="1.95736">
        <ele>397.5</ele>
        <time>2023-04-23T12:43:35.000Z</time>
      </trkpt>
      <trkpt lat="42.99417" lon="1.95743">
        <ele>396.9</ele>
        <time>2023-04-23T12:43:39.000Z</time>
      </trkpt>
      <trkpt lat="42.99417" lon="1.9575">
        <ele>396.7</ele>
        <time>2023-04-23T12:43:43.000Z</time>
      </trkpt>
      <trkpt lat="42.99414" lon="1.95758">
        <ele>396.3</ele>
        <time>2023-04-23T12:43:47.000Z</time>
      </trkpt>
      <trkpt lat="42.99413" lon="1.95764">
        <ele>396.1</ele>
        <time>2023-04-23T12:43:50.000Z</time>
      </trkpt>
      <trkpt lat="42.99412" lon="1.95771">
        <ele>396</ele>
        <time>2023-04-23T12:43:53.000Z</time>
      </trkpt>
      <trkpt lat="42.9941" lon="1.95778">
        <ele>395.8</ele>
        <time>2023-04-23T12:43:56.000Z</time>
      </trkpt>
      <trkpt lat="42.99409" lon="1.95785">
        <ele>395.7</ele>
        <time>2023-04-23T12:44:00.000Z</time>
      </trkpt>
      <trkpt lat="42.99409" lon="1.95792">
        <ele>395.6</ele>
        <time>2023-04-23T12:44:04.000Z</time>
      </trkpt>
      <trkpt lat="42.99406" lon="1.95799">
        <ele>395.3</ele>
        <time>2023-04-23T12:44:08.000Z</time>
      </trkpt>
      <trkpt lat="42.99403" lon="1.95805">
        <ele>395</ele>
        <time>2023-04-23T12:44:11.000Z</time>
      </trkpt>
      <trkpt lat="42.99402" lon="1.95814">
        <ele>395</ele>
        <time>2023-04-23T12:45:01.000Z</time>
      </trkpt>
      <trkpt lat="42.994" lon="1.9582">
        <ele>394.9</ele>
        <time>2023-04-23T12:45:03.000Z</time>
      </trkpt>
      <trkpt lat="42.99399" lon="1.95826">
        <ele>394.9</ele>
        <time>2023-04-23T12:45:05.000Z</time>
      </trkpt>
      <trkpt lat="42.99398" lon="1.95833">
        <ele>394.8</ele>
        <time>2023-04-23T12:45:07.000Z</time>
      </trkpt>
      <trkpt lat="42.99397" lon="1.95841">
        <ele>394.8</ele>
        <time>2023-04-23T12:45:09.000Z</time>
      </trkpt>
      <trkpt lat="42.99396" lon="1.95848">
        <ele>394.8</ele>
        <time>2023-04-23T12:45:11.000Z</time>
      </trkpt>
      <trkpt lat="42.99395" lon="1.95856">
        <ele>394.7</ele>
        <time>2023-04-23T12:45:13.000Z</time>
      </trkpt>
      <trkpt lat="42.99393" lon="1.95864">
        <ele>394.7</ele>
        <time>2023-04-23T12:45:15.000Z</time>
      </trkpt>
      <trkpt lat="42.99392" lon="1.95872">
        <ele>394.6</ele>
        <time>2023-04-23T12:45:17.000Z</time>
      </trkpt>
      <trkpt lat="42.9939" lon="1.9588">
        <ele>394.5</ele>
        <time>2023-04-23T12:45:19.000Z</time>
      </trkpt>
      <trkpt lat="42.99389" lon="1.95887">
        <ele>394.5</ele>
        <time>2023-04-23T12:45:21.000Z</time>
      </trkpt>
      <trkpt lat="42.99387" lon="1.95895">
        <ele>394.4</ele>
        <time>2023-04-23T12:45:23.000Z</time>
      </trkpt>
      <trkpt lat="42.99386" lon="1.95903">
        <ele>394.4</ele>
        <time>2023-04-23T12:45:25.000Z</time>
      </trkpt>
      <trkpt lat="42.99384" lon="1.95911">
        <ele>394.5</ele>
        <time>2023-04-23T12:45:27.000Z</time>
      </trkpt>
      <trkpt lat="42.99383" lon="1.9592">
        <ele>394.7</ele>
        <time>2023-04-23T12:45:29.000Z</time>
      </trkpt>
      <trkpt lat="42.9938" lon="1.95929">
        <ele>394.9</ele>
        <time>2023-04-23T12:45:31.000Z</time>
      </trkpt>
      <trkpt lat="42.9938" lon="1.95937">
        <ele>395</ele>
        <time>2023-04-23T12:45:33.000Z</time>
      </trkpt>
      <trkpt lat="42.99378" lon="1.95946">
        <ele>394.9</ele>
        <time>2023-04-23T12:45:35.000Z</time>
      </trkpt>
      <trkpt lat="42.99376" lon="1.95955">
        <ele>395</ele>
        <time>2023-04-23T12:45:37.000Z</time>
      </trkpt>
      <trkpt lat="42.99375" lon="1.95963">
        <ele>395.2</ele>
        <time>2023-04-23T12:45:39.000Z</time>
      </trkpt>
      <trkpt lat="42.99374" lon="1.95971">
        <ele>395.5</ele>
        <time>2023-04-23T12:45:41.000Z</time>
      </trkpt>
      <trkpt lat="42.99372" lon="1.9598">
        <ele>395.7</ele>
        <time>2023-04-23T12:45:43.000Z</time>
      </trkpt>
      <trkpt lat="42.99371" lon="1.95989">
        <ele>396.1</ele>
        <time>2023-04-23T12:45:45.000Z</time>
      </trkpt>
      <trkpt lat="42.99369" lon="1.95999">
        <ele>396.7</ele>
        <time>2023-04-23T12:45:47.000Z</time>
      </trkpt>
      <trkpt lat="42.99366" lon="1.96008">
        <ele>397.3</ele>
        <time>2023-04-23T12:45:49.000Z</time>
      </trkpt>
      <trkpt lat="42.99363" lon="1.96015">
        <ele>397.7</ele>
        <time>2023-04-23T12:45:51.000Z</time>
      </trkpt>
      <trkpt lat="42.99358" lon="1.96016">
        <ele>397.8</ele>
        <time>2023-04-23T12:46:05.000Z</time>
      </trkpt>
      <trkpt lat="42.99351" lon="1.96014">
        <ele>397.2</ele>
        <time>2023-04-23T12:46:07.000Z</time>
      </trkpt>
      <trkpt lat="42.99344" lon="1.96015">
        <ele>397.3</ele>
        <time>2023-04-23T12:46:09.000Z</time>
      </trkpt>
      <trkpt lat="42.99338" lon="1.96016">
        <ele>397.8</ele>
        <time>2023-04-23T12:46:11.000Z</time>
      </trkpt>
      <trkpt lat="42.99332" lon="1.96018">
        <ele>398.5</ele>
        <time>2023-04-23T12:46:13.000Z</time>
      </trkpt>
      <trkpt lat="42.99326" lon="1.96022">
        <ele>399.6</ele>
        <time>2023-04-23T12:46:15.000Z</time>
      </trkpt>
      <trkpt lat="42.99321" lon="1.96026">
        <ele>400.9</ele>
        <time>2023-04-23T12:46:17.000Z</time>
      </trkpt>
      <trkpt lat="42.99316" lon="1.96029">
        <ele>402.1</ele>
        <time>2023-04-23T12:46:19.000Z</time>
      </trkpt>
      <trkpt lat="42.9931" lon="1.96032">
        <ele>402.9</ele>
        <time>2023-04-23T12:46:21.000Z</time>
      </trkpt>
      <trkpt lat="42.99304" lon="1.96035">
        <ele>403.3</ele>
        <time>2023-04-23T12:46:23.000Z</time>
      </trkpt>
      <trkpt lat="42.99299" lon="1.96038">
        <ele>403.4</ele>
        <time>2023-04-23T12:46:25.000Z</time>
      </trkpt>
      <trkpt lat="42.99293" lon="1.96041">
        <ele>403.1</ele>
        <time>2023-04-23T12:46:27.000Z</time>
      </trkpt>
      <trkpt lat="42.99287" lon="1.96044">
        <ele>403.2</ele>
        <time>2023-04-23T12:46:29.000Z</time>
      </trkpt>
      <trkpt lat="42.99282" lon="1.96048">
        <ele>403.5</ele>
        <time>2023-04-23T12:46:31.000Z</time>
      </trkpt>
      <trkpt lat="42.99277" lon="1.96052">
        <ele>403.9</ele>
        <time>2023-04-23T12:46:33.000Z</time>
      </trkpt>
      <trkpt lat="42.99272" lon="1.96056">
        <ele>404.3</ele>
        <time>2023-04-23T12:46:35.000Z</time>
      </trkpt>
      <trkpt lat="42.99267" lon="1.96059">
        <ele>404.6</ele>
        <time>2023-04-23T12:46:37.000Z</time>
      </trkpt>
      <trkpt lat="42.99262" lon="1.96063">
        <ele>404.9</ele>
        <time>2023-04-23T12:46:39.000Z</time>
      </trkpt>
      <trkpt lat="42.99257" lon="1.96067">
        <ele>404.9</ele>
        <time>2023-04-23T12:46:41.000Z</time>
      </trkpt>
      <trkpt lat="42.99253" lon="1.96072">
        <ele>404.9</ele>
        <time>2023-04-23T12:46:43.000Z</time>
      </trkpt>
      <trkpt lat="42.99248" lon="1.96077">
        <ele>404.7</ele>
        <time>2023-04-23T12:46:45.000Z</time>
      </trkpt>
      <trkpt lat="42.99244" lon="1.96083">
        <ele>404.4</ele>
        <time>2023-04-23T12:46:48.000Z</time>
      </trkpt>
      <trkpt lat="42.99241" lon="1.96089">
        <ele>404.3</ele>
        <time>2023-04-23T12:46:50.000Z</time>
      </trkpt>
      <trkpt lat="42.99238" lon="1.96095">
        <ele>404.2</ele>
        <time>2023-04-23T12:46:52.000Z</time>
      </trkpt>
      <trkpt lat="42.99236" lon="1.96102">
        <ele>404.1</ele>
        <time>2023-04-23T12:46:55.000Z</time>
      </trkpt>
      <trkpt lat="42.99233" lon="1.9611">
        <ele>403.5</ele>
        <time>2023-04-23T12:46:58.000Z</time>
      </trkpt>
      <trkpt lat="42.9923" lon="1.96115">
        <ele>403</ele>
        <time>2023-04-23T12:47:01.000Z</time>
      </trkpt>
      <trkpt lat="42.99227" lon="1.96121">
        <ele>402.3</ele>
        <time>2023-04-23T12:47:04.000Z</time>
      </trkpt>
      <trkpt lat="42.99224" lon="1.96128">
        <ele>401.6</ele>
        <time>2023-04-23T12:47:07.000Z</time>
      </trkpt>
      <trkpt lat="42.99222" lon="1.96134">
        <ele>401.1</ele>
        <time>2023-04-23T12:47:09.000Z</time>
      </trkpt>
      <trkpt lat="42.99219" lon="1.9614">
        <ele>400.4</ele>
        <time>2023-04-23T12:47:11.000Z</time>
      </trkpt>
      <trkpt lat="42.99216" lon="1.96147">
        <ele>399.8</ele>
        <time>2023-04-23T12:47:13.000Z</time>
      </trkpt>
      <trkpt lat="42.99212" lon="1.96153">
        <ele>398.9</ele>
        <time>2023-04-23T12:47:15.000Z</time>
      </trkpt>
      <trkpt lat="42.99209" lon="1.96158">
        <ele>398.5</ele>
        <time>2023-04-23T12:47:17.000Z</time>
      </trkpt>
      <trkpt lat="42.99206" lon="1.96163">
        <ele>398.5</ele>
        <time>2023-04-23T12:47:20.000Z</time>
      </trkpt>
      <trkpt lat="42.99203" lon="1.96168">
        <ele>398.4</ele>
        <time>2023-04-23T12:47:23.000Z</time>
      </trkpt>
      <trkpt lat="42.992" lon="1.96172">
        <ele>398.2</ele>
        <time>2023-04-23T12:47:26.000Z</time>
      </trkpt>
      <trkpt lat="42.99196" lon="1.96176">
        <ele>397.9</ele>
        <time>2023-04-23T12:47:36.000Z</time>
      </trkpt>
      <trkpt lat="42.9919" lon="1.9618">
        <ele>397.4</ele>
        <time>2023-04-23T12:47:38.000Z</time>
      </trkpt>
      <trkpt lat="42.99181" lon="1.96186">
        <ele>396.3</ele>
        <time>2023-04-23T12:47:39.000Z</time>
      </trkpt>
      <trkpt lat="42.99175" lon="1.96193">
        <ele>396.2</ele>
        <time>2023-04-23T12:47:40.000Z</time>
      </trkpt>
      <trkpt lat="42.9917" lon="1.96204">
        <ele>396.5</ele>
        <time>2023-04-23T12:47:41.000Z</time>
      </trkpt>
      <trkpt lat="42.99167" lon="1.96213">
        <ele>396.6</ele>
        <time>2023-04-23T12:47:42.000Z</time>
      </trkpt>
      <trkpt lat="42.99165" lon="1.9622">
        <ele>396.6</ele>
        <time>2023-04-23T12:47:43.000Z</time>
      </trkpt>
      <trkpt lat="42.99165" lon="1.9623">
        <ele>396.7</ele>
        <time>2023-04-23T12:47:45.000Z</time>
      </trkpt>
      <trkpt lat="42.99167" lon="1.96239">
        <ele>397.2</ele>
        <time>2023-04-23T12:47:47.000Z</time>
      </trkpt>
      <trkpt lat="42.99168" lon="1.96247">
        <ele>398</ele>
        <time>2023-04-23T12:47:49.000Z</time>
      </trkpt>
      <trkpt lat="42.99169" lon="1.96255">
        <ele>398.7</ele>
        <time>2023-04-23T12:47:51.000Z</time>
      </trkpt>
      <trkpt lat="42.99169" lon="1.96263">
        <ele>399.2</ele>
        <time>2023-04-23T12:47:53.000Z</time>
      </trkpt>
      <trkpt lat="42.99169" lon="1.96269">
        <ele>400</ele>
        <time>2023-04-23T12:47:55.000Z</time>
      </trkpt>
      <trkpt lat="42.9917" lon="1.96276">
        <ele>401</ele>
        <time>2023-04-23T12:47:57.000Z</time>
      </trkpt>
      <trkpt lat="42.99168" lon="1.96283">
        <ele>401.7</ele>
        <time>2023-04-23T12:47:59.000Z</time>
      </trkpt>
      <trkpt lat="42.99165" lon="1.96289">
        <ele>401.9</ele>
        <time>2023-04-23T12:48:01.000Z</time>
      </trkpt>
      <trkpt lat="42.99163" lon="1.96297">
        <ele>402.3</ele>
        <time>2023-04-23T12:48:03.000Z</time>
      </trkpt>
      <trkpt lat="42.99161" lon="1.96305">
        <ele>402.8</ele>
        <time>2023-04-23T12:48:05.000Z</time>
      </trkpt>
      <trkpt lat="42.99157" lon="1.96313">
        <ele>403.2</ele>
        <time>2023-04-23T12:48:07.000Z</time>
      </trkpt>
      <trkpt lat="42.99155" lon="1.96324">
        <ele>403.8</ele>
        <time>2023-04-23T12:48:09.000Z</time>
      </trkpt>
      <trkpt lat="42.99155" lon="1.96335">
        <ele>404.4</ele>
        <time>2023-04-23T12:48:11.000Z</time>
      </trkpt>
      <trkpt lat="42.99155" lon="1.96342">
        <ele>405</ele>
        <time>2023-04-23T12:48:13.000Z</time>
      </trkpt>
      <trkpt lat="42.99154" lon="1.96351">
        <ele>405.2</ele>
        <time>2023-04-23T12:48:16.000Z</time>
      </trkpt>
      <trkpt lat="42.99152" lon="1.96359">
        <ele>405</ele>
        <time>2023-04-23T12:48:18.000Z</time>
      </trkpt>
      <trkpt lat="42.99149" lon="1.96367">
        <ele>405</ele>
        <time>2023-04-23T12:48:20.000Z</time>
      </trkpt>
      <trkpt lat="42.99146" lon="1.96376">
        <ele>405</ele>
        <time>2023-04-23T12:48:22.000Z</time>
      </trkpt>
      <trkpt lat="42.99144" lon="1.96384">
        <ele>405.2</ele>
        <time>2023-04-23T12:48:24.000Z</time>
      </trkpt>
      <trkpt lat="42.99142" lon="1.96394">
        <ele>405.4</ele>
        <time>2023-04-23T12:48:26.000Z</time>
      </trkpt>
      <trkpt lat="42.99139" lon="1.96401">
        <ele>405.5</ele>
        <time>2023-04-23T12:48:28.000Z</time>
      </trkpt>
      <trkpt lat="42.99137" lon="1.96406">
        <ele>405.6</ele>
        <time>2023-04-23T12:48:30.000Z</time>
      </trkpt>
      <trkpt lat="42.99131" lon="1.96411">
        <ele>405.6</ele>
        <time>2023-04-23T12:48:33.000Z</time>
      </trkpt>
      <trkpt lat="42.99127" lon="1.96416">
        <ele>405.6</ele>
        <time>2023-04-23T12:48:35.000Z</time>
      </trkpt>
      <trkpt lat="42.99121" lon="1.9642">
        <ele>405.6</ele>
        <time>2023-04-23T12:48:37.000Z</time>
      </trkpt>
      <trkpt lat="42.99113" lon="1.96427">
        <ele>405.9</ele>
        <time>2023-04-23T12:48:39.000Z</time>
      </trkpt>
      <trkpt lat="42.9911" lon="1.96432">
        <ele>406.1</ele>
        <time>2023-04-23T12:48:40.000Z</time>
      </trkpt>
      <trkpt lat="42.99107" lon="1.96438">
        <ele>406.6</ele>
        <time>2023-04-23T12:48:41.000Z</time>
      </trkpt>
      <trkpt lat="42.99103" lon="1.96444">
        <ele>407.1</ele>
        <time>2023-04-23T12:48:42.000Z</time>
      </trkpt>
      <trkpt lat="42.991" lon="1.9645">
        <ele>407.4</ele>
        <time>2023-04-23T12:48:43.000Z</time>
      </trkpt>
      <trkpt lat="42.99098" lon="1.96456">
        <ele>407.8</ele>
        <time>2023-04-23T12:48:44.000Z</time>
      </trkpt>
      <trkpt lat="42.99095" lon="1.96461">
        <ele>408.4</ele>
        <time>2023-04-23T12:48:45.000Z</time>
      </trkpt>
      <trkpt lat="42.99091" lon="1.9647">
        <ele>409.3</ele>
        <time>2023-04-23T12:48:47.000Z</time>
      </trkpt>
      <trkpt lat="42.99086" lon="1.96477">
        <ele>409.9</ele>
        <time>2023-04-23T12:48:49.000Z</time>
      </trkpt>
      <trkpt lat="42.99082" lon="1.96483">
        <ele>410.4</ele>
        <time>2023-04-23T12:48:51.000Z</time>
      </trkpt>
      <trkpt lat="42.99078" lon="1.96487">
        <ele>410.7</ele>
        <time>2023-04-23T12:48:53.000Z</time>
      </trkpt>
      <trkpt lat="42.99075" lon="1.96491">
        <ele>410.6</ele>
        <time>2023-04-23T12:48:55.000Z</time>
      </trkpt>
      <trkpt lat="42.99071" lon="1.96496">
        <ele>410.5</ele>
        <time>2023-04-23T12:48:57.000Z</time>
      </trkpt>
      <trkpt lat="42.99067" lon="1.965">
        <ele>409.8</ele>
        <time>2023-04-23T12:48:59.000Z</time>
      </trkpt>
      <trkpt lat="42.99062" lon="1.96504">
        <ele>408.8</ele>
        <time>2023-04-23T12:49:01.000Z</time>
      </trkpt>
      <trkpt lat="42.99057" lon="1.96507">
        <ele>407.7</ele>
        <time>2023-04-23T12:49:03.000Z</time>
      </trkpt>
      <trkpt lat="42.99052" lon="1.96512">
        <ele>406.5</ele>
        <time>2023-04-23T12:49:05.000Z</time>
      </trkpt>
      <trkpt lat="42.99046" lon="1.96517">
        <ele>405.2</ele>
        <time>2023-04-23T12:49:07.000Z</time>
      </trkpt>
      <trkpt lat="42.9904" lon="1.96524">
        <ele>403.9</ele>
        <time>2023-04-23T12:49:09.000Z</time>
      </trkpt>
      <trkpt lat="42.99034" lon="1.96532">
        <ele>402.7</ele>
        <time>2023-04-23T12:49:11.000Z</time>
      </trkpt>
      <trkpt lat="42.9903" lon="1.96538">
        <ele>401.8</ele>
        <time>2023-04-23T12:49:12.000Z</time>
      </trkpt>
      <trkpt lat="42.99024" lon="1.96544">
        <ele>400.9</ele>
        <time>2023-04-23T12:49:13.000Z</time>
      </trkpt>
      <trkpt lat="42.99019" lon="1.96549">
        <ele>400.3</ele>
        <time>2023-04-23T12:49:14.000Z</time>
      </trkpt>
      <trkpt lat="42.99014" lon="1.96553">
        <ele>400</ele>
        <time>2023-04-23T12:49:15.000Z</time>
      </trkpt>
      <trkpt lat="42.9901" lon="1.9656">
        <ele>400.6</ele>
        <time>2023-04-23T12:49:17.000Z</time>
      </trkpt>
      <trkpt lat="42.99007" lon="1.96565">
        <ele>401.1</ele>
        <time>2023-04-23T12:49:19.000Z</time>
      </trkpt>
      <trkpt lat="42.99003" lon="1.96569">
        <ele>400.9</ele>
        <time>2023-04-23T12:49:21.000Z</time>
      </trkpt>
      <trkpt lat="42.99" lon="1.96576">
        <ele>401.7</ele>
        <time>2023-04-23T12:49:24.000Z</time>
      </trkpt>
      <trkpt lat="42.98993" lon="1.96583">
        <ele>402</ele>
        <time>2023-04-23T12:50:42.000Z</time>
      </trkpt>
      <trkpt lat="42.9899" lon="1.96588">
        <ele>402.5</ele>
        <time>2023-04-23T12:50:47.000Z</time>
      </trkpt>
      <trkpt lat="42.9898" lon="1.96589">
        <ele>402.5</ele>
        <time>2023-04-23T12:50:50.000Z</time>
      </trkpt>
      <trkpt lat="42.98975" lon="1.966">
        <ele>404.5</ele>
        <time>2023-04-23T12:50:52.000Z</time>
      </trkpt>
      <trkpt lat="42.98971" lon="1.96606">
        <ele>405.6</ele>
        <time>2023-04-23T12:50:55.000Z</time>
      </trkpt>
      <trkpt lat="42.98965" lon="1.96615">
        <ele>407</ele>
        <time>2023-04-23T12:50:57.000Z</time>
      </trkpt>
      <trkpt lat="42.98962" lon="1.96619">
        <ele>407.5</ele>
        <time>2023-04-23T12:51:01.000Z</time>
      </trkpt>
      <trkpt lat="42.9896" lon="1.96626">
        <ele>408.3</ele>
        <time>2023-04-23T12:51:04.000Z</time>
      </trkpt>
      <trkpt lat="42.98955" lon="1.9663">
        <ele>408.7</ele>
        <time>2023-04-23T12:51:09.000Z</time>
      </trkpt>
      <trkpt lat="42.98952" lon="1.96636">
        <ele>409.4</ele>
        <time>2023-04-23T12:51:13.000Z</time>
      </trkpt>
      <trkpt lat="42.98947" lon="1.9664">
        <ele>409.7</ele>
        <time>2023-04-23T12:51:19.000Z</time>
      </trkpt>
      <trkpt lat="42.98942" lon="1.96643">
        <ele>409.7</ele>
        <time>2023-04-23T12:51:24.000Z</time>
      </trkpt>
      <trkpt lat="42.98938" lon="1.96644">
        <ele>409.4</ele>
        <time>2023-04-23T12:51:28.000Z</time>
      </trkpt>
      <trkpt lat="42.98933" lon="1.96643">
        <ele>409.1</ele>
        <time>2023-04-23T12:51:32.000Z</time>
      </trkpt>
      <trkpt lat="42.98928" lon="1.96646">
        <ele>409.3</ele>
        <time>2023-04-23T12:51:39.000Z</time>
      </trkpt>
      <trkpt lat="42.98924" lon="1.96647">
        <ele>409.8</ele>
        <time>2023-04-23T12:51:44.000Z</time>
      </trkpt>
      <trkpt lat="42.9892" lon="1.96651">
        <ele>410.4</ele>
        <time>2023-04-23T12:51:54.000Z</time>
      </trkpt>
      <trkpt lat="42.98916" lon="1.96649">
        <ele>410.9</ele>
        <time>2023-04-23T12:53:38.000Z</time>
      </trkpt>
      <trkpt lat="42.9891" lon="1.96649">
        <ele>411.7</ele>
        <time>2023-04-23T12:53:41.000Z</time>
      </trkpt>
      <trkpt lat="42.98905" lon="1.96647">
        <ele>412.1</ele>
        <time>2023-04-23T12:53:45.000Z</time>
      </trkpt>
      <trkpt lat="42.989" lon="1.96645">
        <ele>412.5</ele>
        <time>2023-04-23T12:53:48.000Z</time>
      </trkpt>
      <trkpt lat="42.98894" lon="1.96644">
        <ele>412.9</ele>
        <time>2023-04-23T12:53:52.000Z</time>
      </trkpt>
      <trkpt lat="42.98889" lon="1.96642">
        <ele>413.2</ele>
        <time>2023-04-23T12:53:55.000Z</time>
      </trkpt>
      <trkpt lat="42.98884" lon="1.96639">
        <ele>413.3</ele>
        <time>2023-04-23T12:53:58.000Z</time>
      </trkpt>
      <trkpt lat="42.98879" lon="1.96637">
        <ele>413.3</ele>
        <time>2023-04-23T12:54:00.000Z</time>
      </trkpt>
      <trkpt lat="42.98873" lon="1.96635">
        <ele>412.9</ele>
        <time>2023-04-23T12:54:02.000Z</time>
      </trkpt>
      <trkpt lat="42.98868" lon="1.96633">
        <ele>412</ele>
        <time>2023-04-23T12:54:04.000Z</time>
      </trkpt>
      <trkpt lat="42.98861" lon="1.96632">
        <ele>411</ele>
        <time>2023-04-23T12:54:06.000Z</time>
      </trkpt>
      <trkpt lat="42.98856" lon="1.96629">
        <ele>409.9</ele>
        <time>2023-04-23T12:54:08.000Z</time>
      </trkpt>
      <trkpt lat="42.98849" lon="1.96628">
        <ele>408.8</ele>
        <time>2023-04-23T12:54:10.000Z</time>
      </trkpt>
      <trkpt lat="42.98841" lon="1.96627">
        <ele>409.2</ele>
        <time>2023-04-23T12:54:12.000Z</time>
      </trkpt>
      <trkpt lat="42.98834" lon="1.96624">
        <ele>409.8</ele>
        <time>2023-04-23T12:54:14.000Z</time>
      </trkpt>
      <trkpt lat="42.98827" lon="1.96621">
        <ele>410.5</ele>
        <time>2023-04-23T12:54:16.000Z</time>
      </trkpt>
      <trkpt lat="42.9882" lon="1.96618">
        <ele>410.8</ele>
        <time>2023-04-23T12:54:18.000Z</time>
      </trkpt>
      <trkpt lat="42.98815" lon="1.96613">
        <ele>410.7</ele>
        <time>2023-04-23T12:54:20.000Z</time>
      </trkpt>
      <trkpt lat="42.98811" lon="1.96607">
        <ele>410</ele>
        <time>2023-04-23T12:54:22.000Z</time>
      </trkpt>
      <trkpt lat="42.98806" lon="1.966">
        <ele>409</ele>
        <time>2023-04-23T12:54:24.000Z</time>
      </trkpt>
      <trkpt lat="42.98805" lon="1.96591">
        <ele>407.7</ele>
        <time>2023-04-23T12:54:26.000Z</time>
      </trkpt>
      <trkpt lat="42.98803" lon="1.96583">
        <ele>406.4</ele>
        <time>2023-04-23T12:54:28.000Z</time>
      </trkpt>
      <trkpt lat="42.98802" lon="1.96574">
        <ele>405</ele>
        <time>2023-04-23T12:54:30.000Z</time>
      </trkpt>
      <trkpt lat="42.988" lon="1.96564">
        <ele>403.5</ele>
        <time>2023-04-23T12:54:32.000Z</time>
      </trkpt>
      <trkpt lat="42.98798" lon="1.96554">
        <ele>402</ele>
        <time>2023-04-23T12:54:34.000Z</time>
      </trkpt>
      <trkpt lat="42.98797" lon="1.96543">
        <ele>400.4</ele>
        <time>2023-04-23T12:54:36.000Z</time>
      </trkpt>
      <trkpt lat="42.98796" lon="1.96537">
        <ele>399.7</ele>
        <time>2023-04-23T12:54:37.000Z</time>
      </trkpt>
      <trkpt lat="42.98795" lon="1.9653">
        <ele>399</ele>
        <time>2023-04-23T12:54:38.000Z</time>
      </trkpt>
      <trkpt lat="42.98791" lon="1.96521">
        <ele>397.8</ele>
        <time>2023-04-23T12:54:40.000Z</time>
      </trkpt>
      <trkpt lat="42.98785" lon="1.96518">
        <ele>396.8</ele>
        <time>2023-04-23T12:54:42.000Z</time>
      </trkpt>
      <trkpt lat="42.9878" lon="1.96518">
        <ele>396.2</ele>
        <time>2023-04-23T12:54:44.000Z</time>
      </trkpt>
      <trkpt lat="42.98774" lon="1.96517">
        <ele>395.6</ele>
        <time>2023-04-23T12:54:46.000Z</time>
      </trkpt>
      <trkpt lat="42.98769" lon="1.96517">
        <ele>395.1</ele>
        <time>2023-04-23T12:54:48.000Z</time>
      </trkpt>
      <trkpt lat="42.98763" lon="1.96516">
        <ele>394.3</ele>
        <time>2023-04-23T12:54:51.000Z</time>
      </trkpt>
      <trkpt lat="42.98757" lon="1.96515">
        <ele>394.5</ele>
        <time>2023-04-23T12:54:53.000Z</time>
      </trkpt>
      <trkpt lat="42.98752" lon="1.96515">
        <ele>394.7</ele>
        <time>2023-04-23T12:54:55.000Z</time>
      </trkpt>
      <trkpt lat="42.98746" lon="1.96516">
        <ele>395</ele>
        <time>2023-04-23T12:54:57.000Z</time>
      </trkpt>
      <trkpt lat="42.9874" lon="1.96517">
        <ele>395.5</ele>
        <time>2023-04-23T12:54:59.000Z</time>
      </trkpt>
      <trkpt lat="42.98734" lon="1.96518">
        <ele>396.6</ele>
        <time>2023-04-23T12:55:01.000Z</time>
      </trkpt>
      <trkpt lat="42.98729" lon="1.96521">
        <ele>398.5</ele>
        <time>2023-04-23T12:55:03.000Z</time>
      </trkpt>
      <trkpt lat="42.98723" lon="1.96524">
        <ele>400.6</ele>
        <time>2023-04-23T12:55:05.000Z</time>
      </trkpt>
      <trkpt lat="42.98717" lon="1.96527">
        <ele>402.7</ele>
        <time>2023-04-23T12:55:07.000Z</time>
      </trkpt>
      <trkpt lat="42.98711" lon="1.96529">
        <ele>404.6</ele>
        <time>2023-04-23T12:55:09.000Z</time>
      </trkpt>
      <trkpt lat="42.98705" lon="1.96532">
        <ele>406.5</ele>
        <time>2023-04-23T12:55:11.000Z</time>
      </trkpt>
      <trkpt lat="42.98698" lon="1.96535">
        <ele>408.6</ele>
        <time>2023-04-23T12:55:13.000Z</time>
      </trkpt>
      <trkpt lat="42.98692" lon="1.96539">
        <ele>410.3</ele>
        <time>2023-04-23T12:55:15.000Z</time>
      </trkpt>
      <trkpt lat="42.98686" lon="1.9654">
        <ele>411.8</ele>
        <time>2023-04-23T12:55:17.000Z</time>
      </trkpt>
      <trkpt lat="42.98679" lon="1.96541">
        <ele>412.7</ele>
        <time>2023-04-23T12:55:19.000Z</time>
      </trkpt>
      <trkpt lat="42.98674" lon="1.96542">
        <ele>412</ele>
        <time>2023-04-23T12:55:21.000Z</time>
      </trkpt>
      <trkpt lat="42.98669" lon="1.96542">
        <ele>411.3</ele>
        <time>2023-04-23T12:55:23.000Z</time>
      </trkpt>
      <trkpt lat="42.98663" lon="1.96543">
        <ele>410.5</ele>
        <time>2023-04-23T12:55:25.000Z</time>
      </trkpt>
      <trkpt lat="42.98657" lon="1.96544">
        <ele>409.6</ele>
        <time>2023-04-23T12:55:27.000Z</time>
      </trkpt>
      <trkpt lat="42.98648" lon="1.96546">
        <ele>408.3</ele>
        <time>2023-04-23T12:55:29.000Z</time>
      </trkpt>
      <trkpt lat="42.98639" lon="1.96548">
        <ele>407</ele>
        <time>2023-04-23T12:55:31.000Z</time>
      </trkpt>
      <trkpt lat="42.98635" lon="1.9655">
        <ele>406.4</ele>
        <time>2023-04-23T12:55:32.000Z</time>
      </trkpt>
      <trkpt lat="42.9863" lon="1.96552">
        <ele>405.8</ele>
        <time>2023-04-23T12:55:33.000Z</time>
      </trkpt>
      <trkpt lat="42.98624" lon="1.96553">
        <ele>405.2</ele>
        <time>2023-04-23T12:55:34.000Z</time>
      </trkpt>
      <trkpt lat="42.98619" lon="1.96555">
        <ele>405.1</ele>
        <time>2023-04-23T12:55:35.000Z</time>
      </trkpt>
      <trkpt lat="42.98613" lon="1.96557">
        <ele>405.1</ele>
        <time>2023-04-23T12:55:36.000Z</time>
      </trkpt>
      <trkpt lat="42.98608" lon="1.96558">
        <ele>405.1</ele>
        <time>2023-04-23T12:55:37.000Z</time>
      </trkpt>
      <trkpt lat="42.98603" lon="1.9656">
        <ele>405.1</ele>
        <time>2023-04-23T12:55:38.000Z</time>
      </trkpt>
      <trkpt lat="42.98597" lon="1.96561">
        <ele>405.2</ele>
        <time>2023-04-23T12:55:39.000Z</time>
      </trkpt>
      <trkpt lat="42.98592" lon="1.96563">
        <ele>405.6</ele>
        <time>2023-04-23T12:55:40.000Z</time>
      </trkpt>
      <trkpt lat="42.98587" lon="1.96564">
        <ele>406</ele>
        <time>2023-04-23T12:55:41.000Z</time>
      </trkpt>
      <trkpt lat="42.98582" lon="1.96566">
        <ele>406.6</ele>
        <time>2023-04-23T12:55:42.000Z</time>
      </trkpt>
      <trkpt lat="42.98578" lon="1.96568">
        <ele>407.2</ele>
        <time>2023-04-23T12:55:43.000Z</time>
      </trkpt>
      <trkpt lat="42.98572" lon="1.9657">
        <ele>408.1</ele>
        <time>2023-04-23T12:55:45.000Z</time>
      </trkpt>
      <trkpt lat="42.98565" lon="1.96573">
        <ele>408.6</ele>
        <time>2023-04-23T12:55:47.000Z</time>
      </trkpt>
      <trkpt lat="42.98558" lon="1.96576">
        <ele>408.8</ele>
        <time>2023-04-23T12:55:49.000Z</time>
      </trkpt>
      <trkpt lat="42.98552" lon="1.96577">
        <ele>408.5</ele>
        <time>2023-04-23T12:55:51.000Z</time>
      </trkpt>
      <trkpt lat="42.98547" lon="1.96579">
        <ele>408.6</ele>
        <time>2023-04-23T12:55:53.000Z</time>
      </trkpt>
      <trkpt lat="42.98541" lon="1.96581">
        <ele>408.4</ele>
        <time>2023-04-23T12:55:55.000Z</time>
      </trkpt>
      <trkpt lat="42.98534" lon="1.96582">
        <ele>408.4</ele>
        <time>2023-04-23T12:55:57.000Z</time>
      </trkpt>
      <trkpt lat="42.98527" lon="1.96582">
        <ele>408.3</ele>
        <time>2023-04-23T12:55:59.000Z</time>
      </trkpt>
      <trkpt lat="42.98521" lon="1.96582">
        <ele>408</ele>
        <time>2023-04-23T12:56:01.000Z</time>
      </trkpt>
      <trkpt lat="42.98514" lon="1.96582">
        <ele>407.8</ele>
        <time>2023-04-23T12:56:03.000Z</time>
      </trkpt>
      <trkpt lat="42.98507" lon="1.96581">
        <ele>408.7</ele>
        <time>2023-04-23T12:56:05.000Z</time>
      </trkpt>
      <trkpt lat="42.985" lon="1.96579">
        <ele>409.4</ele>
        <time>2023-04-23T12:56:07.000Z</time>
      </trkpt>
      <trkpt lat="42.98495" lon="1.96578">
        <ele>410</ele>
        <time>2023-04-23T12:56:09.000Z</time>
      </trkpt>
      <trkpt lat="42.9849" lon="1.96578">
        <ele>410.7</ele>
        <time>2023-04-23T12:56:11.000Z</time>
      </trkpt>
      <trkpt lat="42.98484" lon="1.96577">
        <ele>411.4</ele>
        <time>2023-04-23T12:56:13.000Z</time>
      </trkpt>
      <trkpt lat="42.98478" lon="1.96576">
        <ele>412.6</ele>
        <time>2023-04-23T12:56:15.000Z</time>
      </trkpt>
      <trkpt lat="42.98473" lon="1.96575">
        <ele>413.3</ele>
        <time>2023-04-23T12:56:17.000Z</time>
      </trkpt>
      <trkpt lat="42.98468" lon="1.96573">
        <ele>414.1</ele>
        <time>2023-04-23T12:56:19.000Z</time>
      </trkpt>
      <trkpt lat="42.98462" lon="1.96572">
        <ele>415.3</ele>
        <time>2023-04-23T12:56:22.000Z</time>
      </trkpt>
      <trkpt lat="42.98456" lon="1.9657">
        <ele>416</ele>
        <time>2023-04-23T12:56:25.000Z</time>
      </trkpt>
      <trkpt lat="42.98451" lon="1.9657">
        <ele>416</ele>
        <time>2023-04-23T12:56:27.000Z</time>
      </trkpt>
      <trkpt lat="42.98447" lon="1.96569">
        <ele>416</ele>
        <time>2023-04-23T12:56:29.000Z</time>
      </trkpt>
      <trkpt lat="42.98442" lon="1.96569">
        <ele>416</ele>
        <time>2023-04-23T12:56:31.000Z</time>
      </trkpt>
      <trkpt lat="42.98436" lon="1.96569">
        <ele>415.9</ele>
        <time>2023-04-23T12:56:34.000Z</time>
      </trkpt>
      <trkpt lat="42.9843" lon="1.96569">
        <ele>416</ele>
        <time>2023-04-23T12:56:37.000Z</time>
      </trkpt>
      <trkpt lat="42.98426" lon="1.96572">
        <ele>415.8</ele>
        <time>2023-04-23T12:56:40.000Z</time>
      </trkpt>
      <trkpt lat="42.9842" lon="1.96574">
        <ele>415.6</ele>
        <time>2023-04-23T12:56:43.000Z</time>
      </trkpt>
      <trkpt lat="42.98416" lon="1.96576">
        <ele>415.5</ele>
        <time>2023-04-23T12:56:47.000Z</time>
      </trkpt>
      <trkpt lat="42.98411" lon="1.96579">
        <ele>415.3</ele>
        <time>2023-04-23T12:56:54.000Z</time>
      </trkpt>
      <trkpt lat="42.98407" lon="1.96581">
        <ele>415.1</ele>
        <time>2023-04-23T12:56:59.000Z</time>
      </trkpt>
      <trkpt lat="42.98402" lon="1.96582">
        <ele>414.9</ele>
        <time>2023-04-23T12:57:03.000Z</time>
      </trkpt>
      <trkpt lat="42.98397" lon="1.96584">
        <ele>414.2</ele>
        <time>2023-04-23T12:57:08.000Z</time>
      </trkpt>
      <trkpt lat="42.98393" lon="1.96587">
        <ele>413.7</ele>
        <time>2023-04-23T12:57:13.000Z</time>
      </trkpt>
      <trkpt lat="42.98388" lon="1.96591">
        <ele>413.1</ele>
        <time>2023-04-23T12:57:16.000Z</time>
      </trkpt>
      <trkpt lat="42.98382" lon="1.96594">
        <ele>412.5</ele>
        <time>2023-04-23T12:57:19.000Z</time>
      </trkpt>
      <trkpt lat="42.98377" lon="1.96598">
        <ele>412.3</ele>
        <time>2023-04-23T12:57:21.000Z</time>
      </trkpt>
      <trkpt lat="42.98371" lon="1.96604">
        <ele>411.3</ele>
        <time>2023-04-23T12:57:24.000Z</time>
      </trkpt>
      <trkpt lat="42.98366" lon="1.96609">
        <ele>410.3</ele>
        <time>2023-04-23T12:57:26.000Z</time>
      </trkpt>
      <trkpt lat="42.98358" lon="1.96616">
        <ele>409.4</ele>
        <time>2023-04-23T12:57:28.000Z</time>
      </trkpt>
      <trkpt lat="42.98353" lon="1.9662">
        <ele>409</ele>
        <time>2023-04-23T12:57:29.000Z</time>
      </trkpt>
      <trkpt lat="42.98348" lon="1.96624">
        <ele>408.9</ele>
        <time>2023-04-23T12:57:30.000Z</time>
      </trkpt>
      <trkpt lat="42.98344" lon="1.96628">
        <ele>408.8</ele>
        <time>2023-04-23T12:57:31.000Z</time>
      </trkpt>
      <trkpt lat="42.98339" lon="1.96631">
        <ele>408.8</ele>
        <time>2023-04-23T12:57:32.000Z</time>
      </trkpt>
      <trkpt lat="42.98335" lon="1.96635">
        <ele>408.7</ele>
        <time>2023-04-23T12:57:33.000Z</time>
      </trkpt>
      <trkpt lat="42.9833" lon="1.96638">
        <ele>408.6</ele>
        <time>2023-04-23T12:57:34.000Z</time>
      </trkpt>
      <trkpt lat="42.98326" lon="1.96642">
        <ele>408.6</ele>
        <time>2023-04-23T12:57:35.000Z</time>
      </trkpt>
      <trkpt lat="42.98321" lon="1.96645">
        <ele>408.6</ele>
        <time>2023-04-23T12:57:36.000Z</time>
      </trkpt>
      <trkpt lat="42.98316" lon="1.96649">
        <ele>408.9</ele>
        <time>2023-04-23T12:57:37.000Z</time>
      </trkpt>
      <trkpt lat="42.98312" lon="1.96652">
        <ele>409.4</ele>
        <time>2023-04-23T12:57:38.000Z</time>
      </trkpt>
      <trkpt lat="42.98308" lon="1.96656">
        <ele>409.6</ele>
        <time>2023-04-23T12:57:39.000Z</time>
      </trkpt>
      <trkpt lat="42.98304" lon="1.96659">
        <ele>409.7</ele>
        <time>2023-04-23T12:57:40.000Z</time>
      </trkpt>
      <trkpt lat="42.98298" lon="1.96665">
        <ele>409.9</ele>
        <time>2023-04-23T12:57:42.000Z</time>
      </trkpt>
      <trkpt lat="42.98292" lon="1.96671">
        <ele>410</ele>
        <time>2023-04-23T12:57:44.000Z</time>
      </trkpt>
      <trkpt lat="42.98288" lon="1.96676">
        <ele>410.6</ele>
        <time>2023-04-23T12:57:46.000Z</time>
      </trkpt>
      <trkpt lat="42.98281" lon="1.96681">
        <ele>411</ele>
        <time>2023-04-23T12:57:48.000Z</time>
      </trkpt>
      <trkpt lat="42.98275" lon="1.96687">
        <ele>411.4</ele>
        <time>2023-04-23T12:57:50.000Z</time>
      </trkpt>
      <trkpt lat="42.98271" lon="1.96692">
        <ele>411.7</ele>
        <time>2023-04-23T12:57:52.000Z</time>
      </trkpt>
      <trkpt lat="42.98267" lon="1.96698">
        <ele>412.2</ele>
        <time>2023-04-23T12:57:54.000Z</time>
      </trkpt>
      <trkpt lat="42.98263" lon="1.96704">
        <ele>412.7</ele>
        <time>2023-04-23T12:57:56.000Z</time>
      </trkpt>
      <trkpt lat="42.98259" lon="1.96708">
        <ele>413.5</ele>
        <time>2023-04-23T12:57:58.000Z</time>
      </trkpt>
      <trkpt lat="42.98256" lon="1.96713">
        <ele>413.7</ele>
        <time>2023-04-23T12:58:00.000Z</time>
      </trkpt>
      <trkpt lat="42.98252" lon="1.96718">
        <ele>414.2</ele>
        <time>2023-04-23T12:58:02.000Z</time>
      </trkpt>
      <trkpt lat="42.98247" lon="1.96723">
        <ele>415.1</ele>
        <time>2023-04-23T12:58:05.000Z</time>
      </trkpt>
      <trkpt lat="42.98242" lon="1.96729">
        <ele>416.2</ele>
        <time>2023-04-23T12:58:08.000Z</time>
      </trkpt>
      <trkpt lat="42.98237" lon="1.96735">
        <ele>417.6</ele>
        <time>2023-04-23T12:58:11.000Z</time>
      </trkpt>
      <trkpt lat="42.98232" lon="1.9674">
        <ele>418.4</ele>
        <time>2023-04-23T12:58:14.000Z</time>
      </trkpt>
      <trkpt lat="42.98228" lon="1.96745">
        <ele>418.8</ele>
        <time>2023-04-23T12:58:17.000Z</time>
      </trkpt>
      <trkpt lat="42.98225" lon="1.96749">
        <ele>419.3</ele>
        <time>2023-04-23T12:58:19.000Z</time>
      </trkpt>
      <trkpt lat="42.98221" lon="1.96754">
        <ele>419.9</ele>
        <time>2023-04-23T12:58:21.000Z</time>
      </trkpt>
      <trkpt lat="42.98217" lon="1.96757">
        <ele>420.7</ele>
        <time>2023-04-23T12:58:23.000Z</time>
      </trkpt>
      <trkpt lat="42.98213" lon="1.96761">
        <ele>421.8</ele>
        <time>2023-04-23T12:58:26.000Z</time>
      </trkpt>
      <trkpt lat="42.98208" lon="1.96766">
        <ele>422.7</ele>
        <time>2023-04-23T12:58:29.000Z</time>
      </trkpt>
      <trkpt lat="42.98203" lon="1.9677">
        <ele>422</ele>
        <time>2023-04-23T12:58:32.000Z</time>
      </trkpt>
      <trkpt lat="42.98199" lon="1.96775">
        <ele>421.2</ele>
        <time>2023-04-23T12:58:35.000Z</time>
      </trkpt>
      <trkpt lat="42.98195" lon="1.96779">
        <ele>420.6</ele>
        <time>2023-04-23T12:58:38.000Z</time>
      </trkpt>
      <trkpt lat="42.98191" lon="1.96784">
        <ele>419.9</ele>
        <time>2023-04-23T12:58:41.000Z</time>
      </trkpt>
      <trkpt lat="42.98187" lon="1.96789">
        <ele>419.4</ele>
        <time>2023-04-23T12:58:44.000Z</time>
      </trkpt>
      <trkpt lat="42.98183" lon="1.96793">
        <ele>419.1</ele>
        <time>2023-04-23T12:58:47.000Z</time>
      </trkpt>
      <trkpt lat="42.9818" lon="1.96801">
        <ele>419.3</ele>
        <time>2023-04-23T12:58:51.000Z</time>
      </trkpt>
      <trkpt lat="42.98177" lon="1.96806">
        <ele>419.4</ele>
        <time>2023-04-23T12:58:56.000Z</time>
      </trkpt>
      <trkpt lat="42.98172" lon="1.96809">
        <ele>419.3</ele>
        <time>2023-04-23T12:59:00.000Z</time>
      </trkpt>
      <trkpt lat="42.98168" lon="1.96811">
        <ele>419.2</ele>
        <time>2023-04-23T12:59:03.000Z</time>
      </trkpt>
      <trkpt lat="42.98161" lon="1.96813">
        <ele>419.1</ele>
        <time>2023-04-23T12:59:06.000Z</time>
      </trkpt>
      <trkpt lat="42.98156" lon="1.96814">
        <ele>418.9</ele>
        <time>2023-04-23T12:59:08.000Z</time>
      </trkpt>
      <trkpt lat="42.98151" lon="1.96817">
        <ele>418.5</ele>
        <time>2023-04-23T12:59:10.000Z</time>
      </trkpt>
      <trkpt lat="42.98143" lon="1.96819">
        <ele>417.2</ele>
        <time>2023-04-23T12:59:12.000Z</time>
      </trkpt>
      <trkpt lat="42.98134" lon="1.96823">
        <ele>415.7</ele>
        <time>2023-04-23T12:59:14.000Z</time>
      </trkpt>
      <trkpt lat="42.98129" lon="1.96824">
        <ele>415</ele>
        <time>2023-04-23T12:59:15.000Z</time>
      </trkpt>
      <trkpt lat="42.98124" lon="1.96826">
        <ele>414.4</ele>
        <time>2023-04-23T12:59:16.000Z</time>
      </trkpt>
      <trkpt lat="42.98119" lon="1.96828">
        <ele>414</ele>
        <time>2023-04-23T12:59:17.000Z</time>
      </trkpt>
      <trkpt lat="42.98114" lon="1.9683">
        <ele>413.6</ele>
        <time>2023-04-23T12:59:18.000Z</time>
      </trkpt>
      <trkpt lat="42.98109" lon="1.96832">
        <ele>413.4</ele>
        <time>2023-04-23T12:59:19.000Z</time>
      </trkpt>
      <trkpt lat="42.98103" lon="1.96838">
        <ele>413.4</ele>
        <time>2023-04-23T12:59:21.000Z</time>
      </trkpt>
      <trkpt lat="42.98097" lon="1.96844">
        <ele>413.6</ele>
        <time>2023-04-23T12:59:23.000Z</time>
      </trkpt>
      <trkpt lat="42.98092" lon="1.9685">
        <ele>413.1</ele>
        <time>2023-04-23T12:59:25.000Z</time>
      </trkpt>
      <trkpt lat="42.98086" lon="1.96856">
        <ele>412.7</ele>
        <time>2023-04-23T12:59:27.000Z</time>
      </trkpt>
      <trkpt lat="42.98081" lon="1.96864">
        <ele>412.8</ele>
        <time>2023-04-23T12:59:29.000Z</time>
      </trkpt>
      <trkpt lat="42.98076" lon="1.96872">
        <ele>413.1</ele>
        <time>2023-04-23T12:59:31.000Z</time>
      </trkpt>
      <trkpt lat="42.9807" lon="1.9688">
        <ele>413.5</ele>
        <time>2023-04-23T12:59:33.000Z</time>
      </trkpt>
      <trkpt lat="42.98063" lon="1.96888">
        <ele>412.9</ele>
        <time>2023-04-23T12:59:35.000Z</time>
      </trkpt>
      <trkpt lat="42.9806" lon="1.96893">
        <ele>412.7</ele>
        <time>2023-04-23T12:59:36.000Z</time>
      </trkpt>
      <trkpt lat="42.98054" lon="1.96902">
        <ele>412.6</ele>
        <time>2023-04-23T12:59:38.000Z</time>
      </trkpt>
      <trkpt lat="42.98048" lon="1.96911">
        <ele>411.5</ele>
        <time>2023-04-23T12:59:40.000Z</time>
      </trkpt>
      <trkpt lat="42.98042" lon="1.9692">
        <ele>410.7</ele>
        <time>2023-04-23T12:59:42.000Z</time>
      </trkpt>
      <trkpt lat="42.98036" lon="1.96929">
        <ele>409.4</ele>
        <time>2023-04-23T12:59:44.000Z</time>
      </trkpt>
      <trkpt lat="42.98031" lon="1.96936">
        <ele>408.2</ele>
        <time>2023-04-23T12:59:46.000Z</time>
      </trkpt>
      <trkpt lat="42.98024" lon="1.96944">
        <ele>406.9</ele>
        <time>2023-04-23T12:59:48.000Z</time>
      </trkpt>
      <trkpt lat="42.9802" lon="1.96947">
        <ele>406.1</ele>
        <time>2023-04-23T12:59:49.000Z</time>
      </trkpt>
      <trkpt lat="42.98015" lon="1.9695">
        <ele>405.2</ele>
        <time>2023-04-23T12:59:50.000Z</time>
      </trkpt>
      <trkpt lat="42.98009" lon="1.96952">
        <ele>404.8</ele>
        <time>2023-04-23T12:59:51.000Z</time>
      </trkpt>
      <trkpt lat="42.98004" lon="1.96954">
        <ele>404.5</ele>
        <time>2023-04-23T12:59:52.000Z</time>
      </trkpt>
      <trkpt lat="42.97997" lon="1.96955">
        <ele>403.9</ele>
        <time>2023-04-23T12:59:53.000Z</time>
      </trkpt>
      <trkpt lat="42.97991" lon="1.96956">
        <ele>403.3</ele>
        <time>2023-04-23T12:59:54.000Z</time>
      </trkpt>
      <trkpt lat="42.97984" lon="1.96955">
        <ele>402.7</ele>
        <time>2023-04-23T12:59:55.000Z</time>
      </trkpt>
      <trkpt lat="42.97978" lon="1.96954">
        <ele>402.4</ele>
        <time>2023-04-23T12:59:56.000Z</time>
      </trkpt>
      <trkpt lat="42.97972" lon="1.96952">
        <ele>402.2</ele>
        <time>2023-04-23T12:59:57.000Z</time>
      </trkpt>
      <trkpt lat="42.97965" lon="1.9695">
        <ele>401.9</ele>
        <time>2023-04-23T12:59:58.000Z</time>
      </trkpt>
      <trkpt lat="42.97959" lon="1.96948">
        <ele>401.6</ele>
        <time>2023-04-23T12:59:59.000Z</time>
      </trkpt>
      <trkpt lat="42.97951" lon="1.96946">
        <ele>401.8</ele>
        <time>2023-04-23T13:00:00.000Z</time>
      </trkpt>
      <trkpt lat="42.97944" lon="1.96944">
        <ele>402</ele>
        <time>2023-04-23T13:00:01.000Z</time>
      </trkpt>
      <trkpt lat="42.97937" lon="1.96943">
        <ele>402.2</ele>
        <time>2023-04-23T13:00:02.000Z</time>
      </trkpt>
      <trkpt lat="42.9793" lon="1.96942">
        <ele>402.4</ele>
        <time>2023-04-23T13:00:03.000Z</time>
      </trkpt>
      <trkpt lat="42.97924" lon="1.96943">
        <ele>402.6</ele>
        <time>2023-04-23T13:00:04.000Z</time>
      </trkpt>
      <trkpt lat="42.97918" lon="1.96945">
        <ele>402.7</ele>
        <time>2023-04-23T13:00:05.000Z</time>
      </trkpt>
      <trkpt lat="42.97913" lon="1.96949">
        <ele>402.9</ele>
        <time>2023-04-23T13:00:06.000Z</time>
      </trkpt>
      <trkpt lat="42.97908" lon="1.96955">
        <ele>403</ele>
        <time>2023-04-23T13:00:07.000Z</time>
      </trkpt>
      <trkpt lat="42.97903" lon="1.96959">
        <ele>403</ele>
        <time>2023-04-23T13:00:08.000Z</time>
      </trkpt>
      <trkpt lat="42.97899" lon="1.96964">
        <ele>402.4</ele>
        <time>2023-04-23T13:00:09.000Z</time>
      </trkpt>
      <trkpt lat="42.97895" lon="1.96969">
        <ele>401.8</ele>
        <time>2023-04-23T13:00:10.000Z</time>
      </trkpt>
      <trkpt lat="42.97892" lon="1.96974">
        <ele>401.2</ele>
        <time>2023-04-23T13:00:11.000Z</time>
      </trkpt>
      <trkpt lat="42.97888" lon="1.96979">
        <ele>400.5</ele>
        <time>2023-04-23T13:00:12.000Z</time>
      </trkpt>
      <trkpt lat="42.97886" lon="1.96985">
        <ele>399.9</ele>
        <time>2023-04-23T13:00:13.000Z</time>
      </trkpt>
      <trkpt lat="42.97883" lon="1.9699">
        <ele>399.3</ele>
        <time>2023-04-23T13:00:14.000Z</time>
      </trkpt>
      <trkpt lat="42.9788" lon="1.96996">
        <ele>398.6</ele>
        <time>2023-04-23T13:00:15.000Z</time>
      </trkpt>
      <trkpt lat="42.97878" lon="1.97002">
        <ele>398.1</ele>
        <time>2023-04-23T13:00:16.000Z</time>
      </trkpt>
      <trkpt lat="42.97877" lon="1.97008">
        <ele>397.6</ele>
        <time>2023-04-23T13:00:17.000Z</time>
      </trkpt>
      <trkpt lat="42.97876" lon="1.97014">
        <ele>397.2</ele>
        <time>2023-04-23T13:00:18.000Z</time>
      </trkpt>
      <trkpt lat="42.97875" lon="1.97021">
        <ele>396.8</ele>
        <time>2023-04-23T13:00:19.000Z</time>
      </trkpt>
      <trkpt lat="42.97875" lon="1.97027">
        <ele>396.5</ele>
        <time>2023-04-23T13:00:20.000Z</time>
      </trkpt>
      <trkpt lat="42.97875" lon="1.97033">
        <ele>396.3</ele>
        <time>2023-04-23T13:00:21.000Z</time>
      </trkpt>
      <trkpt lat="42.97875" lon="1.9704">
        <ele>396.2</ele>
        <time>2023-04-23T13:00:22.000Z</time>
      </trkpt>
      <trkpt lat="42.97875" lon="1.97051">
        <ele>397</ele>
        <time>2023-04-23T13:00:24.000Z</time>
      </trkpt>
      <trkpt lat="42.97875" lon="1.97057">
        <ele>397.7</ele>
        <time>2023-04-23T13:00:25.000Z</time>
      </trkpt>
      <trkpt lat="42.97875" lon="1.97063">
        <ele>398.3</ele>
        <time>2023-04-23T13:00:26.000Z</time>
      </trkpt>
      <trkpt lat="42.97875" lon="1.9707">
        <ele>398.9</ele>
        <time>2023-04-23T13:00:27.000Z</time>
      </trkpt>
      <trkpt lat="42.97874" lon="1.97076">
        <ele>399.4</ele>
        <time>2023-04-23T13:00:28.000Z</time>
      </trkpt>
      <trkpt lat="42.97873" lon="1.97082">
        <ele>399.9</ele>
        <time>2023-04-23T13:00:29.000Z</time>
      </trkpt>
      <trkpt lat="42.97869" lon="1.97092">
        <ele>400.6</ele>
        <time>2023-04-23T13:00:31.000Z</time>
      </trkpt>
      <trkpt lat="42.97867" lon="1.97098">
        <ele>400.9</ele>
        <time>2023-04-23T13:00:32.000Z</time>
      </trkpt>
      <trkpt lat="42.97865" lon="1.97103">
        <ele>401.2</ele>
        <time>2023-04-23T13:00:33.000Z</time>
      </trkpt>
      <trkpt lat="42.9786" lon="1.97112">
        <ele>401.7</ele>
        <time>2023-04-23T13:00:35.000Z</time>
      </trkpt>
      <trkpt lat="42.97855" lon="1.97119">
        <ele>402.4</ele>
        <time>2023-04-23T13:00:37.000Z</time>
      </trkpt>
      <trkpt lat="42.97848" lon="1.97125">
        <ele>402.9</ele>
        <time>2023-04-23T13:00:39.000Z</time>
      </trkpt>
      <trkpt lat="42.9784" lon="1.97129">
        <ele>403.6</ele>
        <time>2023-04-23T13:00:41.000Z</time>
      </trkpt>
      <trkpt lat="42.97832" lon="1.97131">
        <ele>403.9</ele>
        <time>2023-04-23T13:00:43.000Z</time>
      </trkpt>
      <trkpt lat="42.97827" lon="1.97132">
        <ele>403.9</ele>
        <time>2023-04-23T13:00:44.000Z</time>
      </trkpt>
      <trkpt lat="42.97818" lon="1.97131">
        <ele>404.1</ele>
        <time>2023-04-23T13:00:46.000Z</time>
      </trkpt>
      <trkpt lat="42.9781" lon="1.9713">
        <ele>404.5</ele>
        <time>2023-04-23T13:00:48.000Z</time>
      </trkpt>
      <trkpt lat="42.97801" lon="1.97128">
        <ele>404.8</ele>
        <time>2023-04-23T13:00:50.000Z</time>
      </trkpt>
      <trkpt lat="42.97797" lon="1.97127">
        <ele>404.9</ele>
        <time>2023-04-23T13:00:51.000Z</time>
      </trkpt>
      <trkpt lat="42.97788" lon="1.97127">
        <ele>405.1</ele>
        <time>2023-04-23T13:00:53.000Z</time>
      </trkpt>
      <trkpt lat="42.9778" lon="1.97128">
        <ele>405.2</ele>
        <time>2023-04-23T13:00:55.000Z</time>
      </trkpt>
      <trkpt lat="42.97771" lon="1.9713">
        <ele>405.2</ele>
        <time>2023-04-23T13:00:57.000Z</time>
      </trkpt>
      <trkpt lat="42.97763" lon="1.97131">
        <ele>405.2</ele>
        <time>2023-04-23T13:00:59.000Z</time>
      </trkpt>
      <trkpt lat="42.97755" lon="1.97133">
        <ele>405.1</ele>
        <time>2023-04-23T13:01:01.000Z</time>
      </trkpt>
      <trkpt lat="42.97748" lon="1.97133">
        <ele>405</ele>
        <time>2023-04-23T13:01:03.000Z</time>
      </trkpt>
      <trkpt lat="42.97741" lon="1.97133">
        <ele>404.8</ele>
        <time>2023-04-23T13:01:05.000Z</time>
      </trkpt>
      <trkpt lat="42.97734" lon="1.97133">
        <ele>404.2</ele>
        <time>2023-04-23T13:01:07.000Z</time>
      </trkpt>
      <trkpt lat="42.97727" lon="1.97133">
        <ele>402.2</ele>
        <time>2023-04-23T13:01:09.000Z</time>
      </trkpt>
      <trkpt lat="42.97719" lon="1.97133">
        <ele>400.1</ele>
        <time>2023-04-23T13:01:11.000Z</time>
      </trkpt>
      <trkpt lat="42.97711" lon="1.97133">
        <ele>398</ele>
        <time>2023-04-23T13:01:13.000Z</time>
      </trkpt>
      <trkpt lat="42.97703" lon="1.97133">
        <ele>397.4</ele>
        <time>2023-04-23T13:01:15.000Z</time>
      </trkpt>
      <trkpt lat="42.97696" lon="1.97133">
        <ele>397.6</ele>
        <time>2023-04-23T13:01:17.000Z</time>
      </trkpt>
      <trkpt lat="42.97689" lon="1.97134">
        <ele>397.8</ele>
        <time>2023-04-23T13:01:19.000Z</time>
      </trkpt>
      <trkpt lat="42.97682" lon="1.97136">
        <ele>398</ele>
        <time>2023-04-23T13:01:21.000Z</time>
      </trkpt>
      <trkpt lat="42.97676" lon="1.97137">
        <ele>398.6</ele>
        <time>2023-04-23T13:01:23.000Z</time>
      </trkpt>
      <trkpt lat="42.97671" lon="1.9714">
        <ele>399.4</ele>
        <time>2023-04-23T13:01:25.000Z</time>
      </trkpt>
      <trkpt lat="42.97666" lon="1.97138">
        <ele>400.1</ele>
        <time>2023-04-23T13:01:27.000Z</time>
      </trkpt>
      <trkpt lat="42.97664" lon="1.97132">
        <ele>400.7</ele>
        <time>2023-04-23T13:01:29.000Z</time>
      </trkpt>
      <trkpt lat="42.97663" lon="1.97124">
        <ele>401.1</ele>
        <time>2023-04-23T13:01:31.000Z</time>
      </trkpt>
      <trkpt lat="42.97662" lon="1.97116">
        <ele>400.4</ele>
        <time>2023-04-23T13:01:33.000Z</time>
      </trkpt>
      <trkpt lat="42.97664" lon="1.97108">
        <ele>399.5</ele>
        <time>2023-04-23T13:01:36.000Z</time>
      </trkpt>
      <trkpt lat="42.97659" lon="1.97105">
        <ele>399.9</ele>
        <time>2023-04-23T13:02:39.000Z</time>
      </trkpt>
      <trkpt lat="42.97654" lon="1.97102">
        <ele>400.4</ele>
        <time>2023-04-23T13:02:44.000Z</time>
      </trkpt>
      <trkpt lat="42.97649" lon="1.97103">
        <ele>400.7</ele>
        <time>2023-04-23T13:02:47.000Z</time>
      </trkpt>
      <trkpt lat="42.97643" lon="1.97102">
        <ele>400.8</ele>
        <time>2023-04-23T13:02:49.000Z</time>
      </trkpt>
      <trkpt lat="42.97636" lon="1.97104">
        <ele>401.1</ele>
        <time>2023-04-23T13:02:51.000Z</time>
      </trkpt>
      <trkpt lat="42.97629" lon="1.97106">
        <ele>401.5</ele>
        <time>2023-04-23T13:02:53.000Z</time>
      </trkpt>
      <trkpt lat="42.97622" lon="1.97106">
        <ele>401.6</ele>
        <time>2023-04-23T13:02:55.000Z</time>
      </trkpt>
      <trkpt lat="42.97614" lon="1.97104">
        <ele>401.4</ele>
        <time>2023-04-23T13:02:57.000Z</time>
      </trkpt>
      <trkpt lat="42.97607" lon="1.97105">
        <ele>401.4</ele>
        <time>2023-04-23T13:02:59.000Z</time>
      </trkpt>
      <trkpt lat="42.97601" lon="1.97108">
        <ele>401.5</ele>
        <time>2023-04-23T13:03:01.000Z</time>
      </trkpt>
      <trkpt lat="42.97594" lon="1.97113">
        <ele>401.5</ele>
        <time>2023-04-23T13:03:03.000Z</time>
      </trkpt>
      <trkpt lat="42.97589" lon="1.97119">
        <ele>401.3</ele>
        <time>2023-04-23T13:03:05.000Z</time>
      </trkpt>
      <trkpt lat="42.97583" lon="1.97121">
        <ele>401</ele>
        <time>2023-04-23T13:03:07.000Z</time>
      </trkpt>
      <trkpt lat="42.97577" lon="1.97117">
        <ele>400.7</ele>
        <time>2023-04-23T13:03:09.000Z</time>
      </trkpt>
      <trkpt lat="42.9757" lon="1.97114">
        <ele>400.4</ele>
        <time>2023-04-23T13:03:11.000Z</time>
      </trkpt>
      <trkpt lat="42.97563" lon="1.9711">
        <ele>399</ele>
        <time>2023-04-23T13:03:13.000Z</time>
      </trkpt>
      <trkpt lat="42.97556" lon="1.97106">
        <ele>397.2</ele>
        <time>2023-04-23T13:03:15.000Z</time>
      </trkpt>
      <trkpt lat="42.97549" lon="1.97102">
        <ele>395.3</ele>
        <time>2023-04-23T13:03:17.000Z</time>
      </trkpt>
      <trkpt lat="42.97542" lon="1.97097">
        <ele>393.1</ele>
        <time>2023-04-23T13:03:19.000Z</time>
      </trkpt>
      <trkpt lat="42.97536" lon="1.97093">
        <ele>393.8</ele>
        <time>2023-04-23T13:03:21.000Z</time>
      </trkpt>
      <trkpt lat="42.9753" lon="1.97089">
        <ele>394.7</ele>
        <time>2023-04-23T13:03:23.000Z</time>
      </trkpt>
      <trkpt lat="42.97524" lon="1.97085">
        <ele>395.7</ele>
        <time>2023-04-23T13:03:25.000Z</time>
      </trkpt>
      <trkpt lat="42.97517" lon="1.9708">
        <ele>396.9</ele>
        <time>2023-04-23T13:03:27.000Z</time>
      </trkpt>
      <trkpt lat="42.9751" lon="1.97076">
        <ele>397.9</ele>
        <time>2023-04-23T13:03:29.000Z</time>
      </trkpt>
      <trkpt lat="42.97504" lon="1.97071">
        <ele>398.7</ele>
        <time>2023-04-23T13:03:31.000Z</time>
      </trkpt>
      <trkpt lat="42.97497" lon="1.97066">
        <ele>399.1</ele>
        <time>2023-04-23T13:03:33.000Z</time>
      </trkpt>
      <trkpt lat="42.9749" lon="1.97061">
        <ele>399.4</ele>
        <time>2023-04-23T13:03:35.000Z</time>
      </trkpt>
      <trkpt lat="42.97482" lon="1.97055">
        <ele>399.5</ele>
        <time>2023-04-23T13:03:37.000Z</time>
      </trkpt>
      <trkpt lat="42.97478" lon="1.97052">
        <ele>399.4</ele>
        <time>2023-04-23T13:03:38.000Z</time>
      </trkpt>
      <trkpt lat="42.97472" lon="1.97051">
        <ele>399.3</ele>
        <time>2023-04-23T13:03:40.000Z</time>
      </trkpt>
      <trkpt lat="42.97467" lon="1.9705">
        <ele>399.3</ele>
        <time>2023-04-23T13:03:42.000Z</time>
      </trkpt>
      <trkpt lat="42.97462" lon="1.97049">
        <ele>399.3</ele>
        <time>2023-04-23T13:03:44.000Z</time>
      </trkpt>
      <trkpt lat="42.97457" lon="1.97051">
        <ele>399.1</ele>
        <time>2023-04-23T13:03:46.000Z</time>
      </trkpt>
      <trkpt lat="42.97452" lon="1.97056">
        <ele>398.6</ele>
        <time>2023-04-23T13:03:48.000Z</time>
      </trkpt>
      <trkpt lat="42.97448" lon="1.97063">
        <ele>398.1</ele>
        <time>2023-04-23T13:03:50.000Z</time>
      </trkpt>
      <trkpt lat="42.97446" lon="1.9707">
        <ele>397.8</ele>
        <time>2023-04-23T13:03:52.000Z</time>
      </trkpt>
      <trkpt lat="42.97444" lon="1.97076">
        <ele>397.7</ele>
        <time>2023-04-23T13:03:54.000Z</time>
      </trkpt>
      <trkpt lat="42.97442" lon="1.97083">
        <ele>397.5</ele>
        <time>2023-04-23T13:03:56.000Z</time>
      </trkpt>
      <trkpt lat="42.97438" lon="1.9709">
        <ele>397.1</ele>
        <time>2023-04-23T13:03:58.000Z</time>
      </trkpt>
      <trkpt lat="42.97435" lon="1.97097">
        <ele>396.8</ele>
        <time>2023-04-23T13:04:00.000Z</time>
      </trkpt>
      <trkpt lat="42.97431" lon="1.97105">
        <ele>396.3</ele>
        <time>2023-04-23T13:04:02.000Z</time>
      </trkpt>
      <trkpt lat="42.97427" lon="1.97113">
        <ele>396.3</ele>
        <time>2023-04-23T13:04:04.000Z</time>
      </trkpt>
      <trkpt lat="42.97424" lon="1.97121">
        <ele>396.2</ele>
        <time>2023-04-23T13:04:06.000Z</time>
      </trkpt>
      <trkpt lat="42.9742" lon="1.97129">
        <ele>396</ele>
        <time>2023-04-23T13:04:08.000Z</time>
      </trkpt>
      <trkpt lat="42.97417" lon="1.97136">
        <ele>395.9</ele>
        <time>2023-04-23T13:04:10.000Z</time>
      </trkpt>
      <trkpt lat="42.97412" lon="1.97142">
        <ele>395.6</ele>
        <time>2023-04-23T13:04:12.000Z</time>
      </trkpt>
      <trkpt lat="42.97407" lon="1.9715">
        <ele>395.3</ele>
        <time>2023-04-23T13:04:14.000Z</time>
      </trkpt>
      <trkpt lat="42.97403" lon="1.97159">
        <ele>395.4</ele>
        <time>2023-04-23T13:04:16.000Z</time>
      </trkpt>
      <trkpt lat="42.97398" lon="1.97166">
        <ele>395.6</ele>
        <time>2023-04-23T13:04:18.000Z</time>
      </trkpt>
      <trkpt lat="42.97394" lon="1.97173">
        <ele>395.8</ele>
        <time>2023-04-23T13:04:20.000Z</time>
      </trkpt>
      <trkpt lat="42.97391" lon="1.9718">
        <ele>396.1</ele>
        <time>2023-04-23T13:04:22.000Z</time>
      </trkpt>
      <trkpt lat="42.97388" lon="1.97186">
        <ele>396.3</ele>
        <time>2023-04-23T13:04:24.000Z</time>
      </trkpt>
      <trkpt lat="42.97385" lon="1.97193">
        <ele>396.6</ele>
        <time>2023-04-23T13:04:26.000Z</time>
      </trkpt>
      <trkpt lat="42.97381" lon="1.972">
        <ele>396.8</ele>
        <time>2023-04-23T13:04:28.000Z</time>
      </trkpt>
      <trkpt lat="42.97377" lon="1.97206">
        <ele>397</ele>
        <time>2023-04-23T13:04:30.000Z</time>
      </trkpt>
      <trkpt lat="42.97374" lon="1.97213">
        <ele>397.1</ele>
        <time>2023-04-23T13:04:32.000Z</time>
      </trkpt>
      <trkpt lat="42.97371" lon="1.9722">
        <ele>397</ele>
        <time>2023-04-23T13:04:34.000Z</time>
      </trkpt>
      <trkpt lat="42.97367" lon="1.97227">
        <ele>396.9</ele>
        <time>2023-04-23T13:04:36.000Z</time>
      </trkpt>
      <trkpt lat="42.97364" lon="1.97234">
        <ele>396.7</ele>
        <time>2023-04-23T13:04:38.000Z</time>
      </trkpt>
      <trkpt lat="42.97359" lon="1.97242">
        <ele>396.6</ele>
        <time>2023-04-23T13:04:40.000Z</time>
      </trkpt>
      <trkpt lat="42.97355" lon="1.97251">
        <ele>396.8</ele>
        <time>2023-04-23T13:04:42.000Z</time>
      </trkpt>
      <trkpt lat="42.97352" lon="1.97259">
        <ele>397</ele>
        <time>2023-04-23T13:04:44.000Z</time>
      </trkpt>
      <trkpt lat="42.97349" lon="1.97267">
        <ele>397.2</ele>
        <time>2023-04-23T13:04:46.000Z</time>
      </trkpt>
      <trkpt lat="42.97346" lon="1.97275">
        <ele>397.2</ele>
        <time>2023-04-23T13:04:48.000Z</time>
      </trkpt>
      <trkpt lat="42.97343" lon="1.97283">
        <ele>396.9</ele>
        <time>2023-04-23T13:04:50.000Z</time>
      </trkpt>
      <trkpt lat="42.97339" lon="1.9729">
        <ele>396.5</ele>
        <time>2023-04-23T13:04:52.000Z</time>
      </trkpt>
      <trkpt lat="42.97336" lon="1.97298">
        <ele>396.6</ele>
        <time>2023-04-23T13:04:54.000Z</time>
      </trkpt>
      <trkpt lat="42.97331" lon="1.97308">
        <ele>396.8</ele>
        <time>2023-04-23T13:04:56.000Z</time>
      </trkpt>
      <trkpt lat="42.97328" lon="1.97313">
        <ele>396.8</ele>
        <time>2023-04-23T13:04:57.000Z</time>
      </trkpt>
      <trkpt lat="42.97325" lon="1.97318">
        <ele>396.9</ele>
        <time>2023-04-23T13:04:58.000Z</time>
      </trkpt>
      <trkpt lat="42.97322" lon="1.97324">
        <ele>396.8</ele>
        <time>2023-04-23T13:04:59.000Z</time>
      </trkpt>
      <trkpt lat="42.9732" lon="1.97329">
        <ele>396.8</ele>
        <time>2023-04-23T13:05:00.000Z</time>
      </trkpt>
      <trkpt lat="42.97315" lon="1.97339">
        <ele>397.5</ele>
        <time>2023-04-23T13:05:02.000Z</time>
      </trkpt>
      <trkpt lat="42.97311" lon="1.97349">
        <ele>398.1</ele>
        <time>2023-04-23T13:05:04.000Z</time>
      </trkpt>
      <trkpt lat="42.97308" lon="1.97354">
        <ele>398.3</ele>
        <time>2023-04-23T13:05:05.000Z</time>
      </trkpt>
      <trkpt lat="42.97305" lon="1.97359">
        <ele>398.4</ele>
        <time>2023-04-23T13:05:06.000Z</time>
      </trkpt>
      <trkpt lat="42.97303" lon="1.97365">
        <ele>398.4</ele>
        <time>2023-04-23T13:05:07.000Z</time>
      </trkpt>
      <trkpt lat="42.973" lon="1.9737">
        <ele>398.2</ele>
        <time>2023-04-23T13:05:08.000Z</time>
      </trkpt>
      <trkpt lat="42.97298" lon="1.97376">
        <ele>397.9</ele>
        <time>2023-04-23T13:05:09.000Z</time>
      </trkpt>
      <trkpt lat="42.97293" lon="1.97386">
        <ele>397.6</ele>
        <time>2023-04-23T13:05:11.000Z</time>
      </trkpt>
      <trkpt lat="42.97289" lon="1.97391">
        <ele>397.6</ele>
        <time>2023-04-23T13:05:12.000Z</time>
      </trkpt>
      <trkpt lat="42.97284" lon="1.97398">
        <ele>397.9</ele>
        <time>2023-04-23T13:05:14.000Z</time>
      </trkpt>
      <trkpt lat="42.97279" lon="1.97405">
        <ele>398</ele>
        <time>2023-04-23T13:05:16.000Z</time>
      </trkpt>
      <trkpt lat="42.97276" lon="1.97413">
        <ele>398.2</ele>
        <time>2023-04-23T13:05:18.000Z</time>
      </trkpt>
      <trkpt lat="42.97273" lon="1.97422">
        <ele>398.2</ele>
        <time>2023-04-23T13:05:20.000Z</time>
      </trkpt>
      <trkpt lat="42.9727" lon="1.9743">
        <ele>398.2</ele>
        <time>2023-04-23T13:05:22.000Z</time>
      </trkpt>
      <trkpt lat="42.97267" lon="1.97437">
        <ele>398.4</ele>
        <time>2023-04-23T13:05:24.000Z</time>
      </trkpt>
      <trkpt lat="42.97264" lon="1.97445">
        <ele>398.5</ele>
        <time>2023-04-23T13:05:26.000Z</time>
      </trkpt>
      <trkpt lat="42.97262" lon="1.97452">
        <ele>398.6</ele>
        <time>2023-04-23T13:05:28.000Z</time>
      </trkpt>
      <trkpt lat="42.97259" lon="1.9746">
        <ele>398.6</ele>
        <time>2023-04-23T13:05:30.000Z</time>
      </trkpt>
      <trkpt lat="42.97256" lon="1.97468">
        <ele>398.7</ele>
        <time>2023-04-23T13:05:32.000Z</time>
      </trkpt>
      <trkpt lat="42.97251" lon="1.97476">
        <ele>398.6</ele>
        <time>2023-04-23T13:05:34.000Z</time>
      </trkpt>
      <trkpt lat="42.97247" lon="1.97484">
        <ele>398.4</ele>
        <time>2023-04-23T13:05:36.000Z</time>
      </trkpt>
      <trkpt lat="42.97241" lon="1.97489">
        <ele>398.1</ele>
        <time>2023-04-23T13:05:38.000Z</time>
      </trkpt>
      <trkpt lat="42.97236" lon="1.97494">
        <ele>397.8</ele>
        <time>2023-04-23T13:05:40.000Z</time>
      </trkpt>
      <trkpt lat="42.97232" lon="1.97501">
        <ele>398.6</ele>
        <time>2023-04-23T13:05:42.000Z</time>
      </trkpt>
      <trkpt lat="42.97226" lon="1.97506">
        <ele>399</ele>
        <time>2023-04-23T13:05:44.000Z</time>
      </trkpt>
      <trkpt lat="42.9722" lon="1.97506">
        <ele>398.9</ele>
        <time>2023-04-23T13:05:46.000Z</time>
      </trkpt>
      <trkpt lat="42.97212" lon="1.97508">
        <ele>398.8</ele>
        <time>2023-04-23T13:05:48.000Z</time>
      </trkpt>
      <trkpt lat="42.97205" lon="1.97509">
        <ele>399.5</ele>
        <time>2023-04-23T13:05:50.000Z</time>
      </trkpt>
      <trkpt lat="42.97198" lon="1.97511">
        <ele>400.8</ele>
        <time>2023-04-23T13:05:52.000Z</time>
      </trkpt>
      <trkpt lat="42.9719" lon="1.9751">
        <ele>402.2</ele>
        <time>2023-04-23T13:05:54.000Z</time>
      </trkpt>
      <trkpt lat="42.97183" lon="1.97507">
        <ele>403.6</ele>
        <time>2023-04-23T13:05:56.000Z</time>
      </trkpt>
      <trkpt lat="42.97175" lon="1.97506">
        <ele>403.5</ele>
        <time>2023-04-23T13:05:58.000Z</time>
      </trkpt>
      <trkpt lat="42.97168" lon="1.97504">
        <ele>402.8</ele>
        <time>2023-04-23T13:06:00.000Z</time>
      </trkpt>
      <trkpt lat="42.97161" lon="1.97505">
        <ele>402.1</ele>
        <time>2023-04-23T13:06:02.000Z</time>
      </trkpt>
      <trkpt lat="42.97155" lon="1.9751">
        <ele>401.4</ele>
        <time>2023-04-23T13:06:04.000Z</time>
      </trkpt>
      <trkpt lat="42.9715" lon="1.97516">
        <ele>400.7</ele>
        <time>2023-04-23T13:06:06.000Z</time>
      </trkpt>
      <trkpt lat="42.97147" lon="1.97522">
        <ele>400.4</ele>
        <time>2023-04-23T13:06:08.000Z</time>
      </trkpt>
      <trkpt lat="42.97144" lon="1.97528">
        <ele>400.1</ele>
        <time>2023-04-23T13:06:10.000Z</time>
      </trkpt>
      <trkpt lat="42.97141" lon="1.97535">
        <ele>399.7</ele>
        <time>2023-04-23T13:06:12.000Z</time>
      </trkpt>
      <trkpt lat="42.97135" lon="1.97541">
        <ele>398.8</ele>
        <time>2023-04-23T13:06:14.000Z</time>
      </trkpt>
      <trkpt lat="42.97129" lon="1.97543">
        <ele>397.7</ele>
        <time>2023-04-23T13:06:16.000Z</time>
      </trkpt>
      <trkpt lat="42.97124" lon="1.9754">
        <ele>397</ele>
        <time>2023-04-23T13:06:18.000Z</time>
      </trkpt>
      <trkpt lat="42.9712" lon="1.97535">
        <ele>397</ele>
        <time>2023-04-23T13:06:21.000Z</time>
      </trkpt>
      <trkpt lat="42.97115" lon="1.97531">
        <ele>397</ele>
        <time>2023-04-23T13:06:24.000Z</time>
      </trkpt>
      <trkpt lat="42.97111" lon="1.97526">
        <ele>397</ele>
        <time>2023-04-23T13:06:27.000Z</time>
      </trkpt>
      <trkpt lat="42.97108" lon="1.97522">
        <ele>397</ele>
        <time>2023-04-23T13:06:30.000Z</time>
      </trkpt>
      <trkpt lat="42.97105" lon="1.97515">
        <ele>397</ele>
        <time>2023-04-23T13:06:34.000Z</time>
      </trkpt>
      <trkpt lat="42.97101" lon="1.97509">
        <ele>397.2</ele>
        <time>2023-04-23T13:06:37.000Z</time>
      </trkpt>
      <trkpt lat="42.97097" lon="1.97504">
        <ele>397.4</ele>
        <time>2023-04-23T13:06:40.000Z</time>
      </trkpt>
      <trkpt lat="42.97093" lon="1.97497">
        <ele>397.7</ele>
        <time>2023-04-23T13:06:43.000Z</time>
      </trkpt>
      <trkpt lat="42.97089" lon="1.97491">
        <ele>397.9</ele>
        <time>2023-04-23T13:06:46.000Z</time>
      </trkpt>
      <trkpt lat="42.97085" lon="1.97484">
        <ele>398</ele>
        <time>2023-04-23T13:06:49.000Z</time>
      </trkpt>
      <trkpt lat="42.97082" lon="1.97478">
        <ele>398.2</ele>
        <time>2023-04-23T13:06:52.000Z</time>
      </trkpt>
      <trkpt lat="42.97078" lon="1.97472">
        <ele>398.4</ele>
        <time>2023-04-23T13:06:55.000Z</time>
      </trkpt>
      <trkpt lat="42.97073" lon="1.97465">
        <ele>398.6</ele>
        <time>2023-04-23T13:06:58.000Z</time>
      </trkpt>
      <trkpt lat="42.97069" lon="1.97459">
        <ele>399.1</ele>
        <time>2023-04-23T13:07:01.000Z</time>
      </trkpt>
      <trkpt lat="42.97065" lon="1.97453">
        <ele>400.2</ele>
        <time>2023-04-23T13:07:04.000Z</time>
      </trkpt>
      <trkpt lat="42.97061" lon="1.97448">
        <ele>401.2</ele>
        <time>2023-04-23T13:07:06.000Z</time>
      </trkpt>
      <trkpt lat="42.97057" lon="1.97443">
        <ele>402.2</ele>
        <time>2023-04-23T13:07:08.000Z</time>
      </trkpt>
      <trkpt lat="42.97054" lon="1.97437">
        <ele>403.1</ele>
        <time>2023-04-23T13:07:10.000Z</time>
      </trkpt>
      <trkpt lat="42.9705" lon="1.9743">
        <ele>404.2</ele>
        <time>2023-04-23T13:07:12.000Z</time>
      </trkpt>
      <trkpt lat="42.97048" lon="1.97422">
        <ele>404.9</ele>
        <time>2023-04-23T13:07:14.000Z</time>
      </trkpt>
      <trkpt lat="42.97047" lon="1.97415">
        <ele>405.1</ele>
        <time>2023-04-23T13:07:16.000Z</time>
      </trkpt>
      <trkpt lat="42.97047" lon="1.97409">
        <ele>405.3</ele>
        <time>2023-04-23T13:07:18.000Z</time>
      </trkpt>
      <trkpt lat="42.97049" lon="1.974">
        <ele>405.6</ele>
        <time>2023-04-23T13:07:21.000Z</time>
      </trkpt>
      <trkpt lat="42.97051" lon="1.97392">
        <ele>406.3</ele>
        <time>2023-04-23T13:07:24.000Z</time>
      </trkpt>
      <trkpt lat="42.97054" lon="1.97384">
        <ele>406.7</ele>
        <time>2023-04-23T13:07:27.000Z</time>
      </trkpt>
      <trkpt lat="42.97057" lon="1.97379">
        <ele>406.9</ele>
        <time>2023-04-23T13:07:29.000Z</time>
      </trkpt>
      <trkpt lat="42.9706" lon="1.97373">
        <ele>407.4</ele>
        <time>2023-04-23T13:07:31.000Z</time>
      </trkpt>
      <trkpt lat="42.97061" lon="1.97367">
        <ele>408.2</ele>
        <time>2023-04-23T13:07:33.000Z</time>
      </trkpt>
      <trkpt lat="42.97063" lon="1.9736">
        <ele>409.4</ele>
        <time>2023-04-23T13:07:36.000Z</time>
      </trkpt>
      <trkpt lat="42.97064" lon="1.97353">
        <ele>410.4</ele>
        <time>2023-04-23T13:07:39.000Z</time>
      </trkpt>
      <trkpt lat="42.97066" lon="1.97347">
        <ele>411.3</ele>
        <time>2023-04-23T13:07:42.000Z</time>
      </trkpt>
      <trkpt lat="42.97069" lon="1.9734">
        <ele>412.2</ele>
        <time>2023-04-23T13:07:46.000Z</time>
      </trkpt>
      <trkpt lat="42.97072" lon="1.97333">
        <ele>412.6</ele>
        <time>2023-04-23T13:07:49.000Z</time>
      </trkpt>
      <trkpt lat="42.97074" lon="1.97326">
        <ele>413.1</ele>
        <time>2023-04-23T13:07:52.000Z</time>
      </trkpt>
      <trkpt lat="42.97076" lon="1.9732">
        <ele>413.5</ele>
        <time>2023-04-23T13:07:55.000Z</time>
      </trkpt>
      <trkpt lat="42.97077" lon="1.97313">
        <ele>414</ele>
        <time>2023-04-23T13:07:58.000Z</time>
      </trkpt>
      <trkpt lat="42.9708" lon="1.97308">
        <ele>414</ele>
        <time>2023-04-23T13:08:01.000Z</time>
      </trkpt>
      <trkpt lat="42.97082" lon="1.97302">
        <ele>414.1</ele>
        <time>2023-04-23T13:08:04.000Z</time>
      </trkpt>
      <trkpt lat="42.97085" lon="1.97296">
        <ele>414.2</ele>
        <time>2023-04-23T13:08:07.000Z</time>
      </trkpt>
      <trkpt lat="42.97087" lon="1.9729">
        <ele>414.4</ele>
        <time>2023-04-23T13:08:10.000Z</time>
      </trkpt>
      <trkpt lat="42.97089" lon="1.97284">
        <ele>414.3</ele>
        <time>2023-04-23T13:08:14.000Z</time>
      </trkpt>
      <trkpt lat="42.97091" lon="1.97277">
        <ele>414.5</ele>
        <time>2023-04-23T13:08:17.000Z</time>
      </trkpt>
      <trkpt lat="42.97093" lon="1.97271">
        <ele>414.4</ele>
        <time>2023-04-23T13:08:20.000Z</time>
      </trkpt>
      <trkpt lat="42.97095" lon="1.97264">
        <ele>414.4</ele>
        <time>2023-04-23T13:08:23.000Z</time>
      </trkpt>
      <trkpt lat="42.97097" lon="1.97258">
        <ele>414.3</ele>
        <time>2023-04-23T13:08:26.000Z</time>
      </trkpt>
      <trkpt lat="42.971" lon="1.97251">
        <ele>413.9</ele>
        <time>2023-04-23T13:08:29.000Z</time>
      </trkpt>
      <trkpt lat="42.97102" lon="1.97245">
        <ele>413.8</ele>
        <time>2023-04-23T13:08:32.000Z</time>
      </trkpt>
      <trkpt lat="42.97104" lon="1.97239">
        <ele>413.7</ele>
        <time>2023-04-23T13:08:35.000Z</time>
      </trkpt>
      <trkpt lat="42.97106" lon="1.97232">
        <ele>413.4</ele>
        <time>2023-04-23T13:08:38.000Z</time>
      </trkpt>
      <trkpt lat="42.97107" lon="1.97225">
        <ele>413.2</ele>
        <time>2023-04-23T13:08:41.000Z</time>
      </trkpt>
      <trkpt lat="42.97109" lon="1.97217">
        <ele>413</ele>
        <time>2023-04-23T13:08:44.000Z</time>
      </trkpt>
      <trkpt lat="42.97111" lon="1.97209">
        <ele>413</ele>
        <time>2023-04-23T13:08:47.000Z</time>
      </trkpt>
      <trkpt lat="42.97113" lon="1.97201">
        <ele>413.6</ele>
        <time>2023-04-23T13:08:50.000Z</time>
      </trkpt>
      <trkpt lat="42.97116" lon="1.97196">
        <ele>413.9</ele>
        <time>2023-04-23T13:08:52.000Z</time>
      </trkpt>
      <trkpt lat="42.97118" lon="1.97188">
        <ele>414.3</ele>
        <time>2023-04-23T13:08:55.000Z</time>
      </trkpt>
      <trkpt lat="42.9712" lon="1.9718">
        <ele>414.7</ele>
        <time>2023-04-23T13:08:58.000Z</time>
      </trkpt>
      <trkpt lat="42.97121" lon="1.97173">
        <ele>414.4</ele>
        <time>2023-04-23T13:09:01.000Z</time>
      </trkpt>
      <trkpt lat="42.97122" lon="1.97166">
        <ele>414.2</ele>
        <time>2023-04-23T13:09:04.000Z</time>
      </trkpt>
      <trkpt lat="42.97124" lon="1.97159">
        <ele>414</ele>
        <time>2023-04-23T13:09:07.000Z</time>
      </trkpt>
      <trkpt lat="42.97125" lon="1.97152">
        <ele>413.9</ele>
        <time>2023-04-23T13:09:10.000Z</time>
      </trkpt>
      <trkpt lat="42.97126" lon="1.97146">
        <ele>413.1</ele>
        <time>2023-04-23T13:09:13.000Z</time>
      </trkpt>
      <trkpt lat="42.97125" lon="1.97139">
        <ele>412.4</ele>
        <time>2023-04-23T13:09:16.000Z</time>
      </trkpt>
      <trkpt lat="42.97124" lon="1.97132">
        <ele>411.7</ele>
        <time>2023-04-23T13:09:19.000Z</time>
      </trkpt>
      <trkpt lat="42.97119" lon="1.97125">
        <ele>410.8</ele>
        <time>2023-04-23T13:09:22.000Z</time>
      </trkpt>
      <trkpt lat="42.97114" lon="1.97121">
        <ele>410.1</ele>
        <time>2023-04-23T13:09:24.000Z</time>
      </trkpt>
      <trkpt lat="42.97109" lon="1.97117">
        <ele>409.5</ele>
        <time>2023-04-23T13:09:26.000Z</time>
      </trkpt>
      <trkpt lat="42.97102" lon="1.97114">
        <ele>409</ele>
        <time>2023-04-23T13:09:28.000Z</time>
      </trkpt>
      <trkpt lat="42.97097" lon="1.97112">
        <ele>408.7</ele>
        <time>2023-04-23T13:09:30.000Z</time>
      </trkpt>
      <trkpt lat="42.97089" lon="1.97109">
        <ele>409.7</ele>
        <time>2023-04-23T13:09:32.000Z</time>
      </trkpt>
      <trkpt lat="42.97083" lon="1.97107">
        <ele>410.5</ele>
        <time>2023-04-23T13:09:34.000Z</time>
      </trkpt>
      <trkpt lat="42.97077" lon="1.97104">
        <ele>411</ele>
        <time>2023-04-23T13:09:36.000Z</time>
      </trkpt>
      <trkpt lat="42.97071" lon="1.97102">
        <ele>411.6</ele>
        <time>2023-04-23T13:09:38.000Z</time>
      </trkpt>
      <trkpt lat="42.97064" lon="1.97099">
        <ele>411.5</ele>
        <time>2023-04-23T13:09:40.000Z</time>
      </trkpt>
      <trkpt lat="42.97058" lon="1.97097">
        <ele>411.3</ele>
        <time>2023-04-23T13:09:42.000Z</time>
      </trkpt>
      <trkpt lat="42.97052" lon="1.97096">
        <ele>411.5</ele>
        <time>2023-04-23T13:09:44.000Z</time>
      </trkpt>
      <trkpt lat="42.97045" lon="1.97095">
        <ele>411.7</ele>
        <time>2023-04-23T13:09:46.000Z</time>
      </trkpt>
      <trkpt lat="42.97038" lon="1.97096">
        <ele>411.1</ele>
        <time>2023-04-23T13:09:48.000Z</time>
      </trkpt>
      <trkpt lat="42.97031" lon="1.97098">
        <ele>409.6</ele>
        <time>2023-04-23T13:09:50.000Z</time>
      </trkpt>
      <trkpt lat="42.97024" lon="1.97098">
        <ele>408.2</ele>
        <time>2023-04-23T13:09:52.000Z</time>
      </trkpt>
      <trkpt lat="42.97016" lon="1.97099">
        <ele>406.7</ele>
        <time>2023-04-23T13:09:54.000Z</time>
      </trkpt>
      <trkpt lat="42.97009" lon="1.97099">
        <ele>405.6</ele>
        <time>2023-04-23T13:09:56.000Z</time>
      </trkpt>
      <trkpt lat="42.97004" lon="1.97092">
        <ele>403.5</ele>
        <time>2023-04-23T13:09:58.000Z</time>
      </trkpt>
      <trkpt lat="42.97" lon="1.97084">
        <ele>401.1</ele>
        <time>2023-04-23T13:10:00.000Z</time>
      </trkpt>
      <trkpt lat="42.96997" lon="1.97075">
        <ele>398.6</ele>
        <time>2023-04-23T13:10:02.000Z</time>
      </trkpt>
      <trkpt lat="42.96994" lon="1.97068">
        <ele>396.6</ele>
        <time>2023-04-23T13:10:04.000Z</time>
      </trkpt>
      <trkpt lat="42.96991" lon="1.97061">
        <ele>395.4</ele>
        <time>2023-04-23T13:10:06.000Z</time>
      </trkpt>
      <trkpt lat="42.96989" lon="1.97055">
        <ele>394.2</ele>
        <time>2023-04-23T13:10:08.000Z</time>
      </trkpt>
      <trkpt lat="42.96987" lon="1.97047">
        <ele>392.9</ele>
        <time>2023-04-23T13:10:10.000Z</time>
      </trkpt>
      <trkpt lat="42.96984" lon="1.9704">
        <ele>391.7</ele>
        <time>2023-04-23T13:10:12.000Z</time>
      </trkpt>
      <trkpt lat="42.9698" lon="1.97033">
        <ele>391</ele>
        <time>2023-04-23T13:10:14.000Z</time>
      </trkpt>
      <trkpt lat="42.96977" lon="1.97025">
        <ele>390.3</ele>
        <time>2023-04-23T13:10:16.000Z</time>
      </trkpt>
      <trkpt lat="42.96975" lon="1.97018">
        <ele>389.6</ele>
        <time>2023-04-23T13:10:18.000Z</time>
      </trkpt>
      <trkpt lat="42.96972" lon="1.9701">
        <ele>389.1</ele>
        <time>2023-04-23T13:10:20.000Z</time>
      </trkpt>
      <trkpt lat="42.96969" lon="1.97002">
        <ele>389</ele>
        <time>2023-04-23T13:10:22.000Z</time>
      </trkpt>
      <trkpt lat="42.96966" lon="1.96994">
        <ele>388.9</ele>
        <time>2023-04-23T13:10:24.000Z</time>
      </trkpt>
      <trkpt lat="42.96963" lon="1.96986">
        <ele>388.7</ele>
        <time>2023-04-23T13:10:26.000Z</time>
      </trkpt>
      <trkpt lat="42.9696" lon="1.96979">
        <ele>388.5</ele>
        <time>2023-04-23T13:10:28.000Z</time>
      </trkpt>
      <trkpt lat="42.96957" lon="1.96971">
        <ele>388.4</ele>
        <time>2023-04-23T13:10:30.000Z</time>
      </trkpt>
      <trkpt lat="42.96954" lon="1.96964">
        <ele>388.3</ele>
        <time>2023-04-23T13:10:32.000Z</time>
      </trkpt>
      <trkpt lat="42.96952" lon="1.96957">
        <ele>388.2</ele>
        <time>2023-04-23T13:10:34.000Z</time>
      </trkpt>
      <trkpt lat="42.9695" lon="1.96949">
        <ele>388.2</ele>
        <time>2023-04-23T13:10:36.000Z</time>
      </trkpt>
      <trkpt lat="42.96947" lon="1.96942">
        <ele>388.2</ele>
        <time>2023-04-23T13:10:38.000Z</time>
      </trkpt>
      <trkpt lat="42.96944" lon="1.96934">
        <ele>388.3</ele>
        <time>2023-04-23T13:10:40.000Z</time>
      </trkpt>
      <trkpt lat="42.96942" lon="1.96927">
        <ele>388.4</ele>
        <time>2023-04-23T13:10:42.000Z</time>
      </trkpt>
      <trkpt lat="42.96939" lon="1.9692">
        <ele>388.5</ele>
        <time>2023-04-23T13:10:44.000Z</time>
      </trkpt>
      <trkpt lat="42.96936" lon="1.96912">
        <ele>388.5</ele>
        <time>2023-04-23T13:10:46.000Z</time>
      </trkpt>
      <trkpt lat="42.96934" lon="1.96905">
        <ele>388.4</ele>
        <time>2023-04-23T13:10:48.000Z</time>
      </trkpt>
      <trkpt lat="42.96931" lon="1.96899">
        <ele>388.4</ele>
        <time>2023-04-23T13:10:50.000Z</time>
      </trkpt>
      <trkpt lat="42.96929" lon="1.96892">
        <ele>388.6</ele>
        <time>2023-04-23T13:10:52.000Z</time>
      </trkpt>
      <trkpt lat="42.96926" lon="1.96885">
        <ele>388.7</ele>
        <time>2023-04-23T13:10:54.000Z</time>
      </trkpt>
      <trkpt lat="42.96923" lon="1.96878">
        <ele>388.7</ele>
        <time>2023-04-23T13:10:56.000Z</time>
      </trkpt>
      <trkpt lat="42.96921" lon="1.96871">
        <ele>388.8</ele>
        <time>2023-04-23T13:10:58.000Z</time>
      </trkpt>
      <trkpt lat="42.96918" lon="1.96863">
        <ele>388.9</ele>
        <time>2023-04-23T13:11:00.000Z</time>
      </trkpt>
      <trkpt lat="42.96916" lon="1.96856">
        <ele>388.9</ele>
        <time>2023-04-23T13:11:02.000Z</time>
      </trkpt>
      <trkpt lat="42.96913" lon="1.96849">
        <ele>389.1</ele>
        <time>2023-04-23T13:11:04.000Z</time>
      </trkpt>
      <trkpt lat="42.9691" lon="1.96842">
        <ele>389.1</ele>
        <time>2023-04-23T13:11:06.000Z</time>
      </trkpt>
      <trkpt lat="42.96907" lon="1.96835">
        <ele>389</ele>
        <time>2023-04-23T13:11:08.000Z</time>
      </trkpt>
      <trkpt lat="42.96905" lon="1.96828">
        <ele>389</ele>
        <time>2023-04-23T13:11:10.000Z</time>
      </trkpt>
      <trkpt lat="42.96903" lon="1.96821">
        <ele>388.9</ele>
        <time>2023-04-23T13:11:12.000Z</time>
      </trkpt>
      <trkpt lat="42.969" lon="1.96814">
        <ele>389.5</ele>
        <time>2023-04-23T13:11:14.000Z</time>
      </trkpt>
      <trkpt lat="42.96897" lon="1.96808">
        <ele>390.2</ele>
        <time>2023-04-23T13:11:16.000Z</time>
      </trkpt>
      <trkpt lat="42.96894" lon="1.96801">
        <ele>390.8</ele>
        <time>2023-04-23T13:11:18.000Z</time>
      </trkpt>
      <trkpt lat="42.96891" lon="1.96794">
        <ele>391.4</ele>
        <time>2023-04-23T13:11:20.000Z</time>
      </trkpt>
      <trkpt lat="42.9689" lon="1.96788">
        <ele>392</ele>
        <time>2023-04-23T13:11:22.000Z</time>
      </trkpt>
      <trkpt lat="42.96887" lon="1.96781">
        <ele>392.6</ele>
        <time>2023-04-23T13:11:24.000Z</time>
      </trkpt>
      <trkpt lat="42.96885" lon="1.96773">
        <ele>393.4</ele>
        <time>2023-04-23T13:11:26.000Z</time>
      </trkpt>
      <trkpt lat="42.96883" lon="1.96766">
        <ele>394.1</ele>
        <time>2023-04-23T13:11:28.000Z</time>
      </trkpt>
      <trkpt lat="42.9688" lon="1.96759">
        <ele>394.7</ele>
        <time>2023-04-23T13:11:30.000Z</time>
      </trkpt>
      <trkpt lat="42.96877" lon="1.96753">
        <ele>395.3</ele>
        <time>2023-04-23T13:11:32.000Z</time>
      </trkpt>
      <trkpt lat="42.96875" lon="1.96746">
        <ele>395.9</ele>
        <time>2023-04-23T13:11:34.000Z</time>
      </trkpt>
      <trkpt lat="42.96872" lon="1.96739">
        <ele>396.6</ele>
        <time>2023-04-23T13:11:36.000Z</time>
      </trkpt>
      <trkpt lat="42.9687" lon="1.96731">
        <ele>397</ele>
        <time>2023-04-23T13:11:38.000Z</time>
      </trkpt>
      <trkpt lat="42.96867" lon="1.96723">
        <ele>397.3</ele>
        <time>2023-04-23T13:11:40.000Z</time>
      </trkpt>
      <trkpt lat="42.96865" lon="1.96712">
        <ele>397.8</ele>
        <time>2023-04-23T13:11:42.000Z</time>
      </trkpt>
      <trkpt lat="42.96864" lon="1.96702">
        <ele>397.8</ele>
        <time>2023-04-23T13:11:44.000Z</time>
      </trkpt>
      <trkpt lat="42.96865" lon="1.96692">
        <ele>397.4</ele>
        <time>2023-04-23T13:11:46.000Z</time>
      </trkpt>
      <trkpt lat="42.96865" lon="1.96682">
        <ele>397.1</ele>
        <time>2023-04-23T13:11:48.000Z</time>
      </trkpt>
      <trkpt lat="42.96866" lon="1.96673">
        <ele>397.1</ele>
        <time>2023-04-23T13:11:50.000Z</time>
      </trkpt>
      <trkpt lat="42.9687" lon="1.96666">
        <ele>397.1</ele>
        <time>2023-04-23T13:11:52.000Z</time>
      </trkpt>
      <trkpt lat="42.96874" lon="1.9666">
        <ele>397</ele>
        <time>2023-04-23T13:11:54.000Z</time>
      </trkpt>
      <trkpt lat="42.96879" lon="1.96655">
        <ele>397.6</ele>
        <time>2023-04-23T13:11:56.000Z</time>
      </trkpt>
      <trkpt lat="42.96885" lon="1.96648">
        <ele>398.4</ele>
        <time>2023-04-23T13:11:58.000Z</time>
      </trkpt>
      <trkpt lat="42.9689" lon="1.96639">
        <ele>398.8</ele>
        <time>2023-04-23T13:12:00.000Z</time>
      </trkpt>
      <trkpt lat="42.96896" lon="1.9663">
        <ele>399.4</ele>
        <time>2023-04-23T13:12:02.000Z</time>
      </trkpt>
      <trkpt lat="42.96899" lon="1.96625">
        <ele>399.6</ele>
        <time>2023-04-23T13:12:03.000Z</time>
      </trkpt>
      <trkpt lat="42.96901" lon="1.96619">
        <ele>399.6</ele>
        <time>2023-04-23T13:12:04.000Z</time>
      </trkpt>
      <trkpt lat="42.96902" lon="1.96613">
        <ele>399.5</ele>
        <time>2023-04-23T13:12:05.000Z</time>
      </trkpt>
      <trkpt lat="42.96903" lon="1.96607">
        <ele>399.4</ele>
        <time>2023-04-23T13:12:06.000Z</time>
      </trkpt>
      <trkpt lat="42.96905" lon="1.96595">
        <ele>399.3</ele>
        <time>2023-04-23T13:12:08.000Z</time>
      </trkpt>
      <trkpt lat="42.96906" lon="1.96585">
        <ele>399.3</ele>
        <time>2023-04-23T13:12:10.000Z</time>
      </trkpt>
      <trkpt lat="42.96907" lon="1.96575">
        <ele>399.4</ele>
        <time>2023-04-23T13:12:12.000Z</time>
      </trkpt>
      <trkpt lat="42.96909" lon="1.96566">
        <ele>399.8</ele>
        <time>2023-04-23T13:12:14.000Z</time>
      </trkpt>
      <trkpt lat="42.9691" lon="1.96556">
        <ele>400.2</ele>
        <time>2023-04-23T13:12:16.000Z</time>
      </trkpt>
      <trkpt lat="42.96912" lon="1.96547">
        <ele>400.8</ele>
        <time>2023-04-23T13:12:18.000Z</time>
      </trkpt>
      <trkpt lat="42.96914" lon="1.96539">
        <ele>401.3</ele>
        <time>2023-04-23T13:12:20.000Z</time>
      </trkpt>
      <trkpt lat="42.96914" lon="1.96532">
        <ele>401.6</ele>
        <time>2023-04-23T13:12:22.000Z</time>
      </trkpt>
      <trkpt lat="42.96913" lon="1.96526">
        <ele>401.7</ele>
        <time>2023-04-23T13:12:24.000Z</time>
      </trkpt>
      <trkpt lat="42.96914" lon="1.96518">
        <ele>402.1</ele>
        <time>2023-04-23T13:12:26.000Z</time>
      </trkpt>
      <trkpt lat="42.96916" lon="1.96508">
        <ele>402.2</ele>
        <time>2023-04-23T13:12:28.000Z</time>
      </trkpt>
      <trkpt lat="42.96917" lon="1.96499">
        <ele>402</ele>
        <time>2023-04-23T13:12:30.000Z</time>
      </trkpt>
      <trkpt lat="42.96918" lon="1.96489">
        <ele>401.8</ele>
        <time>2023-04-23T13:12:32.000Z</time>
      </trkpt>
      <trkpt lat="42.96919" lon="1.96481">
        <ele>401.5</ele>
        <time>2023-04-23T13:12:34.000Z</time>
      </trkpt>
      <trkpt lat="42.96921" lon="1.96472">
        <ele>401.1</ele>
        <time>2023-04-23T13:12:36.000Z</time>
      </trkpt>
      <trkpt lat="42.96923" lon="1.96462">
        <ele>400.6</ele>
        <time>2023-04-23T13:12:38.000Z</time>
      </trkpt>
      <trkpt lat="42.96925" lon="1.96452">
        <ele>399.9</ele>
        <time>2023-04-23T13:12:40.000Z</time>
      </trkpt>
      <trkpt lat="42.96926" lon="1.96446">
        <ele>399.4</ele>
        <time>2023-04-23T13:12:41.000Z</time>
      </trkpt>
      <trkpt lat="42.96928" lon="1.9644">
        <ele>398.9</ele>
        <time>2023-04-23T13:12:42.000Z</time>
      </trkpt>
      <trkpt lat="42.96932" lon="1.96433">
        <ele>398.8</ele>
        <time>2023-04-23T13:12:44.000Z</time>
      </trkpt>
      <trkpt lat="42.96938" lon="1.96428">
        <ele>399.8</ele>
        <time>2023-04-23T13:12:47.000Z</time>
      </trkpt>
      <trkpt lat="42.96943" lon="1.96424">
        <ele>401</ele>
        <time>2023-04-23T13:12:50.000Z</time>
      </trkpt>
      <trkpt lat="42.96948" lon="1.96422">
        <ele>402.5</ele>
        <time>2023-04-23T13:12:53.000Z</time>
      </trkpt>
      <trkpt lat="42.96953" lon="1.96421">
        <ele>403.8</ele>
        <time>2023-04-23T13:12:55.000Z</time>
      </trkpt>
      <trkpt lat="42.96958" lon="1.96418">
        <ele>404.9</ele>
        <time>2023-04-23T13:12:57.000Z</time>
      </trkpt>
      <trkpt lat="42.96965" lon="1.96407">
        <ele>404.6</ele>
        <time>2023-04-23T13:12:59.000Z</time>
      </trkpt>
      <trkpt lat="42.96968" lon="1.96401">
        <ele>404.5</ele>
        <time>2023-04-23T13:13:00.000Z</time>
      </trkpt>
      <trkpt lat="42.96972" lon="1.96391">
        <ele>404.1</ele>
        <time>2023-04-23T13:13:02.000Z</time>
      </trkpt>
      <trkpt lat="42.96975" lon="1.96383">
        <ele>403.9</ele>
        <time>2023-04-23T13:13:04.000Z</time>
      </trkpt>
      <trkpt lat="42.96975" lon="1.96375">
        <ele>403.4</ele>
        <time>2023-04-23T13:13:07.000Z</time>
      </trkpt>
      <trkpt lat="42.96975" lon="1.96368">
        <ele>403.4</ele>
        <time>2023-04-23T13:13:09.000Z</time>
      </trkpt>
      <trkpt lat="42.96975" lon="1.96362">
        <ele>403.4</ele>
        <time>2023-04-23T13:13:11.000Z</time>
      </trkpt>
      <trkpt lat="42.96976" lon="1.96356">
        <ele>403.5</ele>
        <time>2023-04-23T13:13:13.000Z</time>
      </trkpt>
      <trkpt lat="42.96979" lon="1.96348">
        <ele>404</ele>
        <time>2023-04-23T13:13:16.000Z</time>
      </trkpt>
      <trkpt lat="42.96982" lon="1.96341">
        <ele>404</ele>
        <time>2023-04-23T13:13:18.000Z</time>
      </trkpt>
      <trkpt lat="42.96982" lon="1.9633">
        <ele>403.4</ele>
        <time>2023-04-23T13:13:20.000Z</time>
      </trkpt>
      <trkpt lat="42.96983" lon="1.96323">
        <ele>403</ele>
        <time>2023-04-23T13:13:22.000Z</time>
      </trkpt>
      <trkpt lat="42.96983" lon="1.96315">
        <ele>402.5</ele>
        <time>2023-04-23T13:13:24.000Z</time>
      </trkpt>
      <trkpt lat="42.96983" lon="1.96308">
        <ele>402</ele>
        <time>2023-04-23T13:13:26.000Z</time>
      </trkpt>
      <trkpt lat="42.96984" lon="1.96301">
        <ele>401.6</ele>
        <time>2023-04-23T13:13:28.000Z</time>
      </trkpt>
      <trkpt lat="42.96987" lon="1.96293">
        <ele>401</ele>
        <time>2023-04-23T13:13:30.000Z</time>
      </trkpt>
      <trkpt lat="42.96987" lon="1.96286">
        <ele>401</ele>
        <time>2023-04-23T13:13:32.000Z</time>
      </trkpt>
      <trkpt lat="42.96984" lon="1.9628">
        <ele>401</ele>
        <time>2023-04-23T13:13:35.000Z</time>
      </trkpt>
      <trkpt lat="42.96983" lon="1.96273">
        <ele>401.1</ele>
        <time>2023-04-23T13:13:51.000Z</time>
      </trkpt>
      <trkpt lat="42.96982" lon="1.96267">
        <ele>401.1</ele>
        <time>2023-04-23T13:13:53.000Z</time>
      </trkpt>
      <trkpt lat="42.96982" lon="1.96259">
        <ele>401.7</ele>
        <time>2023-04-23T13:13:55.000Z</time>
      </trkpt>
      <trkpt lat="42.96981" lon="1.96252">
        <ele>402.6</ele>
        <time>2023-04-23T13:13:57.000Z</time>
      </trkpt>
      <trkpt lat="42.96981" lon="1.96245">
        <ele>403.5</ele>
        <time>2023-04-23T13:13:59.000Z</time>
      </trkpt>
      <trkpt lat="42.9698" lon="1.96236">
        <ele>404.6</ele>
        <time>2023-04-23T13:14:01.000Z</time>
      </trkpt>
      <trkpt lat="42.9698" lon="1.96229">
        <ele>405.1</ele>
        <time>2023-04-23T13:14:03.000Z</time>
      </trkpt>
      <trkpt lat="42.96979" lon="1.96222">
        <ele>405.6</ele>
        <time>2023-04-23T13:14:05.000Z</time>
      </trkpt>
      <trkpt lat="42.96978" lon="1.96215">
        <ele>406.2</ele>
        <time>2023-04-23T13:14:07.000Z</time>
      </trkpt>
      <trkpt lat="42.96977" lon="1.96207">
        <ele>406.7</ele>
        <time>2023-04-23T13:14:09.000Z</time>
      </trkpt>
      <trkpt lat="42.96976" lon="1.962">
        <ele>406.5</ele>
        <time>2023-04-23T13:14:11.000Z</time>
      </trkpt>
      <trkpt lat="42.96975" lon="1.96194">
        <ele>406.4</ele>
        <time>2023-04-23T13:14:13.000Z</time>
      </trkpt>
      <trkpt lat="42.96975" lon="1.96186">
        <ele>406.2</ele>
        <time>2023-04-23T13:14:16.000Z</time>
      </trkpt>
      <trkpt lat="42.96974" lon="1.9618">
        <ele>406.1</ele>
        <time>2023-04-23T13:14:19.000Z</time>
      </trkpt>
      <trkpt lat="42.96973" lon="1.96173">
        <ele>406.1</ele>
        <time>2023-04-23T13:14:22.000Z</time>
      </trkpt>
      <trkpt lat="42.9697" lon="1.96167">
        <ele>405.7</ele>
        <time>2023-04-23T13:14:26.000Z</time>
      </trkpt>
      <trkpt lat="42.96965" lon="1.96164">
        <ele>405.1</ele>
        <time>2023-04-23T13:14:31.000Z</time>
      </trkpt>
      <trkpt lat="42.96962" lon="1.9616">
        <ele>404.7</ele>
        <time>2023-04-23T13:14:34.000Z</time>
      </trkpt>
      <trkpt lat="42.96957" lon="1.96156">
        <ele>404.1</ele>
        <time>2023-04-23T13:14:37.000Z</time>
      </trkpt>
      <trkpt lat="42.96953" lon="1.96151">
        <ele>404.1</ele>
        <time>2023-04-23T13:14:40.000Z</time>
      </trkpt>
      <trkpt lat="42.9695" lon="1.96147">
        <ele>404.4</ele>
        <time>2023-04-23T13:14:43.000Z</time>
      </trkpt>
      <trkpt lat="42.96945" lon="1.96143">
        <ele>404.4</ele>
        <time>2023-04-23T13:14:46.000Z</time>
      </trkpt>
      <trkpt lat="42.96941" lon="1.96138">
        <ele>404.2</ele>
        <time>2023-04-23T13:14:49.000Z</time>
      </trkpt>
      <trkpt lat="42.96936" lon="1.96134">
        <ele>403.9</ele>
        <time>2023-04-23T13:14:52.000Z</time>
      </trkpt>
      <trkpt lat="42.96932" lon="1.96129">
        <ele>403.4</ele>
        <time>2023-04-23T13:14:55.000Z</time>
      </trkpt>
      <trkpt lat="42.96929" lon="1.96123">
        <ele>402.8</ele>
        <time>2023-04-23T13:14:59.000Z</time>
      </trkpt>
      <trkpt lat="42.96925" lon="1.96119">
        <ele>402.1</ele>
        <time>2023-04-23T13:15:03.000Z</time>
      </trkpt>
      <trkpt lat="42.96921" lon="1.96115">
        <ele>401.6</ele>
        <time>2023-04-23T13:15:06.000Z</time>
      </trkpt>
      <trkpt lat="42.96918" lon="1.96109">
        <ele>401.2</ele>
        <time>2023-04-23T13:15:09.000Z</time>
      </trkpt>
      <trkpt lat="42.96917" lon="1.96103">
        <ele>401</ele>
        <time>2023-04-23T13:15:12.000Z</time>
      </trkpt>
      <trkpt lat="42.96915" lon="1.96096">
        <ele>400.7</ele>
        <time>2023-04-23T13:15:15.000Z</time>
      </trkpt>
      <trkpt lat="42.96912" lon="1.9609">
        <ele>400.3</ele>
        <time>2023-04-23T13:15:17.000Z</time>
      </trkpt>
      <trkpt lat="42.9691" lon="1.96082">
        <ele>399.7</ele>
        <time>2023-04-23T13:15:20.000Z</time>
      </trkpt>
      <trkpt lat="42.96908" lon="1.96074">
        <ele>399.2</ele>
        <time>2023-04-23T13:15:23.000Z</time>
      </trkpt>
      <trkpt lat="42.96905" lon="1.96067">
        <ele>398.7</ele>
        <time>2023-04-23T13:15:25.000Z</time>
      </trkpt>
      <trkpt lat="42.96904" lon="1.96058">
        <ele>398.6</ele>
        <time>2023-04-23T13:15:27.000Z</time>
      </trkpt>
      <trkpt lat="42.96901" lon="1.96049">
        <ele>398.8</ele>
        <time>2023-04-23T13:15:29.000Z</time>
      </trkpt>
      <trkpt lat="42.96897" lon="1.9604">
        <ele>399.2</ele>
        <time>2023-04-23T13:15:31.000Z</time>
      </trkpt>
      <trkpt lat="42.96894" lon="1.9603">
        <ele>399.6</ele>
        <time>2023-04-23T13:15:33.000Z</time>
      </trkpt>
      <trkpt lat="42.96891" lon="1.96021">
        <ele>399.8</ele>
        <time>2023-04-23T13:15:35.000Z</time>
      </trkpt>
      <trkpt lat="42.96887" lon="1.96012">
        <ele>400</ele>
        <time>2023-04-23T13:15:37.000Z</time>
      </trkpt>
      <trkpt lat="42.96884" lon="1.96005">
        <ele>400.2</ele>
        <time>2023-04-23T13:15:39.000Z</time>
      </trkpt>
      <trkpt lat="42.9688" lon="1.95997">
        <ele>400.5</ele>
        <time>2023-04-23T13:15:41.000Z</time>
      </trkpt>
      <trkpt lat="42.96877" lon="1.9599">
        <ele>400.8</ele>
        <time>2023-04-23T13:15:43.000Z</time>
      </trkpt>
      <trkpt lat="42.96874" lon="1.95982">
        <ele>401.4</ele>
        <time>2023-04-23T13:15:45.000Z</time>
      </trkpt>
      <trkpt lat="42.9687" lon="1.95975">
        <ele>402.5</ele>
        <time>2023-04-23T13:15:47.000Z</time>
      </trkpt>
      <trkpt lat="42.96864" lon="1.95967">
        <ele>403.8</ele>
        <time>2023-04-23T13:15:49.000Z</time>
      </trkpt>
      <trkpt lat="42.96858" lon="1.95959">
        <ele>405.4</ele>
        <time>2023-04-23T13:15:51.000Z</time>
      </trkpt>
      <trkpt lat="42.96854" lon="1.95955">
        <ele>406</ele>
        <time>2023-04-23T13:15:52.000Z</time>
      </trkpt>
      <trkpt lat="42.96847" lon="1.95948">
        <ele>407.1</ele>
        <time>2023-04-23T13:15:54.000Z</time>
      </trkpt>
      <trkpt lat="42.96841" lon="1.95942">
        <ele>408.2</ele>
        <time>2023-04-23T13:15:56.000Z</time>
      </trkpt>
      <trkpt lat="42.96836" lon="1.95937">
        <ele>409.1</ele>
        <time>2023-04-23T13:15:58.000Z</time>
      </trkpt>
      <trkpt lat="42.96832" lon="1.95933">
        <ele>409.8</ele>
        <time>2023-04-23T13:16:00.000Z</time>
      </trkpt>
      <trkpt lat="42.96828" lon="1.95929">
        <ele>410.3</ele>
        <time>2023-04-23T13:16:03.000Z</time>
      </trkpt>
      <trkpt lat="42.96824" lon="1.95925">
        <ele>410.5</ele>
        <time>2023-04-23T13:16:06.000Z</time>
      </trkpt>
      <trkpt lat="42.9682" lon="1.95921">
        <ele>410.5</ele>
        <time>2023-04-23T13:16:09.000Z</time>
      </trkpt>
      <trkpt lat="42.96816" lon="1.95917">
        <ele>410</ele>
        <time>2023-04-23T13:16:12.000Z</time>
      </trkpt>
      <trkpt lat="42.96812" lon="1.95911">
        <ele>409.3</ele>
        <time>2023-04-23T13:16:16.000Z</time>
      </trkpt>
      <trkpt lat="42.96809" lon="1.95906">
        <ele>408.8</ele>
        <time>2023-04-23T13:16:19.000Z</time>
      </trkpt>
      <trkpt lat="42.96806" lon="1.95902">
        <ele>408.4</ele>
        <time>2023-04-23T13:16:22.000Z</time>
      </trkpt>
      <trkpt lat="42.96802" lon="1.95897">
        <ele>408.1</ele>
        <time>2023-04-23T13:16:26.000Z</time>
      </trkpt>
      <trkpt lat="42.96798" lon="1.95893">
        <ele>407.8</ele>
        <time>2023-04-23T13:16:29.000Z</time>
      </trkpt>
      <trkpt lat="42.96794" lon="1.95889">
        <ele>407.4</ele>
        <time>2023-04-23T13:16:32.000Z</time>
      </trkpt>
      <trkpt lat="42.9679" lon="1.95884">
        <ele>407.1</ele>
        <time>2023-04-23T13:16:36.000Z</time>
      </trkpt>
      <trkpt lat="42.96785" lon="1.9588">
        <ele>407.1</ele>
        <time>2023-04-23T13:16:39.000Z</time>
      </trkpt>
      <trkpt lat="42.96782" lon="1.95875">
        <ele>407.1</ele>
        <time>2023-04-23T13:16:42.000Z</time>
      </trkpt>
      <trkpt lat="42.96779" lon="1.95868">
        <ele>407.4</ele>
        <time>2023-04-23T13:16:45.000Z</time>
      </trkpt>
      <trkpt lat="42.96779" lon="1.95861">
        <ele>407.4</ele>
        <time>2023-04-23T13:16:47.000Z</time>
      </trkpt>
      <trkpt lat="42.96779" lon="1.95855">
        <ele>407.3</ele>
        <time>2023-04-23T13:16:49.000Z</time>
      </trkpt>
      <trkpt lat="42.96782" lon="1.95849">
        <ele>407.1</ele>
        <time>2023-04-23T13:16:52.000Z</time>
      </trkpt>
      <trkpt lat="42.96786" lon="1.95846">
        <ele>406.7</ele>
        <time>2023-04-23T13:16:55.000Z</time>
      </trkpt>
      <trkpt lat="42.96788" lon="1.9584">
        <ele>406.9</ele>
        <time>2023-04-23T13:18:01.000Z</time>
      </trkpt>
      <trkpt lat="42.96793" lon="1.95834">
        <ele>407.1</ele>
        <time>2023-04-23T13:18:03.000Z</time>
      </trkpt>
      <trkpt lat="42.96797" lon="1.9583">
        <ele>407.8</ele>
        <time>2023-04-23T13:18:05.000Z</time>
      </trkpt>
      <trkpt lat="42.96802" lon="1.95826">
        <ele>408.5</ele>
        <time>2023-04-23T13:18:07.000Z</time>
      </trkpt>
      <trkpt lat="42.96806" lon="1.95822">
        <ele>409.3</ele>
        <time>2023-04-23T13:18:09.000Z</time>
      </trkpt>
      <trkpt lat="42.96809" lon="1.95818">
        <ele>410.2</ele>
        <time>2023-04-23T13:18:11.000Z</time>
      </trkpt>
      <trkpt lat="42.96813" lon="1.95814">
        <ele>411.2</ele>
        <time>2023-04-23T13:18:13.000Z</time>
      </trkpt>
      <trkpt lat="42.96818" lon="1.9581">
        <ele>412.4</ele>
        <time>2023-04-23T13:18:15.000Z</time>
      </trkpt>
      <trkpt lat="42.96822" lon="1.95806">
        <ele>413.1</ele>
        <time>2023-04-23T13:18:17.000Z</time>
      </trkpt>
      <trkpt lat="42.96827" lon="1.95802">
        <ele>413.3</ele>
        <time>2023-04-23T13:18:19.000Z</time>
      </trkpt>
      <trkpt lat="42.96831" lon="1.95797">
        <ele>413.7</ele>
        <time>2023-04-23T13:18:21.000Z</time>
      </trkpt>
      <trkpt lat="42.96836" lon="1.95792">
        <ele>414.2</ele>
        <time>2023-04-23T13:18:23.000Z</time>
      </trkpt>
      <trkpt lat="42.96839" lon="1.95786">
        <ele>413.9</ele>
        <time>2023-04-23T13:18:25.000Z</time>
      </trkpt>
      <trkpt lat="42.96843" lon="1.95781">
        <ele>413.7</ele>
        <time>2023-04-23T13:18:27.000Z</time>
      </trkpt>
      <trkpt lat="42.96846" lon="1.95775">
        <ele>413.7</ele>
        <time>2023-04-23T13:18:29.000Z</time>
      </trkpt>
      <trkpt lat="42.96849" lon="1.95768">
        <ele>413.2</ele>
        <time>2023-04-23T13:18:31.000Z</time>
      </trkpt>
      <trkpt lat="42.96852" lon="1.95761">
        <ele>412</ele>
        <time>2023-04-23T13:18:33.000Z</time>
      </trkpt>
      <trkpt lat="42.96855" lon="1.95753">
        <ele>410.2</ele>
        <time>2023-04-23T13:18:35.000Z</time>
      </trkpt>
      <trkpt lat="42.96858" lon="1.95746">
        <ele>408.8</ele>
        <time>2023-04-23T13:18:37.000Z</time>
      </trkpt>
      <trkpt lat="42.96861" lon="1.95738">
        <ele>407.7</ele>
        <time>2023-04-23T13:18:39.000Z</time>
      </trkpt>
      <trkpt lat="42.96863" lon="1.95731">
        <ele>407.6</ele>
        <time>2023-04-23T13:18:41.000Z</time>
      </trkpt>
      <trkpt lat="42.96866" lon="1.95724">
        <ele>407.4</ele>
        <time>2023-04-23T13:18:43.000Z</time>
      </trkpt>
      <trkpt lat="42.96869" lon="1.95717">
        <ele>406.8</ele>
        <time>2023-04-23T13:18:45.000Z</time>
      </trkpt>
      <trkpt lat="42.96874" lon="1.9571">
        <ele>405.5</ele>
        <time>2023-04-23T13:18:47.000Z</time>
      </trkpt>
      <trkpt lat="42.96879" lon="1.95703">
        <ele>404.8</ele>
        <time>2023-04-23T13:18:49.000Z</time>
      </trkpt>
      <trkpt lat="42.96884" lon="1.95698">
        <ele>404.4</ele>
        <time>2023-04-23T13:18:51.000Z</time>
      </trkpt>
      <trkpt lat="42.96889" lon="1.95694">
        <ele>403.9</ele>
        <time>2023-04-23T13:18:53.000Z</time>
      </trkpt>
      <trkpt lat="42.96895" lon="1.95691">
        <ele>403.3</ele>
        <time>2023-04-23T13:18:55.000Z</time>
      </trkpt>
      <trkpt lat="42.96901" lon="1.95689">
        <ele>402.6</ele>
        <time>2023-04-23T13:18:57.000Z</time>
      </trkpt>
      <trkpt lat="42.96907" lon="1.95686">
        <ele>402.2</ele>
        <time>2023-04-23T13:18:59.000Z</time>
      </trkpt>
      <trkpt lat="42.96912" lon="1.95684">
        <ele>402.2</ele>
        <time>2023-04-23T13:19:01.000Z</time>
      </trkpt>
      <trkpt lat="42.96917" lon="1.95681">
        <ele>402.1</ele>
        <time>2023-04-23T13:19:03.000Z</time>
      </trkpt>
      <trkpt lat="42.96924" lon="1.95677">
        <ele>402.1</ele>
        <time>2023-04-23T13:19:05.000Z</time>
      </trkpt>
      <trkpt lat="42.96929" lon="1.95675">
        <ele>402.3</ele>
        <time>2023-04-23T13:19:07.000Z</time>
      </trkpt>
      <trkpt lat="42.96934" lon="1.95673">
        <ele>402.4</ele>
        <time>2023-04-23T13:19:09.000Z</time>
      </trkpt>
      <trkpt lat="42.9694" lon="1.9567">
        <ele>402.3</ele>
        <time>2023-04-23T13:19:11.000Z</time>
      </trkpt>
      <trkpt lat="42.96947" lon="1.95667">
        <ele>402.4</ele>
        <time>2023-04-23T13:19:13.000Z</time>
      </trkpt>
      <trkpt lat="42.96955" lon="1.95665">
        <ele>402.6</ele>
        <time>2023-04-23T13:19:15.000Z</time>
      </trkpt>
      <trkpt lat="42.96962" lon="1.95661">
        <ele>402.9</ele>
        <time>2023-04-23T13:19:17.000Z</time>
      </trkpt>
      <trkpt lat="42.96969" lon="1.95658">
        <ele>403.6</ele>
        <time>2023-04-23T13:19:19.000Z</time>
      </trkpt>
      <trkpt lat="42.96976" lon="1.95655">
        <ele>404</ele>
        <time>2023-04-23T13:19:21.000Z</time>
      </trkpt>
      <trkpt lat="42.96981" lon="1.95653">
        <ele>404.5</ele>
        <time>2023-04-23T13:19:23.000Z</time>
      </trkpt>
      <trkpt lat="42.96987" lon="1.9565">
        <ele>405.3</ele>
        <time>2023-04-23T13:19:25.000Z</time>
      </trkpt>
      <trkpt lat="42.96994" lon="1.95647">
        <ele>406.7</ele>
        <time>2023-04-23T13:19:27.000Z</time>
      </trkpt>
      <trkpt lat="42.96999" lon="1.95645">
        <ele>407.8</ele>
        <time>2023-04-23T13:19:28.000Z</time>
      </trkpt>
      <trkpt lat="42.97003" lon="1.95643">
        <ele>408.7</ele>
        <time>2023-04-23T13:19:29.000Z</time>
      </trkpt>
      <trkpt lat="42.97009" lon="1.95641">
        <ele>409.8</ele>
        <time>2023-04-23T13:19:30.000Z</time>
      </trkpt>
      <trkpt lat="42.97014" lon="1.95639">
        <ele>410.9</ele>
        <time>2023-04-23T13:19:31.000Z</time>
      </trkpt>
      <trkpt lat="42.97019" lon="1.95637">
        <ele>411.6</ele>
        <time>2023-04-23T13:19:32.000Z</time>
      </trkpt>
      <trkpt lat="42.97023" lon="1.95635">
        <ele>412.1</ele>
        <time>2023-04-23T13:19:33.000Z</time>
      </trkpt>
      <trkpt lat="42.97028" lon="1.95633">
        <ele>412.6</ele>
        <time>2023-04-23T13:19:34.000Z</time>
      </trkpt>
      <trkpt lat="42.97033" lon="1.9563">
        <ele>413.2</ele>
        <time>2023-04-23T13:19:35.000Z</time>
      </trkpt>
      <trkpt lat="42.97038" lon="1.95628">
        <ele>413.7</ele>
        <time>2023-04-23T13:19:36.000Z</time>
      </trkpt>
      <trkpt lat="42.97045" lon="1.95625">
        <ele>414.1</ele>
        <time>2023-04-23T13:19:38.000Z</time>
      </trkpt>
      <trkpt lat="42.9705" lon="1.95623">
        <ele>414.2</ele>
        <time>2023-04-23T13:19:39.000Z</time>
      </trkpt>
      <trkpt lat="42.97054" lon="1.95622">
        <ele>414.3</ele>
        <time>2023-04-23T13:19:40.000Z</time>
      </trkpt>
      <trkpt lat="42.97062" lon="1.95618">
        <ele>414.3</ele>
        <time>2023-04-23T13:19:42.000Z</time>
      </trkpt>
      <trkpt lat="42.9707" lon="1.95616">
        <ele>414.2</ele>
        <time>2023-04-23T13:19:44.000Z</time>
      </trkpt>
      <trkpt lat="42.97075" lon="1.95614">
        <ele>413</ele>
        <time>2023-04-23T13:19:45.000Z</time>
      </trkpt>
      <trkpt lat="42.9708" lon="1.95613">
        <ele>412</ele>
        <time>2023-04-23T13:19:46.000Z</time>
      </trkpt>
      <trkpt lat="42.97085" lon="1.95611">
        <ele>411</ele>
        <time>2023-04-23T13:19:47.000Z</time>
      </trkpt>
      <trkpt lat="42.97089" lon="1.9561">
        <ele>410.1</ele>
        <time>2023-04-23T13:19:48.000Z</time>
      </trkpt>
      <trkpt lat="42.97097" lon="1.95607">
        <ele>408.6</ele>
        <time>2023-04-23T13:19:50.000Z</time>
      </trkpt>
      <trkpt lat="42.97102" lon="1.95601">
        <ele>407.5</ele>
        <time>2023-04-23T13:19:52.000Z</time>
      </trkpt>
      <trkpt lat="42.97104" lon="1.95594">
        <ele>407.1</ele>
        <time>2023-04-23T13:19:54.000Z</time>
      </trkpt>
      <trkpt lat="42.97109" lon="1.95593">
        <ele>405.7</ele>
        <time>2023-04-23T13:19:58.000Z</time>
      </trkpt>
      <trkpt lat="42.97115" lon="1.95592">
        <ele>404.3</ele>
        <time>2023-04-23T13:20:01.000Z</time>
      </trkpt>
      <trkpt lat="42.97121" lon="1.95591">
        <ele>403</ele>
        <time>2023-04-23T13:20:03.000Z</time>
      </trkpt>
      <trkpt lat="42.97129" lon="1.95588">
        <ele>402.2</ele>
        <time>2023-04-23T13:20:05.000Z</time>
      </trkpt>
      <trkpt lat="42.97133" lon="1.95583">
        <ele>402.1</ele>
        <time>2023-04-23T13:20:06.000Z</time>
      </trkpt>
      <trkpt lat="42.97139" lon="1.95577">
        <ele>401.8</ele>
        <time>2023-04-23T13:20:07.000Z</time>
      </trkpt>
      <trkpt lat="42.97144" lon="1.95571">
        <ele>401.6</ele>
        <time>2023-04-23T13:20:08.000Z</time>
      </trkpt>
      <trkpt lat="42.97148" lon="1.95566">
        <ele>401.3</ele>
        <time>2023-04-23T13:20:09.000Z</time>
      </trkpt>
      <trkpt lat="42.97151" lon="1.95556">
        <ele>401.1</ele>
        <time>2023-04-23T13:20:11.000Z</time>
      </trkpt>
      <trkpt lat="42.9715" lon="1.9555">
        <ele>401.1</ele>
        <time>2023-04-23T13:20:13.000Z</time>
      </trkpt>
      <trkpt lat="42.97151" lon="1.95542">
        <ele>401</ele>
        <time>2023-04-23T13:20:15.000Z</time>
      </trkpt>
      <trkpt lat="42.97153" lon="1.95534">
        <ele>400.4</ele>
        <time>2023-04-23T13:20:17.000Z</time>
      </trkpt>
      <trkpt lat="42.97154" lon="1.95524">
        <ele>399.7</ele>
        <time>2023-04-23T13:20:19.000Z</time>
      </trkpt>
      <trkpt lat="42.97155" lon="1.95513">
        <ele>399</ele>
        <time>2023-04-23T13:20:21.000Z</time>
      </trkpt>
      <trkpt lat="42.97155" lon="1.95503">
        <ele>398.6</ele>
        <time>2023-04-23T13:20:23.000Z</time>
      </trkpt>
      <trkpt lat="42.97154" lon="1.95494">
        <ele>398.3</ele>
        <time>2023-04-23T13:20:25.000Z</time>
      </trkpt>
      <trkpt lat="42.97151" lon="1.95488">
        <ele>397.9</ele>
        <time>2023-04-23T13:20:27.000Z</time>
      </trkpt>
      <trkpt lat="42.97146" lon="1.95487">
        <ele>397.5</ele>
        <time>2023-04-23T13:20:29.000Z</time>
      </trkpt>
      <trkpt lat="42.97141" lon="1.95489">
        <ele>397.3</ele>
        <time>2023-04-23T13:20:31.000Z</time>
      </trkpt>
      <trkpt lat="42.97135" lon="1.95493">
        <ele>397.3</ele>
        <time>2023-04-23T13:20:33.000Z</time>
      </trkpt>
      <trkpt lat="42.97129" lon="1.95497">
        <ele>397.4</ele>
        <time>2023-04-23T13:20:35.000Z</time>
      </trkpt>
      <trkpt lat="42.97122" lon="1.955">
        <ele>397.2</ele>
        <time>2023-04-23T13:20:37.000Z</time>
      </trkpt>
      <trkpt lat="42.97115" lon="1.95501">
        <ele>396.5</ele>
        <time>2023-04-23T13:20:39.000Z</time>
      </trkpt>
      <trkpt lat="42.97108" lon="1.95498">
        <ele>395.5</ele>
        <time>2023-04-23T13:20:41.000Z</time>
      </trkpt>
      <trkpt lat="42.97103" lon="1.95492">
        <ele>394.7</ele>
        <time>2023-04-23T13:20:43.000Z</time>
      </trkpt>
      <trkpt lat="42.97098" lon="1.95487">
        <ele>394.1</ele>
        <time>2023-04-23T13:20:45.000Z</time>
      </trkpt>
      <trkpt lat="42.97093" lon="1.9548">
        <ele>394.9</ele>
        <time>2023-04-23T13:20:47.000Z</time>
      </trkpt>
      <trkpt lat="42.97089" lon="1.95472">
        <ele>395.6</ele>
        <time>2023-04-23T13:20:49.000Z</time>
      </trkpt>
      <trkpt lat="42.97084" lon="1.95465">
        <ele>396.2</ele>
        <time>2023-04-23T13:20:51.000Z</time>
      </trkpt>
      <trkpt lat="42.9708" lon="1.95457">
        <ele>396.7</ele>
        <time>2023-04-23T13:20:53.000Z</time>
      </trkpt>
      <trkpt lat="42.97078" lon="1.95451">
        <ele>396.9</ele>
        <time>2023-04-23T13:20:55.000Z</time>
      </trkpt>
      <trkpt lat="42.97076" lon="1.95444">
        <ele>397</ele>
        <time>2023-04-23T13:20:57.000Z</time>
      </trkpt>
      <trkpt lat="42.97073" lon="1.95437">
        <ele>397.1</ele>
        <time>2023-04-23T13:20:59.000Z</time>
      </trkpt>
      <trkpt lat="42.97068" lon="1.95431">
        <ele>397.1</ele>
        <time>2023-04-23T13:21:01.000Z</time>
      </trkpt>
      <trkpt lat="42.97062" lon="1.95427">
        <ele>397.7</ele>
        <time>2023-04-23T13:21:03.000Z</time>
      </trkpt>
      <trkpt lat="42.97056" lon="1.95426">
        <ele>398.2</ele>
        <time>2023-04-23T13:21:05.000Z</time>
      </trkpt>
      <trkpt lat="42.97049" lon="1.95424">
        <ele>399</ele>
        <time>2023-04-23T13:21:08.000Z</time>
      </trkpt>
      <trkpt lat="42.97044" lon="1.95423">
        <ele>399.5</ele>
        <time>2023-04-23T13:21:10.000Z</time>
      </trkpt>
      <trkpt lat="42.97039" lon="1.95423">
        <ele>399.9</ele>
        <time>2023-04-23T13:21:12.000Z</time>
      </trkpt>
      <trkpt lat="42.97033" lon="1.95424">
        <ele>400.4</ele>
        <time>2023-04-23T13:21:15.000Z</time>
      </trkpt>
      <trkpt lat="42.97028" lon="1.95429">
        <ele>401</ele>
        <time>2023-04-23T13:21:17.000Z</time>
      </trkpt>
      <trkpt lat="42.97023" lon="1.95436">
        <ele>401.2</ele>
        <time>2023-04-23T13:21:19.000Z</time>
      </trkpt>
      <trkpt lat="42.97019" lon="1.95443">
        <ele>401.3</ele>
        <time>2023-04-23T13:21:21.000Z</time>
      </trkpt>
      <trkpt lat="42.97014" lon="1.95449">
        <ele>401.3</ele>
        <time>2023-04-23T13:21:23.000Z</time>
      </trkpt>
      <trkpt lat="42.97009" lon="1.95455">
        <ele>400.5</ele>
        <time>2023-04-23T13:21:25.000Z</time>
      </trkpt>
      <trkpt lat="42.97003" lon="1.95458">
        <ele>399.8</ele>
        <time>2023-04-23T13:21:27.000Z</time>
      </trkpt>
      <trkpt lat="42.96996" lon="1.95459">
        <ele>399.1</ele>
        <time>2023-04-23T13:21:29.000Z</time>
      </trkpt>
      <trkpt lat="42.9699" lon="1.95461">
        <ele>398.7</ele>
        <time>2023-04-23T13:21:31.000Z</time>
      </trkpt>
      <trkpt lat="42.96984" lon="1.95465">
        <ele>398.7</ele>
        <time>2023-04-23T13:21:34.000Z</time>
      </trkpt>
      <trkpt lat="42.9698" lon="1.95467">
        <ele>398.8</ele>
        <time>2023-04-23T13:21:36.000Z</time>
      </trkpt>
      <trkpt lat="42.96973" lon="1.9547">
        <ele>398.8</ele>
        <time>2023-04-23T13:21:39.000Z</time>
      </trkpt>
      <trkpt lat="42.96969" lon="1.95473">
        <ele>398.9</ele>
        <time>2023-04-23T13:21:40.000Z</time>
      </trkpt>
      <trkpt lat="42.96962" lon="1.95472">
        <ele>398.6</ele>
        <time>2023-04-23T13:21:42.000Z</time>
      </trkpt>
      <trkpt lat="42.96956" lon="1.95475">
        <ele>398.4</ele>
        <time>2023-04-23T13:21:44.000Z</time>
      </trkpt>
      <trkpt lat="42.9695" lon="1.95477">
        <ele>398.2</ele>
        <time>2023-04-23T13:21:46.000Z</time>
      </trkpt>
      <trkpt lat="42.96945" lon="1.95477">
        <ele>397.9</ele>
        <time>2023-04-23T13:21:48.000Z</time>
      </trkpt>
      <trkpt lat="42.96941" lon="1.95474">
        <ele>397.6</ele>
        <time>2023-04-23T13:21:50.000Z</time>
      </trkpt>
      <trkpt lat="42.96937" lon="1.95469">
        <ele>397.3</ele>
        <time>2023-04-23T13:21:52.000Z</time>
      </trkpt>
      <trkpt lat="42.96936" lon="1.95463">
        <ele>397.2</ele>
        <time>2023-04-23T13:21:54.000Z</time>
      </trkpt>
      <trkpt lat="42.96935" lon="1.95454">
        <ele>397.2</ele>
        <time>2023-04-23T13:21:57.000Z</time>
      </trkpt>
      <trkpt lat="42.96936" lon="1.95446">
        <ele>397.4</ele>
        <time>2023-04-23T13:22:00.000Z</time>
      </trkpt>
      <trkpt lat="42.96937" lon="1.9544">
        <ele>397.5</ele>
        <time>2023-04-23T13:22:02.000Z</time>
      </trkpt>
      <trkpt lat="42.96938" lon="1.95431">
        <ele>397.5</ele>
        <time>2023-04-23T13:22:05.000Z</time>
      </trkpt>
      <trkpt lat="42.96939" lon="1.95424">
        <ele>397.6</ele>
        <time>2023-04-23T13:22:08.000Z</time>
      </trkpt>
      <trkpt lat="42.96942" lon="1.95416">
        <ele>397.7</ele>
        <time>2023-04-23T13:22:11.000Z</time>
      </trkpt>
      <trkpt lat="42.96944" lon="1.95407">
        <ele>397.9</ele>
        <time>2023-04-23T13:22:14.000Z</time>
      </trkpt>
      <trkpt lat="42.96945" lon="1.95401">
        <ele>397.9</ele>
        <time>2023-04-23T13:22:16.000Z</time>
      </trkpt>
      <trkpt lat="42.96948" lon="1.95394">
        <ele>397.4</ele>
        <time>2023-04-23T13:22:18.000Z</time>
      </trkpt>
      <trkpt lat="42.96948" lon="1.95386">
        <ele>397.1</ele>
        <time>2023-04-23T13:22:20.000Z</time>
      </trkpt>
      <trkpt lat="42.96949" lon="1.95379">
        <ele>396.8</ele>
        <time>2023-04-23T13:22:22.000Z</time>
      </trkpt>
      <trkpt lat="42.96951" lon="1.95372">
        <ele>396.4</ele>
        <time>2023-04-23T13:22:24.000Z</time>
      </trkpt>
      <trkpt lat="42.96952" lon="1.95365">
        <ele>396</ele>
        <time>2023-04-23T13:22:26.000Z</time>
      </trkpt>
      <trkpt lat="42.96953" lon="1.95356">
        <ele>395.4</ele>
        <time>2023-04-23T13:22:29.000Z</time>
      </trkpt>
      <trkpt lat="42.96953" lon="1.95349">
        <ele>395.1</ele>
        <time>2023-04-23T13:22:31.000Z</time>
      </trkpt>
      <trkpt lat="42.96953" lon="1.95342">
        <ele>395</ele>
        <time>2023-04-23T13:22:33.000Z</time>
      </trkpt>
      <trkpt lat="42.96954" lon="1.95335">
        <ele>394.9</ele>
        <time>2023-04-23T13:22:35.000Z</time>
      </trkpt>
      <trkpt lat="42.96955" lon="1.95328">
        <ele>394.9</ele>
        <time>2023-04-23T13:22:37.000Z</time>
      </trkpt>
      <trkpt lat="42.96955" lon="1.95321">
        <ele>394.9</ele>
        <time>2023-04-23T13:22:39.000Z</time>
      </trkpt>
      <trkpt lat="42.96951" lon="1.95315">
        <ele>394.8</ele>
        <time>2023-04-23T13:22:42.000Z</time>
      </trkpt>
      <trkpt lat="42.96946" lon="1.95315">
        <ele>394.5</ele>
        <time>2023-04-23T13:22:44.000Z</time>
      </trkpt>
      <trkpt lat="42.96941" lon="1.95317">
        <ele>394.4</ele>
        <time>2023-04-23T13:22:46.000Z</time>
      </trkpt>
      <trkpt lat="42.96936" lon="1.95319">
        <ele>394.2</ele>
        <time>2023-04-23T13:22:48.000Z</time>
      </trkpt>
      <trkpt lat="42.96931" lon="1.95321">
        <ele>394.1</ele>
        <time>2023-04-23T13:22:50.000Z</time>
      </trkpt>
      <trkpt lat="42.96926" lon="1.95324">
        <ele>394.6</ele>
        <time>2023-04-23T13:22:53.000Z</time>
      </trkpt>
      <trkpt lat="42.9692" lon="1.95323">
        <ele>395.1</ele>
        <time>2023-04-23T13:22:56.000Z</time>
      </trkpt>
      <trkpt lat="42.96918" lon="1.95315">
        <ele>394.6</ele>
        <time>2023-04-23T13:22:58.000Z</time>
      </trkpt>
      <trkpt lat="42.96918" lon="1.95304">
        <ele>393.9</ele>
        <time>2023-04-23T13:23:00.000Z</time>
      </trkpt>
      <trkpt lat="42.96918" lon="1.95295">
        <ele>393.3</ele>
        <time>2023-04-23T13:23:02.000Z</time>
      </trkpt>
      <trkpt lat="42.96919" lon="1.95287">
        <ele>393.1</ele>
        <time>2023-04-23T13:23:04.000Z</time>
      </trkpt>
      <trkpt lat="42.96919" lon="1.95279">
        <ele>393.2</ele>
        <time>2023-04-23T13:23:06.000Z</time>
      </trkpt>
      <trkpt lat="42.96919" lon="1.95272">
        <ele>393.2</ele>
        <time>2023-04-23T13:23:08.000Z</time>
      </trkpt>
      <trkpt lat="42.96919" lon="1.95266">
        <ele>393.2</ele>
        <time>2023-04-23T13:23:10.000Z</time>
      </trkpt>
      <trkpt lat="42.96918" lon="1.95259">
        <ele>393</ele>
        <time>2023-04-23T13:23:13.000Z</time>
      </trkpt>
      <trkpt lat="42.96918" lon="1.9525">
        <ele>392.9</ele>
        <time>2023-04-23T13:23:16.000Z</time>
      </trkpt>
      <trkpt lat="42.96917" lon="1.95244">
        <ele>392.6</ele>
        <time>2023-04-23T13:23:18.000Z</time>
      </trkpt>
      <trkpt lat="42.96917" lon="1.95236">
        <ele>392.5</ele>
        <time>2023-04-23T13:23:21.000Z</time>
      </trkpt>
      <trkpt lat="42.96917" lon="1.95228">
        <ele>392.6</ele>
        <time>2023-04-23T13:23:24.000Z</time>
      </trkpt>
      <trkpt lat="42.96917" lon="1.9522">
        <ele>392.8</ele>
        <time>2023-04-23T13:23:27.000Z</time>
      </trkpt>
      <trkpt lat="42.96917" lon="1.95212">
        <ele>393</ele>
        <time>2023-04-23T13:23:30.000Z</time>
      </trkpt>
      <trkpt lat="42.96918" lon="1.95203">
        <ele>393.2</ele>
        <time>2023-04-23T13:23:33.000Z</time>
      </trkpt>
      <trkpt lat="42.96918" lon="1.95196">
        <ele>393.2</ele>
        <time>2023-04-23T13:23:35.000Z</time>
      </trkpt>
      <trkpt lat="42.96918" lon="1.9519">
        <ele>393.2</ele>
        <time>2023-04-23T13:23:37.000Z</time>
      </trkpt>
      <trkpt lat="42.96919" lon="1.95183">
        <ele>393.3</ele>
        <time>2023-04-23T13:23:39.000Z</time>
      </trkpt>
      <trkpt lat="42.96919" lon="1.95176">
        <ele>393.4</ele>
        <time>2023-04-23T13:23:41.000Z</time>
      </trkpt>
      <trkpt lat="42.9692" lon="1.9517">
        <ele>393.7</ele>
        <time>2023-04-23T13:23:43.000Z</time>
      </trkpt>
      <trkpt lat="42.9692" lon="1.95163">
        <ele>393.7</ele>
        <time>2023-04-23T13:23:45.000Z</time>
      </trkpt>
      <trkpt lat="42.96921" lon="1.95155">
        <ele>393.9</ele>
        <time>2023-04-23T13:23:47.000Z</time>
      </trkpt>
      <trkpt lat="42.96921" lon="1.95148">
        <ele>394.3</ele>
        <time>2023-04-23T13:23:49.000Z</time>
      </trkpt>
      <trkpt lat="42.96922" lon="1.95141">
        <ele>394.9</ele>
        <time>2023-04-23T13:23:51.000Z</time>
      </trkpt>
      <trkpt lat="42.96922" lon="1.95133">
        <ele>395.5</ele>
        <time>2023-04-23T13:23:53.000Z</time>
      </trkpt>
      <trkpt lat="42.96923" lon="1.95126">
        <ele>396.1</ele>
        <time>2023-04-23T13:23:55.000Z</time>
      </trkpt>
      <trkpt lat="42.96923" lon="1.95118">
        <ele>396.2</ele>
        <time>2023-04-23T13:23:57.000Z</time>
      </trkpt>
      <trkpt lat="42.96924" lon="1.9511">
        <ele>396.2</ele>
        <time>2023-04-23T13:24:00.000Z</time>
      </trkpt>
      <trkpt lat="42.96925" lon="1.95101">
        <ele>396.2</ele>
        <time>2023-04-23T13:24:03.000Z</time>
      </trkpt>
      <trkpt lat="42.96925" lon="1.95093">
        <ele>396.2</ele>
        <time>2023-04-23T13:24:06.000Z</time>
      </trkpt>
      <trkpt lat="42.96928" lon="1.95087">
        <ele>395.8</ele>
        <time>2023-04-23T13:24:21.000Z</time>
      </trkpt>
      <trkpt lat="42.96929" lon="1.9508">
        <ele>395.6</ele>
        <time>2023-04-23T13:24:23.000Z</time>
      </trkpt>
      <trkpt lat="42.96929" lon="1.95073">
        <ele>395.4</ele>
        <time>2023-04-23T13:24:25.000Z</time>
      </trkpt>
      <trkpt lat="42.96928" lon="1.95067">
        <ele>396</ele>
        <time>2023-04-23T13:24:27.000Z</time>
      </trkpt>
      <trkpt lat="42.96928" lon="1.95059">
        <ele>397.9</ele>
        <time>2023-04-23T13:24:29.000Z</time>
      </trkpt>
      <trkpt lat="42.96928" lon="1.95052">
        <ele>399.8</ele>
        <time>2023-04-23T13:24:31.000Z</time>
      </trkpt>
      <trkpt lat="42.96928" lon="1.95044">
        <ele>401.7</ele>
        <time>2023-04-23T13:24:33.000Z</time>
      </trkpt>
      <trkpt lat="42.96928" lon="1.95036">
        <ele>401.8</ele>
        <time>2023-04-23T13:24:35.000Z</time>
      </trkpt>
      <trkpt lat="42.96929" lon="1.95029">
        <ele>401.3</ele>
        <time>2023-04-23T13:24:37.000Z</time>
      </trkpt>
      <trkpt lat="42.96931" lon="1.95021">
        <ele>400.6</ele>
        <time>2023-04-23T13:24:39.000Z</time>
      </trkpt>
      <trkpt lat="42.96932" lon="1.95015">
        <ele>400.3</ele>
        <time>2023-04-23T13:24:41.000Z</time>
      </trkpt>
      <trkpt lat="42.96934" lon="1.95008">
        <ele>400.1</ele>
        <time>2023-04-23T13:24:43.000Z</time>
      </trkpt>
      <trkpt lat="42.96934" lon="1.95002">
        <ele>399.7</ele>
        <time>2023-04-23T13:24:45.000Z</time>
      </trkpt>
      <trkpt lat="42.96933" lon="1.94994">
        <ele>399.4</ele>
        <time>2023-04-23T13:25:08.000Z</time>
      </trkpt>
      <trkpt lat="42.96933" lon="1.94983">
        <ele>399.1</ele>
        <time>2023-04-23T13:25:10.000Z</time>
      </trkpt>
      <trkpt lat="42.96933" lon="1.94975">
        <ele>399.3</ele>
        <time>2023-04-23T13:25:12.000Z</time>
      </trkpt>
      <trkpt lat="42.96933" lon="1.94967">
        <ele>399.5</ele>
        <time>2023-04-23T13:25:15.000Z</time>
      </trkpt>
      <trkpt lat="42.96935" lon="1.94959">
        <ele>399.5</ele>
        <time>2023-04-23T13:25:18.000Z</time>
      </trkpt>
      <trkpt lat="42.96939" lon="1.94955">
        <ele>399.3</ele>
        <time>2023-04-23T13:25:20.000Z</time>
      </trkpt>
      <trkpt lat="42.96943" lon="1.94951">
        <ele>399</ele>
        <time>2023-04-23T13:25:22.000Z</time>
      </trkpt>
      <trkpt lat="42.96945" lon="1.94945">
        <ele>398.8</ele>
        <time>2023-04-23T13:25:24.000Z</time>
      </trkpt>
      <trkpt lat="42.9695" lon="1.94941">
        <ele>398.3</ele>
        <time>2023-04-23T13:25:26.000Z</time>
      </trkpt>
      <trkpt lat="42.96954" lon="1.94941">
        <ele>397.6</ele>
        <time>2023-04-23T13:25:29.000Z</time>
      </trkpt>
      <trkpt lat="42.96959" lon="1.94943">
        <ele>397</ele>
        <time>2023-04-23T13:25:32.000Z</time>
      </trkpt>
      <trkpt lat="42.96965" lon="1.94946">
        <ele>397.2</ele>
        <time>2023-04-23T13:25:35.000Z</time>
      </trkpt>
      <trkpt lat="42.9697" lon="1.94949">
        <ele>397.4</ele>
        <time>2023-04-23T13:25:37.000Z</time>
      </trkpt>
      <trkpt lat="42.96975" lon="1.94952">
        <ele>397.6</ele>
        <time>2023-04-23T13:25:39.000Z</time>
      </trkpt>
      <trkpt lat="42.96982" lon="1.94954">
        <ele>397.8</ele>
        <time>2023-04-23T13:25:41.000Z</time>
      </trkpt>
      <trkpt lat="42.96987" lon="1.94955">
        <ele>398</ele>
        <time>2023-04-23T13:25:43.000Z</time>
      </trkpt>
      <trkpt lat="42.96995" lon="1.94959">
        <ele>398.4</ele>
        <time>2023-04-23T13:25:45.000Z</time>
      </trkpt>
      <trkpt lat="42.97" lon="1.94961">
        <ele>398.7</ele>
        <time>2023-04-23T13:25:46.000Z</time>
      </trkpt>
      <trkpt lat="42.97005" lon="1.94963">
        <ele>399.1</ele>
        <time>2023-04-23T13:25:47.000Z</time>
      </trkpt>
      <trkpt lat="42.9701" lon="1.94966">
        <ele>399.4</ele>
        <time>2023-04-23T13:25:48.000Z</time>
      </trkpt>
      <trkpt lat="42.97014" lon="1.94969">
        <ele>399.7</ele>
        <time>2023-04-23T13:25:49.000Z</time>
      </trkpt>
      <trkpt lat="42.97019" lon="1.94971">
        <ele>399.3</ele>
        <time>2023-04-23T13:25:50.000Z</time>
      </trkpt>
      <trkpt lat="42.97024" lon="1.94973">
        <ele>398.8</ele>
        <time>2023-04-23T13:25:51.000Z</time>
      </trkpt>
      <trkpt lat="42.97032" lon="1.94977">
        <ele>398</ele>
        <time>2023-04-23T13:25:53.000Z</time>
      </trkpt>
      <trkpt lat="42.9704" lon="1.94981">
        <ele>397.1</ele>
        <time>2023-04-23T13:25:55.000Z</time>
      </trkpt>
      <trkpt lat="42.97045" lon="1.94984">
        <ele>397</ele>
        <time>2023-04-23T13:25:56.000Z</time>
      </trkpt>
      <trkpt lat="42.9705" lon="1.94987">
        <ele>397.3</ele>
        <time>2023-04-23T13:25:57.000Z</time>
      </trkpt>
      <trkpt lat="42.97057" lon="1.94993">
        <ele>397.9</ele>
        <time>2023-04-23T13:25:59.000Z</time>
      </trkpt>
      <trkpt lat="42.97065" lon="1.95">
        <ele>398.7</ele>
        <time>2023-04-23T13:26:01.000Z</time>
      </trkpt>
      <trkpt lat="42.97071" lon="1.95007">
        <ele>399.4</ele>
        <time>2023-04-23T13:26:03.000Z</time>
      </trkpt>
      <trkpt lat="42.97078" lon="1.95013">
        <ele>399.4</ele>
        <time>2023-04-23T13:26:05.000Z</time>
      </trkpt>
      <trkpt lat="42.97084" lon="1.95019">
        <ele>398.9</ele>
        <time>2023-04-23T13:26:07.000Z</time>
      </trkpt>
      <trkpt lat="42.9709" lon="1.95023">
        <ele>398.3</ele>
        <time>2023-04-23T13:26:09.000Z</time>
      </trkpt>
      <trkpt lat="42.97097" lon="1.95027">
        <ele>397.5</ele>
        <time>2023-04-23T13:26:11.000Z</time>
      </trkpt>
      <trkpt lat="42.97103" lon="1.95032">
        <ele>396.8</ele>
        <time>2023-04-23T13:26:13.000Z</time>
      </trkpt>
      <trkpt lat="42.97109" lon="1.95037">
        <ele>396.4</ele>
        <time>2023-04-23T13:26:15.000Z</time>
      </trkpt>
      <trkpt lat="42.97114" lon="1.95042">
        <ele>396.5</ele>
        <time>2023-04-23T13:26:17.000Z</time>
      </trkpt>
      <trkpt lat="42.97119" lon="1.95048">
        <ele>397.1</ele>
        <time>2023-04-23T13:26:19.000Z</time>
      </trkpt>
      <trkpt lat="42.97124" lon="1.95053">
        <ele>397.6</ele>
        <time>2023-04-23T13:26:21.000Z</time>
      </trkpt>
      <trkpt lat="42.97131" lon="1.95057">
        <ele>397.5</ele>
        <time>2023-04-23T13:26:23.000Z</time>
      </trkpt>
      <trkpt lat="42.97138" lon="1.9506">
        <ele>397.1</ele>
        <time>2023-04-23T13:26:25.000Z</time>
      </trkpt>
      <trkpt lat="42.97144" lon="1.95062">
        <ele>396.6</ele>
        <time>2023-04-23T13:26:27.000Z</time>
      </trkpt>
      <trkpt lat="42.97149" lon="1.95066">
        <ele>396.3</ele>
        <time>2023-04-23T13:26:29.000Z</time>
      </trkpt>
      <trkpt lat="42.97154" lon="1.9507">
        <ele>396.3</ele>
        <time>2023-04-23T13:26:31.000Z</time>
      </trkpt>
      <trkpt lat="42.97161" lon="1.95074">
        <ele>399</ele>
        <time>2023-04-23T13:26:33.000Z</time>
      </trkpt>
      <trkpt lat="42.97168" lon="1.95081">
        <ele>401</ele>
        <time>2023-04-23T13:26:35.000Z</time>
      </trkpt>
      <trkpt lat="42.97176" lon="1.95084">
        <ele>402</ele>
        <time>2023-04-23T13:26:37.000Z</time>
      </trkpt>
      <trkpt lat="42.97183" lon="1.95087">
        <ele>402.1</ele>
        <time>2023-04-23T13:26:39.000Z</time>
      </trkpt>
      <trkpt lat="42.9719" lon="1.95091">
        <ele>401.5</ele>
        <time>2023-04-23T13:26:41.000Z</time>
      </trkpt>
      <trkpt lat="42.97196" lon="1.95094">
        <ele>401</ele>
        <time>2023-04-23T13:26:43.000Z</time>
      </trkpt>
      <trkpt lat="42.97202" lon="1.95097">
        <ele>400.3</ele>
        <time>2023-04-23T13:26:45.000Z</time>
      </trkpt>
      <trkpt lat="42.97208" lon="1.95101">
        <ele>399.9</ele>
        <time>2023-04-23T13:26:47.000Z</time>
      </trkpt>
      <trkpt lat="42.97215" lon="1.95106">
        <ele>400.9</ele>
        <time>2023-04-23T13:26:49.000Z</time>
      </trkpt>
      <trkpt lat="42.97221" lon="1.95111">
        <ele>402.1</ele>
        <time>2023-04-23T13:26:51.000Z</time>
      </trkpt>
      <trkpt lat="42.97228" lon="1.95115">
        <ele>403.1</ele>
        <time>2023-04-23T13:26:53.000Z</time>
      </trkpt>
      <trkpt lat="42.97235" lon="1.95118">
        <ele>404.2</ele>
        <time>2023-04-23T13:26:55.000Z</time>
      </trkpt>
      <trkpt lat="42.9724" lon="1.95122">
        <ele>404.8</ele>
        <time>2023-04-23T13:26:57.000Z</time>
      </trkpt>
      <trkpt lat="42.97246" lon="1.95126">
        <ele>405.6</ele>
        <time>2023-04-23T13:26:59.000Z</time>
      </trkpt>
      <trkpt lat="42.97253" lon="1.9513">
        <ele>406.2</ele>
        <time>2023-04-23T13:27:01.000Z</time>
      </trkpt>
      <trkpt lat="42.9726" lon="1.95135">
        <ele>406.6</ele>
        <time>2023-04-23T13:27:03.000Z</time>
      </trkpt>
      <trkpt lat="42.97267" lon="1.95138">
        <ele>406</ele>
        <time>2023-04-23T13:27:05.000Z</time>
      </trkpt>
      <trkpt lat="42.97272" lon="1.95142">
        <ele>404.3</ele>
        <time>2023-04-23T13:27:07.000Z</time>
      </trkpt>
      <trkpt lat="42.97278" lon="1.95147">
        <ele>403.4</ele>
        <time>2023-04-23T13:27:09.000Z</time>
      </trkpt>
      <trkpt lat="42.97283" lon="1.95153">
        <ele>403.3</ele>
        <time>2023-04-23T13:27:11.000Z</time>
      </trkpt>
      <trkpt lat="42.97289" lon="1.95159">
        <ele>403.3</ele>
        <time>2023-04-23T13:27:13.000Z</time>
      </trkpt>
      <trkpt lat="42.97295" lon="1.95165">
        <ele>402.9</ele>
        <time>2023-04-23T13:27:15.000Z</time>
      </trkpt>
      <trkpt lat="42.973" lon="1.95168">
        <ele>402.1</ele>
        <time>2023-04-23T13:27:17.000Z</time>
      </trkpt>
      <trkpt lat="42.97306" lon="1.95168">
        <ele>400.9</ele>
        <time>2023-04-23T13:27:19.000Z</time>
      </trkpt>
      <trkpt lat="42.97315" lon="1.95165">
        <ele>399.2</ele>
        <time>2023-04-23T13:27:21.000Z</time>
      </trkpt>
      <trkpt lat="42.97319" lon="1.95163">
        <ele>398.2</ele>
        <time>2023-04-23T13:27:22.000Z</time>
      </trkpt>
      <trkpt lat="42.97327" lon="1.95159">
        <ele>395.8</ele>
        <time>2023-04-23T13:27:24.000Z</time>
      </trkpt>
      <trkpt lat="42.97334" lon="1.95155">
        <ele>393.9</ele>
        <time>2023-04-23T13:27:26.000Z</time>
      </trkpt>
      <trkpt lat="42.97341" lon="1.95151">
        <ele>392.4</ele>
        <time>2023-04-23T13:27:28.000Z</time>
      </trkpt>
      <trkpt lat="42.97348" lon="1.9515">
        <ele>391.3</ele>
        <time>2023-04-23T13:27:30.000Z</time>
      </trkpt>
      <trkpt lat="42.97354" lon="1.95148">
        <ele>391.8</ele>
        <time>2023-04-23T13:27:32.000Z</time>
      </trkpt>
      <trkpt lat="42.9736" lon="1.95148">
        <ele>392.3</ele>
        <time>2023-04-23T13:27:34.000Z</time>
      </trkpt>
      <trkpt lat="42.97367" lon="1.9515">
        <ele>392.6</ele>
        <time>2023-04-23T13:27:36.000Z</time>
      </trkpt>
      <trkpt lat="42.97372" lon="1.95147">
        <ele>393.2</ele>
        <time>2023-04-23T13:27:38.000Z</time>
      </trkpt>
      <trkpt lat="42.97377" lon="1.95146">
        <ele>393.8</ele>
        <time>2023-04-23T13:27:42.000Z</time>
      </trkpt>
      <trkpt lat="42.97383" lon="1.95151">
        <ele>394.7</ele>
        <time>2023-04-23T13:28:56.000Z</time>
      </trkpt>
      <trkpt lat="42.97389" lon="1.95155">
        <ele>395.4</ele>
        <time>2023-04-23T13:28:58.000Z</time>
      </trkpt>
      <trkpt lat="42.97393" lon="1.95158">
        <ele>396.1</ele>
        <time>2023-04-23T13:29:00.000Z</time>
      </trkpt>
      <trkpt lat="42.97399" lon="1.9516">
        <ele>397.1</ele>
        <time>2023-04-23T13:29:02.000Z</time>
      </trkpt>
      <trkpt lat="42.97406" lon="1.95162">
        <ele>398</ele>
        <time>2023-04-23T13:29:04.000Z</time>
      </trkpt>
      <trkpt lat="42.97412" lon="1.95163">
        <ele>398.6</ele>
        <time>2023-04-23T13:29:06.000Z</time>
      </trkpt>
      <trkpt lat="42.9742" lon="1.95161">
        <ele>399.3</ele>
        <time>2023-04-23T13:29:08.000Z</time>
      </trkpt>
      <trkpt lat="42.97427" lon="1.95158">
        <ele>400.2</ele>
        <time>2023-04-23T13:29:10.000Z</time>
      </trkpt>
      <trkpt lat="42.97432" lon="1.95155">
        <ele>400.9</ele>
        <time>2023-04-23T13:29:12.000Z</time>
      </trkpt>
      <trkpt lat="42.97438" lon="1.95149">
        <ele>401.4</ele>
        <time>2023-04-23T13:29:14.000Z</time>
      </trkpt>
      <trkpt lat="42.97444" lon="1.95144">
        <ele>402</ele>
        <time>2023-04-23T13:29:16.000Z</time>
      </trkpt>
      <trkpt lat="42.97451" lon="1.95138">
        <ele>402.6</ele>
        <time>2023-04-23T13:29:18.000Z</time>
      </trkpt>
      <trkpt lat="42.97457" lon="1.95134">
        <ele>403</ele>
        <time>2023-04-23T13:29:20.000Z</time>
      </trkpt>
      <trkpt lat="42.97464" lon="1.95129">
        <ele>403.5</ele>
        <time>2023-04-23T13:29:22.000Z</time>
      </trkpt>
      <trkpt lat="42.97469" lon="1.95123">
        <ele>404.4</ele>
        <time>2023-04-23T13:29:24.000Z</time>
      </trkpt>
      <trkpt lat="42.97477" lon="1.95115">
        <ele>405.8</ele>
        <time>2023-04-23T13:29:26.000Z</time>
      </trkpt>
      <trkpt lat="42.97481" lon="1.95108">
        <ele>407.1</ele>
        <time>2023-04-23T13:29:27.000Z</time>
      </trkpt>
      <trkpt lat="42.97484" lon="1.95104">
        <ele>407.8</ele>
        <time>2023-04-23T13:29:28.000Z</time>
      </trkpt>
      <trkpt lat="42.97487" lon="1.95097">
        <ele>408.9</ele>
        <time>2023-04-23T13:29:29.000Z</time>
      </trkpt>
      <trkpt lat="42.9749" lon="1.95087">
        <ele>411.1</ele>
        <time>2023-04-23T13:29:31.000Z</time>
      </trkpt>
      <trkpt lat="42.97492" lon="1.9508">
        <ele>412.2</ele>
        <time>2023-04-23T13:29:33.000Z</time>
      </trkpt>
      <trkpt lat="42.97494" lon="1.95072">
        <ele>413.5</ele>
        <time>2023-04-23T13:29:35.000Z</time>
      </trkpt>
      <trkpt lat="42.97496" lon="1.95064">
        <ele>413.7</ele>
        <time>2023-04-23T13:29:37.000Z</time>
      </trkpt>
      <trkpt lat="42.97499" lon="1.95052">
        <ele>413.8</ele>
        <time>2023-04-23T13:29:39.000Z</time>
      </trkpt>
      <trkpt lat="42.975" lon="1.95046">
        <ele>414.2</ele>
        <time>2023-04-23T13:29:40.000Z</time>
      </trkpt>
      <trkpt lat="42.97502" lon="1.95035">
        <ele>414.2</ele>
        <time>2023-04-23T13:29:42.000Z</time>
      </trkpt>
      <trkpt lat="42.97504" lon="1.95029">
        <ele>414</ele>
        <time>2023-04-23T13:29:44.000Z</time>
      </trkpt>
      <trkpt lat="42.97507" lon="1.9502">
        <ele>413.8</ele>
        <time>2023-04-23T13:29:46.000Z</time>
      </trkpt>
      <trkpt lat="42.97509" lon="1.95012">
        <ele>414.1</ele>
        <time>2023-04-23T13:29:48.000Z</time>
      </trkpt>
      <trkpt lat="42.9751" lon="1.95001">
        <ele>414.4</ele>
        <time>2023-04-23T13:29:50.000Z</time>
      </trkpt>
      <trkpt lat="42.97513" lon="1.94994">
        <ele>414.5</ele>
        <time>2023-04-23T13:29:52.000Z</time>
      </trkpt>
      <trkpt lat="42.97516" lon="1.94987">
        <ele>413.9</ele>
        <time>2023-04-23T13:29:54.000Z</time>
      </trkpt>
      <trkpt lat="42.97518" lon="1.94978">
        <ele>412.1</ele>
        <time>2023-04-23T13:29:56.000Z</time>
      </trkpt>
      <trkpt lat="42.97522" lon="1.94971">
        <ele>410</ele>
        <time>2023-04-23T13:29:57.000Z</time>
      </trkpt>
      <trkpt lat="42.97525" lon="1.9496">
        <ele>408</ele>
        <time>2023-04-23T13:29:59.000Z</time>
      </trkpt>
      <trkpt lat="42.97527" lon="1.94953">
        <ele>407.1</ele>
        <time>2023-04-23T13:30:00.000Z</time>
      </trkpt>
      <trkpt lat="42.9753" lon="1.94948">
        <ele>406</ele>
        <time>2023-04-23T13:30:01.000Z</time>
      </trkpt>
      <trkpt lat="42.97536" lon="1.9494">
        <ele>404.6</ele>
        <time>2023-04-23T13:30:03.000Z</time>
      </trkpt>
      <trkpt lat="42.97539" lon="1.94933">
        <ele>404.6</ele>
        <time>2023-04-23T13:30:05.000Z</time>
      </trkpt>
      <trkpt lat="42.97541" lon="1.94925">
        <ele>404.9</ele>
        <time>2023-04-23T13:30:07.000Z</time>
      </trkpt>
      <trkpt lat="42.97545" lon="1.94918">
        <ele>405.2</ele>
        <time>2023-04-23T13:30:09.000Z</time>
      </trkpt>
      <trkpt lat="42.97549" lon="1.9491">
        <ele>405.2</ele>
        <time>2023-04-23T13:30:12.000Z</time>
      </trkpt>
      <trkpt lat="42.97552" lon="1.94904">
        <ele>405.3</ele>
        <time>2023-04-23T13:30:14.000Z</time>
      </trkpt>
      <trkpt lat="42.97554" lon="1.94896">
        <ele>405.8</ele>
        <time>2023-04-23T13:30:16.000Z</time>
      </trkpt>
      <trkpt lat="42.97556" lon="1.94889">
        <ele>406.1</ele>
        <time>2023-04-23T13:30:18.000Z</time>
      </trkpt>
      <trkpt lat="42.97559" lon="1.94883">
        <ele>406</ele>
        <time>2023-04-23T13:30:20.000Z</time>
      </trkpt>
      <trkpt lat="42.97561" lon="1.94877">
        <ele>405.9</ele>
        <time>2023-04-23T13:30:22.000Z</time>
      </trkpt>
      <trkpt lat="42.97563" lon="1.94871">
        <ele>405.6</ele>
        <time>2023-04-23T13:30:24.000Z</time>
      </trkpt>
      <trkpt lat="42.97566" lon="1.94865">
        <ele>405.5</ele>
        <time>2023-04-23T13:30:26.000Z</time>
      </trkpt>
      <trkpt lat="42.97568" lon="1.94858">
        <ele>405.4</ele>
        <time>2023-04-23T13:30:28.000Z</time>
      </trkpt>
      <trkpt lat="42.97571" lon="1.9485">
        <ele>405.1</ele>
        <time>2023-04-23T13:30:30.000Z</time>
      </trkpt>
      <trkpt lat="42.97575" lon="1.94843">
        <ele>404.4</ele>
        <time>2023-04-23T13:30:33.000Z</time>
      </trkpt>
      <trkpt lat="42.97578" lon="1.94836">
        <ele>404.2</ele>
        <time>2023-04-23T13:30:35.000Z</time>
      </trkpt>
      <trkpt lat="42.97582" lon="1.94827">
        <ele>403.2</ele>
        <time>2023-04-23T13:30:37.000Z</time>
      </trkpt>
      <trkpt lat="42.97586" lon="1.94818">
        <ele>402.6</ele>
        <time>2023-04-23T13:30:39.000Z</time>
      </trkpt>
      <trkpt lat="42.97587" lon="1.9481">
        <ele>403.6</ele>
        <time>2023-04-23T13:30:41.000Z</time>
      </trkpt>
      <trkpt lat="42.97591" lon="1.94801">
        <ele>403.9</ele>
        <time>2023-04-23T13:30:43.000Z</time>
      </trkpt>
      <trkpt lat="42.97594" lon="1.94792">
        <ele>403.7</ele>
        <time>2023-04-23T13:30:45.000Z</time>
      </trkpt>
      <trkpt lat="42.97597" lon="1.94784">
        <ele>403.3</ele>
        <time>2023-04-23T13:30:47.000Z</time>
      </trkpt>
      <trkpt lat="42.97599" lon="1.94776">
        <ele>403.7</ele>
        <time>2023-04-23T13:30:49.000Z</time>
      </trkpt>
      <trkpt lat="42.97602" lon="1.94769">
        <ele>403.9</ele>
        <time>2023-04-23T13:30:51.000Z</time>
      </trkpt>
      <trkpt lat="42.97605" lon="1.94759">
        <ele>403.9</ele>
        <time>2023-04-23T13:30:53.000Z</time>
      </trkpt>
      <trkpt lat="42.97608" lon="1.94754">
        <ele>403.7</ele>
        <time>2023-04-23T13:30:54.000Z</time>
      </trkpt>
      <trkpt lat="42.97612" lon="1.94743">
        <ele>403.6</ele>
        <time>2023-04-23T13:30:56.000Z</time>
      </trkpt>
      <trkpt lat="42.97614" lon="1.94737">
        <ele>403.8</ele>
        <time>2023-04-23T13:30:57.000Z</time>
      </trkpt>
      <trkpt lat="42.97616" lon="1.94731">
        <ele>403.7</ele>
        <time>2023-04-23T13:30:58.000Z</time>
      </trkpt>
      <trkpt lat="42.97621" lon="1.94722">
        <ele>403.5</ele>
        <time>2023-04-23T13:30:59.000Z</time>
      </trkpt>
      <trkpt lat="42.97623" lon="1.94712">
        <ele>404</ele>
        <time>2023-04-23T13:31:01.000Z</time>
      </trkpt>
      <trkpt lat="42.97626" lon="1.94703">
        <ele>404.3</ele>
        <time>2023-04-23T13:31:03.000Z</time>
      </trkpt>
      <trkpt lat="42.97628" lon="1.94694">
        <ele>404.3</ele>
        <time>2023-04-23T13:31:05.000Z</time>
      </trkpt>
      <trkpt lat="42.97629" lon="1.94682">
        <ele>404.6</ele>
        <time>2023-04-23T13:31:07.000Z</time>
      </trkpt>
      <trkpt lat="42.97631" lon="1.94671">
        <ele>403.4</ele>
        <time>2023-04-23T13:31:09.000Z</time>
      </trkpt>
      <trkpt lat="42.97633" lon="1.9466">
        <ele>402.4</ele>
        <time>2023-04-23T13:31:11.000Z</time>
      </trkpt>
      <trkpt lat="42.97634" lon="1.94651">
        <ele>402</ele>
        <time>2023-04-23T13:31:13.000Z</time>
      </trkpt>
      <trkpt lat="42.97636" lon="1.9464">
        <ele>402.1</ele>
        <time>2023-04-23T13:31:15.000Z</time>
      </trkpt>
      <trkpt lat="42.97637" lon="1.94629">
        <ele>402.6</ele>
        <time>2023-04-23T13:31:17.000Z</time>
      </trkpt>
      <trkpt lat="42.97634" lon="1.9462">
        <ele>404.2</ele>
        <time>2023-04-23T13:31:19.000Z</time>
      </trkpt>
      <trkpt lat="42.97634" lon="1.94614">
        <ele>404.9</ele>
        <time>2023-04-23T13:31:21.000Z</time>
      </trkpt>
      <trkpt lat="42.97634" lon="1.94605">
        <ele>405.8</ele>
        <time>2023-04-23T13:31:23.000Z</time>
      </trkpt>
      <trkpt lat="42.97635" lon="1.94598">
        <ele>406.4</ele>
        <time>2023-04-23T13:31:25.000Z</time>
      </trkpt>
      <trkpt lat="42.97636" lon="1.94591">
        <ele>406.3</ele>
        <time>2023-04-23T13:31:27.000Z</time>
      </trkpt>
      <trkpt lat="42.97635" lon="1.94583">
        <ele>406.5</ele>
        <time>2023-04-23T13:31:29.000Z</time>
      </trkpt>
      <trkpt lat="42.97638" lon="1.94577">
        <ele>405.9</ele>
        <time>2023-04-23T13:31:30.000Z</time>
      </trkpt>
      <trkpt lat="42.97638" lon="1.94569">
        <ele>406.3</ele>
        <time>2023-04-23T13:31:32.000Z</time>
      </trkpt>
      <trkpt lat="42.97639" lon="1.94561">
        <ele>406.2</ele>
        <time>2023-04-23T13:31:34.000Z</time>
      </trkpt>
      <trkpt lat="42.97642" lon="1.94556">
        <ele>405.8</ele>
        <time>2023-04-23T13:31:36.000Z</time>
      </trkpt>
      <trkpt lat="42.97645" lon="1.9455">
        <ele>405.5</ele>
        <time>2023-04-23T13:31:39.000Z</time>
      </trkpt>
      <trkpt lat="42.97648" lon="1.94545">
        <ele>405.4</ele>
        <time>2023-04-23T13:31:41.000Z</time>
      </trkpt>
      <trkpt lat="42.97651" lon="1.94537">
        <ele>405.2</ele>
        <time>2023-04-23T13:31:43.000Z</time>
      </trkpt>
      <trkpt lat="42.97653" lon="1.94531">
        <ele>404.9</ele>
        <time>2023-04-23T13:31:45.000Z</time>
      </trkpt>
      <trkpt lat="42.97655" lon="1.94525">
        <ele>404.3</ele>
        <time>2023-04-23T13:31:47.000Z</time>
      </trkpt>
      <trkpt lat="42.97656" lon="1.94517">
        <ele>404.2</ele>
        <time>2023-04-23T13:31:49.000Z</time>
      </trkpt>
      <trkpt lat="42.97658" lon="1.94511">
        <ele>403.2</ele>
        <time>2023-04-23T13:31:51.000Z</time>
      </trkpt>
      <trkpt lat="42.97659" lon="1.94505">
        <ele>401.6</ele>
        <time>2023-04-23T13:31:53.000Z</time>
      </trkpt>
      <trkpt lat="42.97659" lon="1.94497">
        <ele>400.4</ele>
        <time>2023-04-23T13:31:55.000Z</time>
      </trkpt>
      <trkpt lat="42.97659" lon="1.9449">
        <ele>399.2</ele>
        <time>2023-04-23T13:31:57.000Z</time>
      </trkpt>
      <trkpt lat="42.97659" lon="1.94482">
        <ele>398.4</ele>
        <time>2023-04-23T13:32:00.000Z</time>
      </trkpt>
      <trkpt lat="42.97662" lon="1.94476">
        <ele>397.7</ele>
        <time>2023-04-23T13:32:01.000Z</time>
      </trkpt>
      <trkpt lat="42.97664" lon="1.9447">
        <ele>397.2</ele>
        <time>2023-04-23T13:32:03.000Z</time>
      </trkpt>
      <trkpt lat="42.97663" lon="1.9446">
        <ele>397.5</ele>
        <time>2023-04-23T13:32:06.000Z</time>
      </trkpt>
      <trkpt lat="42.9766" lon="1.94454">
        <ele>398.5</ele>
        <time>2023-04-23T13:32:08.000Z</time>
      </trkpt>
      <trkpt lat="42.97659" lon="1.94447">
        <ele>398.9</ele>
        <time>2023-04-23T13:32:10.000Z</time>
      </trkpt>
      <trkpt lat="42.97656" lon="1.9444">
        <ele>399.9</ele>
        <time>2023-04-23T13:32:13.000Z</time>
      </trkpt>
      <trkpt lat="42.97651" lon="1.94437">
        <ele>401.1</ele>
        <time>2023-04-23T13:32:15.000Z</time>
      </trkpt>
      <trkpt lat="42.97646" lon="1.94436">
        <ele>402.1</ele>
        <time>2023-04-23T13:32:17.000Z</time>
      </trkpt>
      <trkpt lat="42.97639" lon="1.94436">
        <ele>403.4</ele>
        <time>2023-04-23T13:32:19.000Z</time>
      </trkpt>
      <trkpt lat="42.97632" lon="1.94435">
        <ele>404.8</ele>
        <time>2023-04-23T13:32:21.000Z</time>
      </trkpt>
      <trkpt lat="42.97625" lon="1.94436">
        <ele>406</ele>
        <time>2023-04-23T13:32:23.000Z</time>
      </trkpt>
      <trkpt lat="42.97619" lon="1.94436">
        <ele>406.5</ele>
        <time>2023-04-23T13:32:25.000Z</time>
      </trkpt>
      <trkpt lat="42.97612" lon="1.94438">
        <ele>407.1</ele>
        <time>2023-04-23T13:32:27.000Z</time>
      </trkpt>
      <trkpt lat="42.97605" lon="1.9444">
        <ele>407.9</ele>
        <time>2023-04-23T13:32:29.000Z</time>
      </trkpt>
      <trkpt lat="42.97598" lon="1.94439">
        <ele>408.6</ele>
        <time>2023-04-23T13:32:31.000Z</time>
      </trkpt>
      <trkpt lat="42.9759" lon="1.94441">
        <ele>410</ele>
        <time>2023-04-23T13:32:33.000Z</time>
      </trkpt>
      <trkpt lat="42.97584" lon="1.94441">
        <ele>411</ele>
        <time>2023-04-23T13:32:35.000Z</time>
      </trkpt>
      <trkpt lat="42.97578" lon="1.94441">
        <ele>412</ele>
        <time>2023-04-23T13:32:37.000Z</time>
      </trkpt>
      <trkpt lat="42.97571" lon="1.94442">
        <ele>413.2</ele>
        <time>2023-04-23T13:32:39.000Z</time>
      </trkpt>
      <trkpt lat="42.97565" lon="1.94443">
        <ele>413.7</ele>
        <time>2023-04-23T13:32:41.000Z</time>
      </trkpt>
      <trkpt lat="42.9756" lon="1.94445">
        <ele>413.9</ele>
        <time>2023-04-23T13:32:43.000Z</time>
      </trkpt>
      <trkpt lat="42.97555" lon="1.94447">
        <ele>414.3</ele>
        <time>2023-04-23T13:32:45.000Z</time>
      </trkpt>
      <trkpt lat="42.97549" lon="1.94447">
        <ele>414.3</ele>
        <time>2023-04-23T13:32:47.000Z</time>
      </trkpt>
      <trkpt lat="42.97543" lon="1.9445">
        <ele>414.9</ele>
        <time>2023-04-23T13:32:49.000Z</time>
      </trkpt>
      <trkpt lat="42.97537" lon="1.94453">
        <ele>413.7</ele>
        <time>2023-04-23T13:32:51.000Z</time>
      </trkpt>
      <trkpt lat="42.9753" lon="1.94458">
        <ele>412.3</ele>
        <time>2023-04-23T13:32:53.000Z</time>
      </trkpt>
      <trkpt lat="42.97525" lon="1.94463">
        <ele>411.3</ele>
        <time>2023-04-23T13:32:55.000Z</time>
      </trkpt>
      <trkpt lat="42.9752" lon="1.94466">
        <ele>409.9</ele>
        <time>2023-04-23T13:32:57.000Z</time>
      </trkpt>
      <trkpt lat="42.97514" lon="1.9447">
        <ele>408.4</ele>
        <time>2023-04-23T13:32:59.000Z</time>
      </trkpt>
      <trkpt lat="42.97508" lon="1.94474">
        <ele>408.6</ele>
        <time>2023-04-23T13:33:01.000Z</time>
      </trkpt>
      <trkpt lat="42.97502" lon="1.94478">
        <ele>408.7</ele>
        <time>2023-04-23T13:33:04.000Z</time>
      </trkpt>
      <trkpt lat="42.97497" lon="1.94482">
        <ele>408.7</ele>
        <time>2023-04-23T13:33:06.000Z</time>
      </trkpt>
      <trkpt lat="42.9749" lon="1.94487">
        <ele>408.6</ele>
        <time>2023-04-23T13:33:08.000Z</time>
      </trkpt>
      <trkpt lat="42.97483" lon="1.94494">
        <ele>407.9</ele>
        <time>2023-04-23T13:33:10.000Z</time>
      </trkpt>
      <trkpt lat="42.97476" lon="1.94501">
        <ele>407.5</ele>
        <time>2023-04-23T13:33:12.000Z</time>
      </trkpt>
      <trkpt lat="42.97473" lon="1.94505">
        <ele>407.2</ele>
        <time>2023-04-23T13:33:13.000Z</time>
      </trkpt>
      <trkpt lat="42.97469" lon="1.94509">
        <ele>406.9</ele>
        <time>2023-04-23T13:33:14.000Z</time>
      </trkpt>
      <trkpt lat="42.97465" lon="1.94514">
        <ele>406.8</ele>
        <time>2023-04-23T13:33:15.000Z</time>
      </trkpt>
      <trkpt lat="42.97462" lon="1.9452">
        <ele>407.4</ele>
        <time>2023-04-23T13:33:16.000Z</time>
      </trkpt>
      <trkpt lat="42.97458" lon="1.94525">
        <ele>408</ele>
        <time>2023-04-23T13:33:17.000Z</time>
      </trkpt>
      <trkpt lat="42.97453" lon="1.9453">
        <ele>408.6</ele>
        <time>2023-04-23T13:33:18.000Z</time>
      </trkpt>
      <trkpt lat="42.97448" lon="1.94534">
        <ele>408.9</ele>
        <time>2023-04-23T13:33:19.000Z</time>
      </trkpt>
      <trkpt lat="42.97443" lon="1.94536">
        <ele>409</ele>
        <time>2023-04-23T13:33:20.000Z</time>
      </trkpt>
      <trkpt lat="42.97439" lon="1.94537">
        <ele>408.9</ele>
        <time>2023-04-23T13:33:21.000Z</time>
      </trkpt>
      <trkpt lat="42.97434" lon="1.94537">
        <ele>408.5</ele>
        <time>2023-04-23T13:33:22.000Z</time>
      </trkpt>
      <trkpt lat="42.97429" lon="1.94537">
        <ele>408.6</ele>
        <time>2023-04-23T13:33:23.000Z</time>
      </trkpt>
      <trkpt lat="42.97424" lon="1.94536">
        <ele>409.6</ele>
        <time>2023-04-23T13:33:24.000Z</time>
      </trkpt>
      <trkpt lat="42.97418" lon="1.94537">
        <ele>410.8</ele>
        <time>2023-04-23T13:33:25.000Z</time>
      </trkpt>
      <trkpt lat="42.97412" lon="1.94538">
        <ele>412</ele>
        <time>2023-04-23T13:33:26.000Z</time>
      </trkpt>
      <trkpt lat="42.97406" lon="1.94538">
        <ele>413.2</ele>
        <time>2023-04-23T13:33:27.000Z</time>
      </trkpt>
      <trkpt lat="42.97398" lon="1.94538">
        <ele>413.7</ele>
        <time>2023-04-23T13:33:28.000Z</time>
      </trkpt>
      <trkpt lat="42.97392" lon="1.94539">
        <ele>413.7</ele>
        <time>2023-04-23T13:33:29.000Z</time>
      </trkpt>
      <trkpt lat="42.97385" lon="1.9454">
        <ele>413.8</ele>
        <time>2023-04-23T13:33:30.000Z</time>
      </trkpt>
      <trkpt lat="42.97379" lon="1.9454">
        <ele>413.8</ele>
        <time>2023-04-23T13:33:31.000Z</time>
      </trkpt>
      <trkpt lat="42.97372" lon="1.94541">
        <ele>412.9</ele>
        <time>2023-04-23T13:33:32.000Z</time>
      </trkpt>
      <trkpt lat="42.97366" lon="1.94541">
        <ele>411.3</ele>
        <time>2023-04-23T13:33:33.000Z</time>
      </trkpt>
      <trkpt lat="42.97361" lon="1.94545">
        <ele>409.9</ele>
        <time>2023-04-23T13:33:34.000Z</time>
      </trkpt>
      <trkpt lat="42.97353" lon="1.94547">
        <ele>407.4</ele>
        <time>2023-04-23T13:33:36.000Z</time>
      </trkpt>
      <trkpt lat="42.97345" lon="1.9455">
        <ele>405.3</ele>
        <time>2023-04-23T13:33:38.000Z</time>
      </trkpt>
      <trkpt lat="42.9734" lon="1.94555">
        <ele>404.1</ele>
        <time>2023-04-23T13:33:40.000Z</time>
      </trkpt>
      <trkpt lat="42.97334" lon="1.9456">
        <ele>402.7</ele>
        <time>2023-04-23T13:33:42.000Z</time>
      </trkpt>
      <trkpt lat="42.9733" lon="1.94566">
        <ele>401.5</ele>
        <time>2023-04-23T13:33:44.000Z</time>
      </trkpt>
      <trkpt lat="42.97327" lon="1.94571">
        <ele>400.8</ele>
        <time>2023-04-23T13:33:46.000Z</time>
      </trkpt>
      <trkpt lat="42.97324" lon="1.94578">
        <ele>400.7</ele>
        <time>2023-04-23T13:33:48.000Z</time>
      </trkpt>
      <trkpt lat="42.97321" lon="1.94584">
        <ele>400.4</ele>
        <time>2023-04-23T13:33:50.000Z</time>
      </trkpt>
      <trkpt lat="42.97317" lon="1.9459">
        <ele>400.3</ele>
        <time>2023-04-23T13:33:52.000Z</time>
      </trkpt>
      <trkpt lat="42.97314" lon="1.94597">
        <ele>400.6</ele>
        <time>2023-04-23T13:33:54.000Z</time>
      </trkpt>
      <trkpt lat="42.97312" lon="1.94602">
        <ele>401</ele>
        <time>2023-04-23T13:33:56.000Z</time>
      </trkpt>
      <trkpt lat="42.97307" lon="1.94606">
        <ele>400.8</ele>
        <time>2023-04-23T13:33:58.000Z</time>
      </trkpt>
      <trkpt lat="42.97302" lon="1.9461">
        <ele>400.4</ele>
        <time>2023-04-23T13:34:00.000Z</time>
      </trkpt>
      <trkpt lat="42.97295" lon="1.94614">
        <ele>399.5</ele>
        <time>2023-04-23T13:34:02.000Z</time>
      </trkpt>
      <trkpt lat="42.97287" lon="1.94615">
        <ele>400.3</ele>
        <time>2023-04-23T13:34:04.000Z</time>
      </trkpt>
      <trkpt lat="42.97282" lon="1.94615">
        <ele>401.7</ele>
        <time>2023-04-23T13:34:05.000Z</time>
      </trkpt>
      <trkpt lat="42.97279" lon="1.9461">
        <ele>402.7</ele>
        <time>2023-04-23T13:34:07.000Z</time>
      </trkpt>
      <trkpt lat="42.97279" lon="1.94602">
        <ele>402.9</ele>
        <time>2023-04-23T13:34:09.000Z</time>
      </trkpt>
      <trkpt lat="42.97279" lon="1.94594">
        <ele>403.5</ele>
        <time>2023-04-23T13:34:12.000Z</time>
      </trkpt>
      <trkpt lat="42.97278" lon="1.94586">
        <ele>404.2</ele>
        <time>2023-04-23T13:34:15.000Z</time>
      </trkpt>
      <trkpt lat="42.97278" lon="1.94577">
        <ele>405</ele>
        <time>2023-04-23T13:34:18.000Z</time>
      </trkpt>
      <trkpt lat="42.97279" lon="1.94569">
        <ele>405.1</ele>
        <time>2023-04-23T13:34:21.000Z</time>
      </trkpt>
      <trkpt lat="42.9728" lon="1.94562">
        <ele>405.5</ele>
        <time>2023-04-23T13:34:23.000Z</time>
      </trkpt>
      <trkpt lat="42.97281" lon="1.94556">
        <ele>406</ele>
        <time>2023-04-23T13:34:25.000Z</time>
      </trkpt>
      <trkpt lat="42.97284" lon="1.94549">
        <ele>405.5</ele>
        <time>2023-04-23T13:34:28.000Z</time>
      </trkpt>
      <trkpt lat="42.97286" lon="1.94541">
        <ele>405.6</ele>
        <time>2023-04-23T13:34:31.000Z</time>
      </trkpt>
      <trkpt lat="42.97287" lon="1.94534">
        <ele>406.6</ele>
        <time>2023-04-23T13:34:34.000Z</time>
      </trkpt>
      <trkpt lat="42.97288" lon="1.94526">
        <ele>407.3</ele>
        <time>2023-04-23T13:34:36.000Z</time>
      </trkpt>
      <trkpt lat="42.97291" lon="1.9452">
        <ele>407.3</ele>
        <time>2023-04-23T13:34:39.000Z</time>
      </trkpt>
      <trkpt lat="42.97294" lon="1.94514">
        <ele>407.6</ele>
        <time>2023-04-23T13:34:42.000Z</time>
      </trkpt>
      <trkpt lat="42.97295" lon="1.94506">
        <ele>407.5</ele>
        <time>2023-04-23T13:34:45.000Z</time>
      </trkpt>
      <trkpt lat="42.97297" lon="1.945">
        <ele>407.5</ele>
        <time>2023-04-23T13:34:47.000Z</time>
      </trkpt>
      <trkpt lat="42.97299" lon="1.94494">
        <ele>407.3</ele>
        <time>2023-04-23T13:34:49.000Z</time>
      </trkpt>
      <trkpt lat="42.97301" lon="1.94487">
        <ele>407.2</ele>
        <time>2023-04-23T13:34:51.000Z</time>
      </trkpt>
      <trkpt lat="42.97304" lon="1.9448">
        <ele>407.3</ele>
        <time>2023-04-23T13:34:53.000Z</time>
      </trkpt>
      <trkpt lat="42.97305" lon="1.94474">
        <ele>407.6</ele>
        <time>2023-04-23T13:34:55.000Z</time>
      </trkpt>
      <trkpt lat="42.97307" lon="1.94467">
        <ele>407.9</ele>
        <time>2023-04-23T13:34:57.000Z</time>
      </trkpt>
      <trkpt lat="42.97307" lon="1.9446">
        <ele>408.5</ele>
        <time>2023-04-23T13:34:59.000Z</time>
      </trkpt>
      <trkpt lat="42.97307" lon="1.94452">
        <ele>409.6</ele>
        <time>2023-04-23T13:35:02.000Z</time>
      </trkpt>
      <trkpt lat="42.97309" lon="1.94446">
        <ele>410.1</ele>
        <time>2023-04-23T13:35:04.000Z</time>
      </trkpt>
      <trkpt lat="42.97311" lon="1.94438">
        <ele>410.7</ele>
        <time>2023-04-23T13:35:06.000Z</time>
      </trkpt>
      <trkpt lat="42.97312" lon="1.94431">
        <ele>411.6</ele>
        <time>2023-04-23T13:35:07.000Z</time>
      </trkpt>
      <trkpt lat="42.97314" lon="1.94425">
        <ele>411.8</ele>
        <time>2023-04-23T13:35:08.000Z</time>
      </trkpt>
      <trkpt lat="42.97319" lon="1.94417">
        <ele>411.6</ele>
        <time>2023-04-23T13:35:10.000Z</time>
      </trkpt>
      <trkpt lat="42.97324" lon="1.94411">
        <ele>410.1</ele>
        <time>2023-04-23T13:35:12.000Z</time>
      </trkpt>
      <trkpt lat="42.97328" lon="1.94405">
        <ele>408.8</ele>
        <time>2023-04-23T13:35:14.000Z</time>
      </trkpt>
      <trkpt lat="42.97331" lon="1.94399">
        <ele>408.4</ele>
        <time>2023-04-23T13:35:16.000Z</time>
      </trkpt>
      <trkpt lat="42.97333" lon="1.94393">
        <ele>408.6</ele>
        <time>2023-04-23T13:35:18.000Z</time>
      </trkpt>
      <trkpt lat="42.97335" lon="1.94383">
        <ele>409.6</ele>
        <time>2023-04-23T13:35:21.000Z</time>
      </trkpt>
      <trkpt lat="42.97337" lon="1.94376">
        <ele>410.2</ele>
        <time>2023-04-23T13:35:23.000Z</time>
      </trkpt>
      <trkpt lat="42.9734" lon="1.94368">
        <ele>410</ele>
        <time>2023-04-23T13:35:25.000Z</time>
      </trkpt>
      <trkpt lat="42.97342" lon="1.94361">
        <ele>409.9</ele>
        <time>2023-04-23T13:35:27.000Z</time>
      </trkpt>
      <trkpt lat="42.97345" lon="1.94355">
        <ele>409.8</ele>
        <time>2023-04-23T13:35:29.000Z</time>
      </trkpt>
      <trkpt lat="42.97347" lon="1.94349">
        <ele>409.8</ele>
        <time>2023-04-23T13:35:31.000Z</time>
      </trkpt>
      <trkpt lat="42.9735" lon="1.94341">
        <ele>409.9</ele>
        <time>2023-04-23T13:35:33.000Z</time>
      </trkpt>
      <trkpt lat="42.97352" lon="1.94333">
        <ele>410.2</ele>
        <time>2023-04-23T13:35:35.000Z</time>
      </trkpt>
      <trkpt lat="42.97355" lon="1.94321">
        <ele>410.7</ele>
        <time>2023-04-23T13:35:38.000Z</time>
      </trkpt>
      <trkpt lat="42.97355" lon="1.94313">
        <ele>411.2</ele>
        <time>2023-04-23T13:35:40.000Z</time>
      </trkpt>
      <trkpt lat="42.97355" lon="1.94306">
        <ele>411.8</ele>
        <time>2023-04-23T13:35:42.000Z</time>
      </trkpt>
      <trkpt lat="42.97357" lon="1.94299">
        <ele>411.4</ele>
        <time>2023-04-23T13:35:44.000Z</time>
      </trkpt>
      <trkpt lat="42.97362" lon="1.94295">
        <ele>410</ele>
        <time>2023-04-23T13:35:46.000Z</time>
      </trkpt>
      <trkpt lat="42.97366" lon="1.9429">
        <ele>409.1</ele>
        <time>2023-04-23T13:35:48.000Z</time>
      </trkpt>
      <trkpt lat="42.97368" lon="1.94284">
        <ele>408.7</ele>
        <time>2023-04-23T13:35:50.000Z</time>
      </trkpt>
      <trkpt lat="42.97371" lon="1.94277">
        <ele>408.3</ele>
        <time>2023-04-23T13:35:52.000Z</time>
      </trkpt>
      <trkpt lat="42.97373" lon="1.94268">
        <ele>408.2</ele>
        <time>2023-04-23T13:35:54.000Z</time>
      </trkpt>
      <trkpt lat="42.97374" lon="1.94262">
        <ele>408.2</ele>
        <time>2023-04-23T13:35:55.000Z</time>
      </trkpt>
      <trkpt lat="42.97377" lon="1.94252">
        <ele>407.4</ele>
        <time>2023-04-23T13:35:57.000Z</time>
      </trkpt>
      <trkpt lat="42.97379" lon="1.94244">
        <ele>407</ele>
        <time>2023-04-23T13:35:59.000Z</time>
      </trkpt>
      <trkpt lat="42.97381" lon="1.94236">
        <ele>407</ele>
        <time>2023-04-23T13:36:01.000Z</time>
      </trkpt>
      <trkpt lat="42.97385" lon="1.9423">
        <ele>407.2</ele>
        <time>2023-04-23T13:36:03.000Z</time>
      </trkpt>
      <trkpt lat="42.97389" lon="1.94223">
        <ele>407.2</ele>
        <time>2023-04-23T13:36:05.000Z</time>
      </trkpt>
      <trkpt lat="42.97392" lon="1.94216">
        <ele>407.3</ele>
        <time>2023-04-23T13:36:07.000Z</time>
      </trkpt>
      <trkpt lat="42.97396" lon="1.94207">
        <ele>407.3</ele>
        <time>2023-04-23T13:36:09.000Z</time>
      </trkpt>
      <trkpt lat="42.97399" lon="1.94197">
        <ele>408.2</ele>
        <time>2023-04-23T13:36:11.000Z</time>
      </trkpt>
      <trkpt lat="42.97401" lon="1.94186">
        <ele>409.3</ele>
        <time>2023-04-23T13:36:13.000Z</time>
      </trkpt>
      <trkpt lat="42.97403" lon="1.94178">
        <ele>410.2</ele>
        <time>2023-04-23T13:36:15.000Z</time>
      </trkpt>
      <trkpt lat="42.97405" lon="1.94171">
        <ele>410.1</ele>
        <time>2023-04-23T13:36:17.000Z</time>
      </trkpt>
      <trkpt lat="42.97408" lon="1.94164">
        <ele>409.8</ele>
        <time>2023-04-23T13:36:19.000Z</time>
      </trkpt>
      <trkpt lat="42.97411" lon="1.94158">
        <ele>409.4</ele>
        <time>2023-04-23T13:36:21.000Z</time>
      </trkpt>
      <trkpt lat="42.97414" lon="1.94152">
        <ele>408.9</ele>
        <time>2023-04-23T13:36:23.000Z</time>
      </trkpt>
      <trkpt lat="42.97417" lon="1.94144">
        <ele>408.2</ele>
        <time>2023-04-23T13:36:25.000Z</time>
      </trkpt>
      <trkpt lat="42.9742" lon="1.94135">
        <ele>408</ele>
        <time>2023-04-23T13:36:27.000Z</time>
      </trkpt>
      <trkpt lat="42.97422" lon="1.94126">
        <ele>408</ele>
        <time>2023-04-23T13:36:29.000Z</time>
      </trkpt>
      <trkpt lat="42.97426" lon="1.94121">
        <ele>407.5</ele>
        <time>2023-04-23T13:36:31.000Z</time>
      </trkpt>
      <trkpt lat="42.9743" lon="1.94117">
        <ele>407.2</ele>
        <time>2023-04-23T13:36:33.000Z</time>
      </trkpt>
      <trkpt lat="42.97434" lon="1.94113">
        <ele>407.4</ele>
        <time>2023-04-23T13:36:35.000Z</time>
      </trkpt>
      <trkpt lat="42.97438" lon="1.94109">
        <ele>407.5</ele>
        <time>2023-04-23T13:36:37.000Z</time>
      </trkpt>
      <trkpt lat="42.97442" lon="1.94102">
        <ele>408</ele>
        <time>2023-04-23T13:36:39.000Z</time>
      </trkpt>
      <trkpt lat="42.97444" lon="1.94096">
        <ele>408.4</ele>
        <time>2023-04-23T13:36:40.000Z</time>
      </trkpt>
      <trkpt lat="42.97445" lon="1.94087">
        <ele>409</ele>
        <time>2023-04-23T13:36:42.000Z</time>
      </trkpt>
      <trkpt lat="42.97448" lon="1.94074">
        <ele>409.5</ele>
        <time>2023-04-23T13:36:44.000Z</time>
      </trkpt>
      <trkpt lat="42.97448" lon="1.94066">
        <ele>410.4</ele>
        <time>2023-04-23T13:36:46.000Z</time>
      </trkpt>
      <trkpt lat="42.97448" lon="1.9406">
        <ele>410.2</ele>
        <time>2023-04-23T13:36:48.000Z</time>
      </trkpt>
      <trkpt lat="42.9745" lon="1.94052">
        <ele>409.8</ele>
        <time>2023-04-23T13:36:52.000Z</time>
      </trkpt>
      <trkpt lat="42.97451" lon="1.94045">
        <ele>409.5</ele>
        <time>2023-04-23T13:36:54.000Z</time>
      </trkpt>
      <trkpt lat="42.97452" lon="1.94039">
        <ele>409.2</ele>
        <time>2023-04-23T13:36:56.000Z</time>
      </trkpt>
      <trkpt lat="42.97452" lon="1.94032">
        <ele>409.4</ele>
        <time>2023-04-23T13:36:59.000Z</time>
      </trkpt>
      <trkpt lat="42.97451" lon="1.94026">
        <ele>409.8</ele>
        <time>2023-04-23T13:37:01.000Z</time>
      </trkpt>
      <trkpt lat="42.9745" lon="1.94017">
        <ele>410.4</ele>
        <time>2023-04-23T13:37:03.000Z</time>
      </trkpt>
      <trkpt lat="42.97451" lon="1.94009">
        <ele>410.1</ele>
        <time>2023-04-23T13:37:05.000Z</time>
      </trkpt>
      <trkpt lat="42.97453" lon="1.94003">
        <ele>409.7</ele>
        <time>2023-04-23T13:37:08.000Z</time>
      </trkpt>
      <trkpt lat="42.97454" lon="1.93993">
        <ele>409.4</ele>
        <time>2023-04-23T13:37:11.000Z</time>
      </trkpt>
      <trkpt lat="42.97456" lon="1.93987">
        <ele>408.8</ele>
        <time>2023-04-23T13:37:12.000Z</time>
      </trkpt>
      <trkpt lat="42.97457" lon="1.93977">
        <ele>408.4</ele>
        <time>2023-04-23T13:37:14.000Z</time>
      </trkpt>
      <trkpt lat="42.97459" lon="1.93969">
        <ele>407.8</ele>
        <time>2023-04-23T13:37:17.000Z</time>
      </trkpt>
      <trkpt lat="42.9746" lon="1.93961">
        <ele>407.5</ele>
        <time>2023-04-23T13:37:20.000Z</time>
      </trkpt>
      <trkpt lat="42.97461" lon="1.93952">
        <ele>407.1</ele>
        <time>2023-04-23T13:37:22.000Z</time>
      </trkpt>
      <trkpt lat="42.97462" lon="1.93945">
        <ele>407.1</ele>
        <time>2023-04-23T13:37:24.000Z</time>
      </trkpt>
      <trkpt lat="42.97463" lon="1.93937">
        <ele>406.9</ele>
        <time>2023-04-23T13:37:27.000Z</time>
      </trkpt>
      <trkpt lat="42.97465" lon="1.93928">
        <ele>406.6</ele>
        <time>2023-04-23T13:37:30.000Z</time>
      </trkpt>
      <trkpt lat="42.97467" lon="1.9392">
        <ele>406.7</ele>
        <time>2023-04-23T13:37:33.000Z</time>
      </trkpt>
      <trkpt lat="42.97469" lon="1.93913">
        <ele>406.5</ele>
        <time>2023-04-23T13:37:35.000Z</time>
      </trkpt>
      <trkpt lat="42.9747" lon="1.93905">
        <ele>406.6</ele>
        <time>2023-04-23T13:37:37.000Z</time>
      </trkpt>
      <trkpt lat="42.97472" lon="1.93897">
        <ele>406.6</ele>
        <time>2023-04-23T13:37:40.000Z</time>
      </trkpt>
      <trkpt lat="42.97475" lon="1.93892">
        <ele>405.9</ele>
        <time>2023-04-23T13:37:42.000Z</time>
      </trkpt>
      <trkpt lat="42.97478" lon="1.93887">
        <ele>404.9</ele>
        <time>2023-04-23T13:37:44.000Z</time>
      </trkpt>
      <trkpt lat="42.97478" lon="1.9388">
        <ele>405.9</ele>
        <time>2023-04-23T13:37:47.000Z</time>
      </trkpt>
      <trkpt lat="42.97477" lon="1.93871">
        <ele>407.1</ele>
        <time>2023-04-23T13:37:50.000Z</time>
      </trkpt>
      <trkpt lat="42.9748" lon="1.93864">
        <ele>406.9</ele>
        <time>2023-04-23T13:37:53.000Z</time>
      </trkpt>
      <trkpt lat="42.97481" lon="1.93855">
        <ele>407.7</ele>
        <time>2023-04-23T13:37:56.000Z</time>
      </trkpt>
      <trkpt lat="42.97483" lon="1.93847">
        <ele>408.4</ele>
        <time>2023-04-23T13:37:59.000Z</time>
      </trkpt>
      <trkpt lat="42.97485" lon="1.93841">
        <ele>408.1</ele>
        <time>2023-04-23T13:38:02.000Z</time>
      </trkpt>
      <trkpt lat="42.97487" lon="1.93835">
        <ele>408.2</ele>
        <time>2023-04-23T13:38:05.000Z</time>
      </trkpt>
      <trkpt lat="42.97486" lon="1.93826">
        <ele>409.2</ele>
        <time>2023-04-23T13:38:08.000Z</time>
      </trkpt>
      <trkpt lat="42.97487" lon="1.93819">
        <ele>409.6</ele>
        <time>2023-04-23T13:38:11.000Z</time>
      </trkpt>
      <trkpt lat="42.97488" lon="1.93812">
        <ele>409.9</ele>
        <time>2023-04-23T13:38:13.000Z</time>
      </trkpt>
      <trkpt lat="42.97487" lon="1.93806">
        <ele>410.6</ele>
        <time>2023-04-23T13:38:15.000Z</time>
      </trkpt>
      <trkpt lat="42.97486" lon="1.93798">
        <ele>411.5</ele>
        <time>2023-04-23T13:38:18.000Z</time>
      </trkpt>
      <trkpt lat="42.97486" lon="1.9379">
        <ele>412.3</ele>
        <time>2023-04-23T13:38:21.000Z</time>
      </trkpt>
      <trkpt lat="42.97488" lon="1.93783">
        <ele>412.2</ele>
        <time>2023-04-23T13:38:23.000Z</time>
      </trkpt>
      <trkpt lat="42.97493" lon="1.93774">
        <ele>410.9</ele>
        <time>2023-04-23T13:38:25.000Z</time>
      </trkpt>
      <trkpt lat="42.97496" lon="1.93769">
        <ele>410.2</ele>
        <time>2023-04-23T13:38:26.000Z</time>
      </trkpt>
      <trkpt lat="42.97498" lon="1.93763">
        <ele>410</ele>
        <time>2023-04-23T13:38:27.000Z</time>
      </trkpt>
      <trkpt lat="42.97499" lon="1.93756">
        <ele>410.4</ele>
        <time>2023-04-23T13:38:28.000Z</time>
      </trkpt>
      <trkpt lat="42.97501" lon="1.93746">
        <ele>411.1</ele>
        <time>2023-04-23T13:38:30.000Z</time>
      </trkpt>
      <trkpt lat="42.97503" lon="1.93737">
        <ele>411.6</ele>
        <time>2023-04-23T13:38:32.000Z</time>
      </trkpt>
      <trkpt lat="42.97503" lon="1.93728">
        <ele>412.6</ele>
        <time>2023-04-23T13:38:34.000Z</time>
      </trkpt>
      <trkpt lat="42.97504" lon="1.93721">
        <ele>412.9</ele>
        <time>2023-04-23T13:38:36.000Z</time>
      </trkpt>
      <trkpt lat="42.97505" lon="1.9371">
        <ele>414.1</ele>
        <time>2023-04-23T13:38:38.000Z</time>
      </trkpt>
      <trkpt lat="42.97507" lon="1.93702">
        <ele>414.1</ele>
        <time>2023-04-23T13:38:40.000Z</time>
      </trkpt>
      <trkpt lat="42.97509" lon="1.93693">
        <ele>414.8</ele>
        <time>2023-04-23T13:38:42.000Z</time>
      </trkpt>
      <trkpt lat="42.97511" lon="1.93684">
        <ele>415.7</ele>
        <time>2023-04-23T13:38:44.000Z</time>
      </trkpt>
      <trkpt lat="42.97514" lon="1.93677">
        <ele>415.4</ele>
        <time>2023-04-23T13:38:46.000Z</time>
      </trkpt>
      <trkpt lat="42.97516" lon="1.93669">
        <ele>414.7</ele>
        <time>2023-04-23T13:38:48.000Z</time>
      </trkpt>
      <trkpt lat="42.97517" lon="1.93661">
        <ele>414.8</ele>
        <time>2023-04-23T13:38:50.000Z</time>
      </trkpt>
      <trkpt lat="42.97517" lon="1.93652">
        <ele>415.3</ele>
        <time>2023-04-23T13:38:52.000Z</time>
      </trkpt>
      <trkpt lat="42.97519" lon="1.93644">
        <ele>414.6</ele>
        <time>2023-04-23T13:38:54.000Z</time>
      </trkpt>
      <trkpt lat="42.97521" lon="1.93634">
        <ele>414.1</ele>
        <time>2023-04-23T13:38:56.000Z</time>
      </trkpt>
      <trkpt lat="42.97523" lon="1.93625">
        <ele>413.9</ele>
        <time>2023-04-23T13:38:58.000Z</time>
      </trkpt>
      <trkpt lat="42.97523" lon="1.93617">
        <ele>413.4</ele>
        <time>2023-04-23T13:39:00.000Z</time>
      </trkpt>
      <trkpt lat="42.97525" lon="1.93609">
        <ele>412.5</ele>
        <time>2023-04-23T13:39:02.000Z</time>
      </trkpt>
      <trkpt lat="42.97529" lon="1.93602">
        <ele>411.2</ele>
        <time>2023-04-23T13:39:04.000Z</time>
      </trkpt>
      <trkpt lat="42.97529" lon="1.93594">
        <ele>411.1</ele>
        <time>2023-04-23T13:39:06.000Z</time>
      </trkpt>
      <trkpt lat="42.97531" lon="1.93587">
        <ele>410.7</ele>
        <time>2023-04-23T13:39:08.000Z</time>
      </trkpt>
      <trkpt lat="42.97533" lon="1.93577">
        <ele>410.4</ele>
        <time>2023-04-23T13:39:10.000Z</time>
      </trkpt>
      <trkpt lat="42.97534" lon="1.93567">
        <ele>410.4</ele>
        <time>2023-04-23T13:39:12.000Z</time>
      </trkpt>
      <trkpt lat="42.97535" lon="1.93556">
        <ele>410.6</ele>
        <time>2023-04-23T13:39:14.000Z</time>
      </trkpt>
      <trkpt lat="42.97538" lon="1.93547">
        <ele>410</ele>
        <time>2023-04-23T13:39:15.000Z</time>
      </trkpt>
      <trkpt lat="42.97538" lon="1.93538">
        <ele>410.4</ele>
        <time>2023-04-23T13:39:16.000Z</time>
      </trkpt>
      <trkpt lat="42.97538" lon="1.9353">
        <ele>410.9</ele>
        <time>2023-04-23T13:39:17.000Z</time>
      </trkpt>
      <trkpt lat="42.97538" lon="1.93524">
        <ele>411.5</ele>
        <time>2023-04-23T13:39:18.000Z</time>
      </trkpt>
      <trkpt lat="42.97538" lon="1.93517">
        <ele>411.9</ele>
        <time>2023-04-23T13:39:19.000Z</time>
      </trkpt>
      <trkpt lat="42.9754" lon="1.93508">
        <ele>412.3</ele>
        <time>2023-04-23T13:39:21.000Z</time>
      </trkpt>
      <trkpt lat="42.9754" lon="1.93498">
        <ele>413.4</ele>
        <time>2023-04-23T13:39:23.000Z</time>
      </trkpt>
      <trkpt lat="42.97542" lon="1.93491">
        <ele>413.4</ele>
        <time>2023-04-23T13:39:25.000Z</time>
      </trkpt>
      <trkpt lat="42.97543" lon="1.93484">
        <ele>413.8</ele>
        <time>2023-04-23T13:39:27.000Z</time>
      </trkpt>
      <trkpt lat="42.97545" lon="1.93476">
        <ele>414.2</ele>
        <time>2023-04-23T13:39:29.000Z</time>
      </trkpt>
      <trkpt lat="42.97546" lon="1.93468">
        <ele>415.2</ele>
        <time>2023-04-23T13:39:31.000Z</time>
      </trkpt>
      <trkpt lat="42.97548" lon="1.93458">
        <ele>416.2</ele>
        <time>2023-04-23T13:39:33.000Z</time>
      </trkpt>
      <trkpt lat="42.9755" lon="1.93449">
        <ele>416.3</ele>
        <time>2023-04-23T13:39:35.000Z</time>
      </trkpt>
      <trkpt lat="42.97552" lon="1.9344">
        <ele>416.8</ele>
        <time>2023-04-23T13:39:37.000Z</time>
      </trkpt>
      <trkpt lat="42.97555" lon="1.93428">
        <ele>417.1</ele>
        <time>2023-04-23T13:39:39.000Z</time>
      </trkpt>
      <trkpt lat="42.97558" lon="1.93417">
        <ele>416.2</ele>
        <time>2023-04-23T13:39:41.000Z</time>
      </trkpt>
      <trkpt lat="42.9756" lon="1.93406">
        <ele>415.7</ele>
        <time>2023-04-23T13:39:43.000Z</time>
      </trkpt>
      <trkpt lat="42.97562" lon="1.93396">
        <ele>414.7</ele>
        <time>2023-04-23T13:39:45.000Z</time>
      </trkpt>
      <trkpt lat="42.97565" lon="1.93385">
        <ele>412.6</ele>
        <time>2023-04-23T13:39:47.000Z</time>
      </trkpt>
      <trkpt lat="42.97567" lon="1.93378">
        <ele>411.7</ele>
        <time>2023-04-23T13:39:49.000Z</time>
      </trkpt>
      <trkpt lat="42.97569" lon="1.93372">
        <ele>410.2</ele>
        <time>2023-04-23T13:39:52.000Z</time>
      </trkpt>
      <trkpt lat="42.97568" lon="1.93362">
        <ele>410</ele>
        <time>2023-04-23T13:39:55.000Z</time>
      </trkpt>
      <trkpt lat="42.97569" lon="1.93355">
        <ele>409</ele>
        <time>2023-04-23T13:39:57.000Z</time>
      </trkpt>
      <trkpt lat="42.9757" lon="1.93345">
        <ele>407.8</ele>
        <time>2023-04-23T13:39:59.000Z</time>
      </trkpt>
      <trkpt lat="42.9757" lon="1.93336">
        <ele>407.4</ele>
        <time>2023-04-23T13:40:01.000Z</time>
      </trkpt>
      <trkpt lat="42.9757" lon="1.93328">
        <ele>407.2</ele>
        <time>2023-04-23T13:40:04.000Z</time>
      </trkpt>
      <trkpt lat="42.97566" lon="1.93323">
        <ele>408.4</ele>
        <time>2023-04-23T13:40:06.000Z</time>
      </trkpt>
      <trkpt lat="42.97562" lon="1.93318">
        <ele>409.7</ele>
        <time>2023-04-23T13:40:10.000Z</time>
      </trkpt>
      <trkpt lat="42.97559" lon="1.93314">
        <ele>410.5</ele>
        <time>2023-04-23T13:40:14.000Z</time>
      </trkpt>
      <trkpt lat="42.97552" lon="1.93308">
        <ele>412.2</ele>
        <time>2023-04-23T13:40:17.000Z</time>
      </trkpt>
      <trkpt lat="42.97546" lon="1.93303">
        <ele>413.3</ele>
        <time>2023-04-23T13:40:19.000Z</time>
      </trkpt>
      <trkpt lat="42.9754" lon="1.93299">
        <ele>414.5</ele>
        <time>2023-04-23T13:40:21.000Z</time>
      </trkpt>
      <trkpt lat="42.97537" lon="1.93292">
        <ele>414.6</ele>
        <time>2023-04-23T13:42:40.000Z</time>
      </trkpt>
      <trkpt lat="42.97537" lon="1.9328">
        <ele>413.8</ele>
        <time>2023-04-23T13:42:44.000Z</time>
      </trkpt>
      <trkpt lat="42.97537" lon="1.93272">
        <ele>413.1</ele>
        <time>2023-04-23T13:42:46.000Z</time>
      </trkpt>
      <trkpt lat="42.97536" lon="1.93265">
        <ele>413.1</ele>
        <time>2023-04-23T13:42:49.000Z</time>
      </trkpt>
      <trkpt lat="42.97539" lon="1.9326">
        <ele>412.1</ele>
        <time>2023-04-23T13:42:52.000Z</time>
      </trkpt>
      <trkpt lat="42.97542" lon="1.93264">
        <ele>410.9</ele>
        <time>2023-04-23T13:42:55.000Z</time>
      </trkpt>
      <trkpt lat="42.97547" lon="1.93267">
        <ele>410.4</ele>
        <time>2023-04-23T13:42:57.000Z</time>
      </trkpt>
      <trkpt lat="42.97551" lon="1.93269">
        <ele>409.8</ele>
        <time>2023-04-23T13:42:59.000Z</time>
      </trkpt>
      <trkpt lat="42.97556" lon="1.93273">
        <ele>409</ele>
        <time>2023-04-23T13:43:01.000Z</time>
      </trkpt>
      <trkpt lat="42.97562" lon="1.93276">
        <ele>408</ele>
        <time>2023-04-23T13:43:04.000Z</time>
      </trkpt>
      <trkpt lat="42.97567" lon="1.9328">
        <ele>406.9</ele>
        <time>2023-04-23T13:43:07.000Z</time>
      </trkpt>
      <trkpt lat="42.97573" lon="1.93281">
        <ele>406.4</ele>
        <time>2023-04-23T13:43:10.000Z</time>
      </trkpt>
      <trkpt lat="42.97578" lon="1.93285">
        <ele>406.2</ele>
        <time>2023-04-23T13:43:12.000Z</time>
      </trkpt>
      <trkpt lat="42.97585" lon="1.93292">
        <ele>405.4</ele>
        <time>2023-04-23T13:43:14.000Z</time>
      </trkpt>
      <trkpt lat="42.97591" lon="1.93296">
        <ele>405.1</ele>
        <time>2023-04-23T13:43:15.000Z</time>
      </trkpt>
      <trkpt lat="42.97595" lon="1.93299">
        <ele>404.6</ele>
        <time>2023-04-23T13:43:16.000Z</time>
      </trkpt>
      <trkpt lat="42.97601" lon="1.93303">
        <ele>405.1</ele>
        <time>2023-04-23T13:43:18.000Z</time>
      </trkpt>
      <trkpt lat="42.97605" lon="1.93308">
        <ele>405.9</ele>
        <time>2023-04-23T13:43:20.000Z</time>
      </trkpt>
      <trkpt lat="42.97611" lon="1.93312">
        <ele>407.1</ele>
        <time>2023-04-23T13:43:22.000Z</time>
      </trkpt>
      <trkpt lat="42.97616" lon="1.93317">
        <ele>407.9</ele>
        <time>2023-04-23T13:43:24.000Z</time>
      </trkpt>
      <trkpt lat="42.97621" lon="1.93321">
        <ele>408.8</ele>
        <time>2023-04-23T13:43:26.000Z</time>
      </trkpt>
      <trkpt lat="42.97627" lon="1.93325">
        <ele>409.2</ele>
        <time>2023-04-23T13:43:28.000Z</time>
      </trkpt>
      <trkpt lat="42.97635" lon="1.93334">
        <ele>408.5</ele>
        <time>2023-04-23T13:43:30.000Z</time>
      </trkpt>
      <trkpt lat="42.97638" lon="1.93339">
        <ele>407.9</ele>
        <time>2023-04-23T13:43:31.000Z</time>
      </trkpt>
      <trkpt lat="42.9764" lon="1.93344">
        <ele>407.2</ele>
        <time>2023-04-23T13:43:32.000Z</time>
      </trkpt>
      <trkpt lat="42.97642" lon="1.9335">
        <ele>406.4</ele>
        <time>2023-04-23T13:43:33.000Z</time>
      </trkpt>
      <trkpt lat="42.97645" lon="1.93361">
        <ele>404.6</ele>
        <time>2023-04-23T13:43:35.000Z</time>
      </trkpt>
      <trkpt lat="42.97646" lon="1.93367">
        <ele>403.7</ele>
        <time>2023-04-23T13:43:36.000Z</time>
      </trkpt>
      <trkpt lat="42.97648" lon="1.93373">
        <ele>402.8</ele>
        <time>2023-04-23T13:43:37.000Z</time>
      </trkpt>
      <trkpt lat="42.97651" lon="1.93385">
        <ele>402.1</ele>
        <time>2023-04-23T13:43:39.000Z</time>
      </trkpt>
      <trkpt lat="42.97653" lon="1.93396">
        <ele>401.5</ele>
        <time>2023-04-23T13:43:41.000Z</time>
      </trkpt>
      <trkpt lat="42.97653" lon="1.93406">
        <ele>400.7</ele>
        <time>2023-04-23T13:43:43.000Z</time>
      </trkpt>
      <trkpt lat="42.97655" lon="1.93414">
        <ele>400.5</ele>
        <time>2023-04-23T13:43:45.000Z</time>
      </trkpt>
      <trkpt lat="42.9766" lon="1.9342">
        <ele>400.7</ele>
        <time>2023-04-23T13:43:47.000Z</time>
      </trkpt>
      <trkpt lat="42.97665" lon="1.93418">
        <ele>401.4</ele>
        <time>2023-04-23T13:43:50.000Z</time>
      </trkpt>
      <trkpt lat="42.9767" lon="1.93415">
        <ele>402.4</ele>
        <time>2023-04-23T13:43:54.000Z</time>
      </trkpt>
      <trkpt lat="42.97673" lon="1.9341">
        <ele>403.2</ele>
        <time>2023-04-23T13:43:57.000Z</time>
      </trkpt>
      <trkpt lat="42.97673" lon="1.93404">
        <ele>403.8</ele>
        <time>2023-04-23T13:44:00.000Z</time>
      </trkpt>
      <trkpt lat="42.97675" lon="1.93398">
        <ele>404.8</ele>
        <time>2023-04-23T13:44:02.000Z</time>
      </trkpt>
      <trkpt lat="42.97677" lon="1.93391">
        <ele>406.1</ele>
        <time>2023-04-23T13:44:04.000Z</time>
      </trkpt>
      <trkpt lat="42.9768" lon="1.93384">
        <ele>407.5</ele>
        <time>2023-04-23T13:44:06.000Z</time>
      </trkpt>
      <trkpt lat="42.9768" lon="1.93377">
        <ele>408.7</ele>
        <time>2023-04-23T13:44:08.000Z</time>
      </trkpt>
      <trkpt lat="42.97681" lon="1.9337">
        <ele>409.7</ele>
        <time>2023-04-23T13:44:10.000Z</time>
      </trkpt>
      <trkpt lat="42.97683" lon="1.93363">
        <ele>410.4</ele>
        <time>2023-04-23T13:44:12.000Z</time>
      </trkpt>
      <trkpt lat="42.97685" lon="1.93354">
        <ele>411.3</ele>
        <time>2023-04-23T13:44:14.000Z</time>
      </trkpt>
      <trkpt lat="42.97687" lon="1.93347">
        <ele>412</ele>
        <time>2023-04-23T13:44:16.000Z</time>
      </trkpt>
      <trkpt lat="42.97691" lon="1.93339">
        <ele>412</ele>
        <time>2023-04-23T13:44:18.000Z</time>
      </trkpt>
      <trkpt lat="42.97695" lon="1.9333">
        <ele>412.3</ele>
        <time>2023-04-23T13:44:20.000Z</time>
      </trkpt>
      <trkpt lat="42.97699" lon="1.93323">
        <ele>412.6</ele>
        <time>2023-04-23T13:44:22.000Z</time>
      </trkpt>
      <trkpt lat="42.97702" lon="1.93316">
        <ele>412.8</ele>
        <time>2023-04-23T13:44:24.000Z</time>
      </trkpt>
      <trkpt lat="42.97706" lon="1.93308">
        <ele>412.6</ele>
        <time>2023-04-23T13:44:27.000Z</time>
      </trkpt>
      <trkpt lat="42.97708" lon="1.93302">
        <ele>412.7</ele>
        <time>2023-04-23T13:44:28.000Z</time>
      </trkpt>
      <trkpt lat="42.97709" lon="1.93289">
        <ele>412.4</ele>
        <time>2023-04-23T13:44:30.000Z</time>
      </trkpt>
      <trkpt lat="42.9771" lon="1.93283">
        <ele>411.6</ele>
        <time>2023-04-23T13:44:31.000Z</time>
      </trkpt>
      <trkpt lat="42.97713" lon="1.93272">
        <ele>409.6</ele>
        <time>2023-04-23T13:44:33.000Z</time>
      </trkpt>
      <trkpt lat="42.97716" lon="1.93262">
        <ele>408.3</ele>
        <time>2023-04-23T13:44:35.000Z</time>
      </trkpt>
      <trkpt lat="42.97718" lon="1.93255">
        <ele>407.7</ele>
        <time>2023-04-23T13:44:37.000Z</time>
      </trkpt>
      <trkpt lat="42.97721" lon="1.93248">
        <ele>406.9</ele>
        <time>2023-04-23T13:44:39.000Z</time>
      </trkpt>
      <trkpt lat="42.97725" lon="1.93238">
        <ele>406.1</ele>
        <time>2023-04-23T13:44:41.000Z</time>
      </trkpt>
      <trkpt lat="42.97729" lon="1.93229">
        <ele>405.9</ele>
        <time>2023-04-23T13:44:43.000Z</time>
      </trkpt>
      <trkpt lat="42.97732" lon="1.93221">
        <ele>406.1</ele>
        <time>2023-04-23T13:44:45.000Z</time>
      </trkpt>
      <trkpt lat="42.97735" lon="1.93212">
        <ele>406.7</ele>
        <time>2023-04-23T13:44:47.000Z</time>
      </trkpt>
      <trkpt lat="42.97737" lon="1.93203">
        <ele>407.6</ele>
        <time>2023-04-23T13:44:48.000Z</time>
      </trkpt>
      <trkpt lat="42.97739" lon="1.93195">
        <ele>408.7</ele>
        <time>2023-04-23T13:44:49.000Z</time>
      </trkpt>
      <trkpt lat="42.9774" lon="1.93187">
        <ele>409.9</ele>
        <time>2023-04-23T13:44:50.000Z</time>
      </trkpt>
      <trkpt lat="42.97741" lon="1.9318">
        <ele>410.7</ele>
        <time>2023-04-23T13:44:51.000Z</time>
      </trkpt>
      <trkpt lat="42.97744" lon="1.93173">
        <ele>410.3</ele>
        <time>2023-04-23T13:44:52.000Z</time>
      </trkpt>
      <trkpt lat="42.97747" lon="1.93165">
        <ele>410.2</ele>
        <time>2023-04-23T13:44:53.000Z</time>
      </trkpt>
      <trkpt lat="42.97749" lon="1.93158">
        <ele>410.2</ele>
        <time>2023-04-23T13:44:54.000Z</time>
      </trkpt>
      <trkpt lat="42.97751" lon="1.9315">
        <ele>410.5</ele>
        <time>2023-04-23T13:44:55.000Z</time>
      </trkpt>
      <trkpt lat="42.97753" lon="1.93144">
        <ele>410.9</ele>
        <time>2023-04-23T13:44:56.000Z</time>
      </trkpt>
      <trkpt lat="42.97756" lon="1.93134">
        <ele>411.5</ele>
        <time>2023-04-23T13:44:58.000Z</time>
      </trkpt>
      <trkpt lat="42.97758" lon="1.93127">
        <ele>412</ele>
        <time>2023-04-23T13:45:00.000Z</time>
      </trkpt>
      <trkpt lat="42.97763" lon="1.9312">
        <ele>412.2</ele>
        <time>2023-04-23T13:45:02.000Z</time>
      </trkpt>
      <trkpt lat="42.97768" lon="1.93114">
        <ele>411.2</ele>
        <time>2023-04-23T13:45:04.000Z</time>
      </trkpt>
      <trkpt lat="42.97773" lon="1.93108">
        <ele>409.8</ele>
        <time>2023-04-23T13:45:06.000Z</time>
      </trkpt>
      <trkpt lat="42.97777" lon="1.93104">
        <ele>408.8</ele>
        <time>2023-04-23T13:45:07.000Z</time>
      </trkpt>
      <trkpt lat="42.97783" lon="1.93097">
        <ele>407.7</ele>
        <time>2023-04-23T13:45:09.000Z</time>
      </trkpt>
      <trkpt lat="42.97788" lon="1.9309">
        <ele>407</ele>
        <time>2023-04-23T13:45:11.000Z</time>
      </trkpt>
      <trkpt lat="42.97794" lon="1.93084">
        <ele>406.3</ele>
        <time>2023-04-23T13:45:13.000Z</time>
      </trkpt>
      <trkpt lat="42.97799" lon="1.93077">
        <ele>406</ele>
        <time>2023-04-23T13:45:15.000Z</time>
      </trkpt>
      <trkpt lat="42.97805" lon="1.93069">
        <ele>405.8</ele>
        <time>2023-04-23T13:45:17.000Z</time>
      </trkpt>
      <trkpt lat="42.97811" lon="1.93059">
        <ele>406.3</ele>
        <time>2023-04-23T13:45:19.000Z</time>
      </trkpt>
      <trkpt lat="42.97815" lon="1.93052">
        <ele>406.8</ele>
        <time>2023-04-23T13:45:20.000Z</time>
      </trkpt>
      <trkpt lat="42.9782" lon="1.93043">
        <ele>407.7</ele>
        <time>2023-04-23T13:45:21.000Z</time>
      </trkpt>
      <trkpt lat="42.97822" lon="1.93036">
        <ele>408.6</ele>
        <time>2023-04-23T13:45:22.000Z</time>
      </trkpt>
      <trkpt lat="42.97825" lon="1.93027">
        <ele>409.9</ele>
        <time>2023-04-23T13:45:23.000Z</time>
      </trkpt>
      <trkpt lat="42.97828" lon="1.93019">
        <ele>411.3</ele>
        <time>2023-04-23T13:45:24.000Z</time>
      </trkpt>
      <trkpt lat="42.97831" lon="1.93011">
        <ele>412.8</ele>
        <time>2023-04-23T13:45:25.000Z</time>
      </trkpt>
      <trkpt lat="42.97833" lon="1.93004">
        <ele>414</ele>
        <time>2023-04-23T13:45:26.000Z</time>
      </trkpt>
      <trkpt lat="42.97836" lon="1.92998">
        <ele>415.2</ele>
        <time>2023-04-23T13:45:27.000Z</time>
      </trkpt>
      <trkpt lat="42.97842" lon="1.92991">
        <ele>416.3</ele>
        <time>2023-04-23T13:45:29.000Z</time>
      </trkpt>
      <trkpt lat="42.97849" lon="1.92986">
        <ele>416.8</ele>
        <time>2023-04-23T13:45:31.000Z</time>
      </trkpt>
      <trkpt lat="42.97852" lon="1.92982">
        <ele>417.1</ele>
        <time>2023-04-23T13:45:33.000Z</time>
      </trkpt>
      <trkpt lat="42.97857" lon="1.92978">
        <ele>417.1</ele>
        <time>2023-04-23T13:45:35.000Z</time>
      </trkpt>
      <trkpt lat="42.97862" lon="1.92975">
        <ele>416.9</ele>
        <time>2023-04-23T13:45:37.000Z</time>
      </trkpt>
      <trkpt lat="42.97868" lon="1.92972">
        <ele>416.7</ele>
        <time>2023-04-23T13:45:39.000Z</time>
      </trkpt>
      <trkpt lat="42.97873" lon="1.92967">
        <ele>417.1</ele>
        <time>2023-04-23T13:45:41.000Z</time>
      </trkpt>
      <trkpt lat="42.97879" lon="1.92963">
        <ele>417.5</ele>
        <time>2023-04-23T13:45:43.000Z</time>
      </trkpt>
      <trkpt lat="42.97884" lon="1.92959">
        <ele>417.5</ele>
        <time>2023-04-23T13:45:45.000Z</time>
      </trkpt>
      <trkpt lat="42.97889" lon="1.92956">
        <ele>417.3</ele>
        <time>2023-04-23T13:45:48.000Z</time>
      </trkpt>
      <trkpt lat="42.97895" lon="1.92954">
        <ele>416.8</ele>
        <time>2023-04-23T13:45:50.000Z</time>
      </trkpt>
      <trkpt lat="42.97901" lon="1.92956">
        <ele>415.5</ele>
        <time>2023-04-23T13:45:52.000Z</time>
      </trkpt>
      <trkpt lat="42.97907" lon="1.92957">
        <ele>414.6</ele>
        <time>2023-04-23T13:45:54.000Z</time>
      </trkpt>
      <trkpt lat="42.97912" lon="1.92958">
        <ele>414</ele>
        <time>2023-04-23T13:45:55.000Z</time>
      </trkpt>
      <trkpt lat="42.9792" lon="1.92962">
        <ele>412.6</ele>
        <time>2023-04-23T13:45:57.000Z</time>
      </trkpt>
      <trkpt lat="42.97928" lon="1.92969">
        <ele>410.5</ele>
        <time>2023-04-23T13:45:59.000Z</time>
      </trkpt>
      <trkpt lat="42.97934" lon="1.92972">
        <ele>409.6</ele>
        <time>2023-04-23T13:46:01.000Z</time>
      </trkpt>
      <trkpt lat="42.97937" lon="1.92977">
        <ele>408.7</ele>
        <time>2023-04-23T13:46:03.000Z</time>
      </trkpt>
      <trkpt lat="42.97939" lon="1.92984">
        <ele>407.6</ele>
        <time>2023-04-23T13:46:05.000Z</time>
      </trkpt>
      <trkpt lat="42.97939" lon="1.92992">
        <ele>406.4</ele>
        <time>2023-04-23T13:46:07.000Z</time>
      </trkpt>
      <trkpt lat="42.97942" lon="1.92996">
        <ele>405.9</ele>
        <time>2023-04-23T13:46:09.000Z</time>
      </trkpt>
      <trkpt lat="42.97946" lon="1.93002">
        <ele>405</ele>
        <time>2023-04-23T13:46:11.000Z</time>
      </trkpt>
      <trkpt lat="42.9795" lon="1.93008">
        <ele>404</ele>
        <time>2023-04-23T13:46:14.000Z</time>
      </trkpt>
      <trkpt lat="42.97954" lon="1.93014">
        <ele>403</ele>
        <time>2023-04-23T13:46:17.000Z</time>
      </trkpt>
      <trkpt lat="42.97959" lon="1.93015">
        <ele>402.8</ele>
        <time>2023-04-23T13:46:23.000Z</time>
      </trkpt>
      <trkpt lat="42.97961" lon="1.93022">
        <ele>401.9</ele>
        <time>2023-04-23T13:46:26.000Z</time>
      </trkpt>
      <trkpt lat="42.97959" lon="1.9303">
        <ele>400.7</ele>
        <time>2023-04-23T13:46:29.000Z</time>
      </trkpt>
      <trkpt lat="42.97959" lon="1.93038">
        <ele>399.7</ele>
        <time>2023-04-23T13:46:31.000Z</time>
      </trkpt>
      <trkpt lat="42.97961" lon="1.93046">
        <ele>399.1</ele>
        <time>2023-04-23T13:46:33.000Z</time>
      </trkpt>
      <trkpt lat="42.97962" lon="1.93053">
        <ele>399.1</ele>
        <time>2023-04-23T13:46:35.000Z</time>
      </trkpt>
      <trkpt lat="42.97962" lon="1.9306">
        <ele>398.9</ele>
        <time>2023-04-23T13:46:37.000Z</time>
      </trkpt>
      <trkpt lat="42.97962" lon="1.93068">
        <ele>398.7</ele>
        <time>2023-04-23T13:46:39.000Z</time>
      </trkpt>
      <trkpt lat="42.97964" lon="1.93075">
        <ele>398.6</ele>
        <time>2023-04-23T13:46:41.000Z</time>
      </trkpt>
      <trkpt lat="42.97966" lon="1.93083">
        <ele>398.7</ele>
        <time>2023-04-23T13:46:44.000Z</time>
      </trkpt>
      <trkpt lat="42.97967" lon="1.93091">
        <ele>398.4</ele>
        <time>2023-04-23T13:46:47.000Z</time>
      </trkpt>
      <trkpt lat="42.97966" lon="1.931">
        <ele>397.8</ele>
        <time>2023-04-23T13:46:49.000Z</time>
      </trkpt>
      <trkpt lat="42.97965" lon="1.9311">
        <ele>397.2</ele>
        <time>2023-04-23T13:46:51.000Z</time>
      </trkpt>
      <trkpt lat="42.97963" lon="1.93118">
        <ele>396.5</ele>
        <time>2023-04-23T13:46:53.000Z</time>
      </trkpt>
      <trkpt lat="42.97962" lon="1.93129">
        <ele>396.3</ele>
        <time>2023-04-23T13:46:55.000Z</time>
      </trkpt>
      <trkpt lat="42.97967" lon="1.93132">
        <ele>397.6</ele>
        <time>2023-04-23T13:46:57.000Z</time>
      </trkpt>
      <trkpt lat="42.97971" lon="1.93139">
        <ele>398.8</ele>
        <time>2023-04-23T13:47:00.000Z</time>
      </trkpt>
      <trkpt lat="42.97976" lon="1.93142">
        <ele>400.3</ele>
        <time>2023-04-23T13:47:03.000Z</time>
      </trkpt>
      <trkpt lat="42.9798" lon="1.93139">
        <ele>401.4</ele>
        <time>2023-04-23T13:47:06.000Z</time>
      </trkpt>
      <trkpt lat="42.97985" lon="1.93138">
        <ele>402.7</ele>
        <time>2023-04-23T13:47:11.000Z</time>
      </trkpt>
      <trkpt lat="42.97989" lon="1.93133">
        <ele>403.7</ele>
        <time>2023-04-23T13:47:16.000Z</time>
      </trkpt>
      <trkpt lat="42.97995" lon="1.93133">
        <ele>405.1</ele>
        <time>2023-04-23T13:47:19.000Z</time>
      </trkpt>
      <trkpt lat="42.98001" lon="1.93136">
        <ele>406.2</ele>
        <time>2023-04-23T13:47:21.000Z</time>
      </trkpt>
      <trkpt lat="42.98006" lon="1.93141">
        <ele>406.8</ele>
        <time>2023-04-23T13:47:23.000Z</time>
      </trkpt>
      <trkpt lat="42.98013" lon="1.93145">
        <ele>407.3</ele>
        <time>2023-04-23T13:47:25.000Z</time>
      </trkpt>
      <trkpt lat="42.98019" lon="1.93154">
        <ele>405.7</ele>
        <time>2023-04-23T13:47:27.000Z</time>
      </trkpt>
      <trkpt lat="42.98022" lon="1.93159">
        <ele>404.8</ele>
        <time>2023-04-23T13:47:28.000Z</time>
      </trkpt>
      <trkpt lat="42.98026" lon="1.93167">
        <ele>403.9</ele>
        <time>2023-04-23T13:47:30.000Z</time>
      </trkpt>
      <trkpt lat="42.98031" lon="1.93175">
        <ele>403.3</ele>
        <time>2023-04-23T13:47:32.000Z</time>
      </trkpt>
      <trkpt lat="42.98033" lon="1.93184">
        <ele>402.4</ele>
        <time>2023-04-23T13:47:34.000Z</time>
      </trkpt>
      <trkpt lat="42.98035" lon="1.93191">
        <ele>400.9</ele>
        <time>2023-04-23T13:47:36.000Z</time>
      </trkpt>
      <trkpt lat="42.98039" lon="1.93198">
        <ele>399.6</ele>
        <time>2023-04-23T13:47:38.000Z</time>
      </trkpt>
      <trkpt lat="42.98042" lon="1.93206">
        <ele>397.7</ele>
        <time>2023-04-23T13:47:40.000Z</time>
      </trkpt>
      <trkpt lat="42.98043" lon="1.93214">
        <ele>396.6</ele>
        <time>2023-04-23T13:47:42.000Z</time>
      </trkpt>
      <trkpt lat="42.98042" lon="1.93222">
        <ele>395.2</ele>
        <time>2023-04-23T13:47:44.000Z</time>
      </trkpt>
      <trkpt lat="42.98042" lon="1.93232">
        <ele>393.8</ele>
        <time>2023-04-23T13:47:46.000Z</time>
      </trkpt>
      <trkpt lat="42.98044" lon="1.93243">
        <ele>394</ele>
        <time>2023-04-23T13:47:48.000Z</time>
      </trkpt>
      <trkpt lat="42.98048" lon="1.93252">
        <ele>395.2</ele>
        <time>2023-04-23T13:47:50.000Z</time>
      </trkpt>
      <trkpt lat="42.98052" lon="1.93257">
        <ele>396.2</ele>
        <time>2023-04-23T13:47:52.000Z</time>
      </trkpt>
      <trkpt lat="42.98057" lon="1.93259">
        <ele>397.3</ele>
        <time>2023-04-23T13:47:54.000Z</time>
      </trkpt>
      <trkpt lat="42.98063" lon="1.9326">
        <ele>398.8</ele>
        <time>2023-04-23T13:47:56.000Z</time>
      </trkpt>
      <trkpt lat="42.98069" lon="1.9326">
        <ele>400.1</ele>
        <time>2023-04-23T13:47:58.000Z</time>
      </trkpt>
      <trkpt lat="42.98076" lon="1.93257">
        <ele>400.2</ele>
        <time>2023-04-23T13:48:00.000Z</time>
      </trkpt>
      <trkpt lat="42.98083" lon="1.93256">
        <ele>400.2</ele>
        <time>2023-04-23T13:48:02.000Z</time>
      </trkpt>
      <trkpt lat="42.98089" lon="1.93254">
        <ele>400.4</ele>
        <time>2023-04-23T13:48:04.000Z</time>
      </trkpt>
      <trkpt lat="42.98094" lon="1.9325">
        <ele>401</ele>
        <time>2023-04-23T13:48:06.000Z</time>
      </trkpt>
      <trkpt lat="42.98099" lon="1.93246">
        <ele>401.3</ele>
        <time>2023-04-23T13:48:08.000Z</time>
      </trkpt>
      <trkpt lat="42.98105" lon="1.93242">
        <ele>401.2</ele>
        <time>2023-04-23T13:48:10.000Z</time>
      </trkpt>
      <trkpt lat="42.9811" lon="1.93236">
        <ele>401.2</ele>
        <time>2023-04-23T13:48:12.000Z</time>
      </trkpt>
      <trkpt lat="42.98114" lon="1.93228">
        <ele>401.5</ele>
        <time>2023-04-23T13:48:14.000Z</time>
      </trkpt>
      <trkpt lat="42.98118" lon="1.93221">
        <ele>401.8</ele>
        <time>2023-04-23T13:48:16.000Z</time>
      </trkpt>
      <trkpt lat="42.98122" lon="1.93215">
        <ele>402.3</ele>
        <time>2023-04-23T13:48:18.000Z</time>
      </trkpt>
      <trkpt lat="42.98126" lon="1.93208">
        <ele>403.1</ele>
        <time>2023-04-23T13:48:20.000Z</time>
      </trkpt>
      <trkpt lat="42.9813" lon="1.932">
        <ele>404.2</ele>
        <time>2023-04-23T13:48:22.000Z</time>
      </trkpt>
      <trkpt lat="42.98134" lon="1.93194">
        <ele>405.1</ele>
        <time>2023-04-23T13:48:24.000Z</time>
      </trkpt>
      <trkpt lat="42.98138" lon="1.93188">
        <ele>405.8</ele>
        <time>2023-04-23T13:48:26.000Z</time>
      </trkpt>
      <trkpt lat="42.98143" lon="1.93185">
        <ele>405.6</ele>
        <time>2023-04-23T13:48:27.000Z</time>
      </trkpt>
      <trkpt lat="42.98147" lon="1.93181">
        <ele>405.8</ele>
        <time>2023-04-23T13:48:28.000Z</time>
      </trkpt>
      <trkpt lat="42.98151" lon="1.93176">
        <ele>406</ele>
        <time>2023-04-23T13:48:29.000Z</time>
      </trkpt>
      <trkpt lat="42.98157" lon="1.93168">
        <ele>406.6</ele>
        <time>2023-04-23T13:48:31.000Z</time>
      </trkpt>
      <trkpt lat="42.98162" lon="1.93159">
        <ele>407.6</ele>
        <time>2023-04-23T13:48:33.000Z</time>
      </trkpt>
      <trkpt lat="42.98166" lon="1.93151">
        <ele>408.3</ele>
        <time>2023-04-23T13:48:35.000Z</time>
      </trkpt>
      <trkpt lat="42.98171" lon="1.93144">
        <ele>409</ele>
        <time>2023-04-23T13:48:37.000Z</time>
      </trkpt>
      <trkpt lat="42.98176" lon="1.93137">
        <ele>410.1</ele>
        <time>2023-04-23T13:48:39.000Z</time>
      </trkpt>
      <trkpt lat="42.9818" lon="1.9313">
        <ele>411.7</ele>
        <time>2023-04-23T13:48:41.000Z</time>
      </trkpt>
      <trkpt lat="42.98185" lon="1.93122">
        <ele>411.6</ele>
        <time>2023-04-23T13:48:43.000Z</time>
      </trkpt>
      <trkpt lat="42.98192" lon="1.93117">
        <ele>410.2</ele>
        <time>2023-04-23T13:48:45.000Z</time>
      </trkpt>
      <trkpt lat="42.98198" lon="1.93112">
        <ele>409.5</ele>
        <time>2023-04-23T13:48:47.000Z</time>
      </trkpt>
      <trkpt lat="42.98204" lon="1.93107">
        <ele>409.1</ele>
        <time>2023-04-23T13:48:49.000Z</time>
      </trkpt>
      <trkpt lat="42.9821" lon="1.93104">
        <ele>409</ele>
        <time>2023-04-23T13:48:51.000Z</time>
      </trkpt>
      <trkpt lat="42.98215" lon="1.93098">
        <ele>409.8</ele>
        <time>2023-04-23T13:48:53.000Z</time>
      </trkpt>
      <trkpt lat="42.9822" lon="1.9309">
        <ele>410.1</ele>
        <time>2023-04-23T13:48:55.000Z</time>
      </trkpt>
      <trkpt lat="42.98224" lon="1.93085">
        <ele>410.3</ele>
        <time>2023-04-23T13:48:57.000Z</time>
      </trkpt>
      <trkpt lat="42.98226" lon="1.9308">
        <ele>410.8</ele>
        <time>2023-04-23T13:48:58.000Z</time>
      </trkpt>
      <trkpt lat="42.9823" lon="1.93071">
        <ele>411.7</ele>
        <time>2023-04-23T13:49:00.000Z</time>
      </trkpt>
      <trkpt lat="42.98233" lon="1.93065">
        <ele>412.2</ele>
        <time>2023-04-23T13:49:02.000Z</time>
      </trkpt>
      <trkpt lat="42.98237" lon="1.93059">
        <ele>412.7</ele>
        <time>2023-04-23T13:49:05.000Z</time>
      </trkpt>
      <trkpt lat="42.98241" lon="1.93051">
        <ele>413.1</ele>
        <time>2023-04-23T13:49:08.000Z</time>
      </trkpt>
      <trkpt lat="42.98243" lon="1.93045">
        <ele>413.9</ele>
        <time>2023-04-23T13:49:10.000Z</time>
      </trkpt>
      <trkpt lat="42.98245" lon="1.93036">
        <ele>415.1</ele>
        <time>2023-04-23T13:49:12.000Z</time>
      </trkpt>
      <trkpt lat="42.98246" lon="1.93029">
        <ele>416.1</ele>
        <time>2023-04-23T13:49:14.000Z</time>
      </trkpt>
      <trkpt lat="42.98249" lon="1.93024">
        <ele>416.1</ele>
        <time>2023-04-23T13:49:16.000Z</time>
      </trkpt>
      <trkpt lat="42.98254" lon="1.93025">
        <ele>414.8</ele>
        <time>2023-04-23T13:49:18.000Z</time>
      </trkpt>
      <trkpt lat="42.98259" lon="1.9303">
        <ele>412.8</ele>
        <time>2023-04-23T13:49:20.000Z</time>
      </trkpt>
      <trkpt lat="42.98264" lon="1.93035">
        <ele>411.1</ele>
        <time>2023-04-23T13:49:22.000Z</time>
      </trkpt>
      <trkpt lat="42.98267" lon="1.93038">
        <ele>410</ele>
        <time>2023-04-23T13:49:24.000Z</time>
      </trkpt>
      <trkpt lat="42.98272" lon="1.93043">
        <ele>408.5</ele>
        <time>2023-04-23T13:49:27.000Z</time>
      </trkpt>
      <trkpt lat="42.98278" lon="1.93043">
        <ele>407.8</ele>
        <time>2023-04-23T13:49:30.000Z</time>
      </trkpt>
      <trkpt lat="42.98284" lon="1.93045">
        <ele>406.3</ele>
        <time>2023-04-23T13:49:33.000Z</time>
      </trkpt>
      <trkpt lat="42.98288" lon="1.93049">
        <ele>404.8</ele>
        <time>2023-04-23T13:49:35.000Z</time>
      </trkpt>
      <trkpt lat="42.98292" lon="1.93053">
        <ele>403.2</ele>
        <time>2023-04-23T13:49:37.000Z</time>
      </trkpt>
      <trkpt lat="42.98296" lon="1.93057">
        <ele>401.4</ele>
        <time>2023-04-23T13:49:39.000Z</time>
      </trkpt>
      <trkpt lat="42.983" lon="1.93062">
        <ele>399.8</ele>
        <time>2023-04-23T13:49:41.000Z</time>
      </trkpt>
      <trkpt lat="42.98303" lon="1.93068">
        <ele>398.1</ele>
        <time>2023-04-23T13:49:43.000Z</time>
      </trkpt>
      <trkpt lat="42.98307" lon="1.93074">
        <ele>397</ele>
        <time>2023-04-23T13:49:45.000Z</time>
      </trkpt>
      <trkpt lat="42.9831" lon="1.9308">
        <ele>396.1</ele>
        <time>2023-04-23T13:49:47.000Z</time>
      </trkpt>
      <trkpt lat="42.98313" lon="1.93086">
        <ele>395.3</ele>
        <time>2023-04-23T13:49:49.000Z</time>
      </trkpt>
      <trkpt lat="42.98316" lon="1.93093">
        <ele>394.6</ele>
        <time>2023-04-23T13:49:51.000Z</time>
      </trkpt>
      <trkpt lat="42.98319" lon="1.93099">
        <ele>393.9</ele>
        <time>2023-04-23T13:49:53.000Z</time>
      </trkpt>
      <trkpt lat="42.98321" lon="1.93106">
        <ele>393.4</ele>
        <time>2023-04-23T13:49:55.000Z</time>
      </trkpt>
      <trkpt lat="42.98323" lon="1.93112">
        <ele>393</ele>
        <time>2023-04-23T13:49:57.000Z</time>
      </trkpt>
      <trkpt lat="42.98325" lon="1.9312">
        <ele>392.6</ele>
        <time>2023-04-23T13:49:59.000Z</time>
      </trkpt>
      <trkpt lat="42.98327" lon="1.93126">
        <ele>392.3</ele>
        <time>2023-04-23T13:50:01.000Z</time>
      </trkpt>
      <trkpt lat="42.98329" lon="1.93133">
        <ele>392.2</ele>
        <time>2023-04-23T13:50:03.000Z</time>
      </trkpt>
      <trkpt lat="42.98331" lon="1.9314">
        <ele>392.1</ele>
        <time>2023-04-23T13:50:05.000Z</time>
      </trkpt>
      <trkpt lat="42.98332" lon="1.93147">
        <ele>392</ele>
        <time>2023-04-23T13:50:07.000Z</time>
      </trkpt>
      <trkpt lat="42.98334" lon="1.93154">
        <ele>392</ele>
        <time>2023-04-23T13:50:09.000Z</time>
      </trkpt>
      <trkpt lat="42.98335" lon="1.93162">
        <ele>392.1</ele>
        <time>2023-04-23T13:50:11.000Z</time>
      </trkpt>
      <trkpt lat="42.98336" lon="1.93169">
        <ele>392.2</ele>
        <time>2023-04-23T13:50:13.000Z</time>
      </trkpt>
      <trkpt lat="42.98337" lon="1.93177">
        <ele>392.3</ele>
        <time>2023-04-23T13:50:15.000Z</time>
      </trkpt>
      <trkpt lat="42.98339" lon="1.93184">
        <ele>392.4</ele>
        <time>2023-04-23T13:50:17.000Z</time>
      </trkpt>
      <trkpt lat="42.9834" lon="1.9319">
        <ele>392.6</ele>
        <time>2023-04-23T13:50:19.000Z</time>
      </trkpt>
      <trkpt lat="42.98342" lon="1.93197">
        <ele>392.7</ele>
        <time>2023-04-23T13:50:21.000Z</time>
      </trkpt>
      <trkpt lat="42.98343" lon="1.93204">
        <ele>392.8</ele>
        <time>2023-04-23T13:50:23.000Z</time>
      </trkpt>
      <trkpt lat="42.98345" lon="1.93211">
        <ele>392.8</ele>
        <time>2023-04-23T13:50:25.000Z</time>
      </trkpt>
      <trkpt lat="42.98346" lon="1.93219">
        <ele>392.7</ele>
        <time>2023-04-23T13:50:27.000Z</time>
      </trkpt>
      <trkpt lat="42.98347" lon="1.93226">
        <ele>392.4</ele>
        <time>2023-04-23T13:50:29.000Z</time>
      </trkpt>
      <trkpt lat="42.98348" lon="1.93234">
        <ele>392.1</ele>
        <time>2023-04-23T13:50:31.000Z</time>
      </trkpt>
      <trkpt lat="42.9835" lon="1.93242">
        <ele>392.3</ele>
        <time>2023-04-23T13:50:33.000Z</time>
      </trkpt>
      <trkpt lat="42.98351" lon="1.9325">
        <ele>392.5</ele>
        <time>2023-04-23T13:50:35.000Z</time>
      </trkpt>
      <trkpt lat="42.98352" lon="1.93257">
        <ele>392.7</ele>
        <time>2023-04-23T13:50:37.000Z</time>
      </trkpt>
      <trkpt lat="42.98353" lon="1.93266">
        <ele>393</ele>
        <time>2023-04-23T13:50:39.000Z</time>
      </trkpt>
      <trkpt lat="42.98355" lon="1.93273">
        <ele>393.7</ele>
        <time>2023-04-23T13:50:41.000Z</time>
      </trkpt>
      <trkpt lat="42.98356" lon="1.93282">
        <ele>394.5</ele>
        <time>2023-04-23T13:50:43.000Z</time>
      </trkpt>
      <trkpt lat="42.98357" lon="1.9329">
        <ele>395.1</ele>
        <time>2023-04-23T13:50:45.000Z</time>
      </trkpt>
      <trkpt lat="42.98358" lon="1.93298">
        <ele>394.8</ele>
        <time>2023-04-23T13:50:47.000Z</time>
      </trkpt>
      <trkpt lat="42.98359" lon="1.93307">
        <ele>394.4</ele>
        <time>2023-04-23T13:50:49.000Z</time>
      </trkpt>
      <trkpt lat="42.98361" lon="1.93315">
        <ele>394.1</ele>
        <time>2023-04-23T13:50:51.000Z</time>
      </trkpt>
      <trkpt lat="42.9836" lon="1.93323">
        <ele>394.3</ele>
        <time>2023-04-23T13:50:53.000Z</time>
      </trkpt>
      <trkpt lat="42.98358" lon="1.93331">
        <ele>394.8</ele>
        <time>2023-04-23T13:50:55.000Z</time>
      </trkpt>
      <trkpt lat="42.98355" lon="1.93338">
        <ele>395.3</ele>
        <time>2023-04-23T13:50:57.000Z</time>
      </trkpt>
      <trkpt lat="42.98353" lon="1.93345">
        <ele>395.9</ele>
        <time>2023-04-23T13:50:59.000Z</time>
      </trkpt>
      <trkpt lat="42.98352" lon="1.93353">
        <ele>396.5</ele>
        <time>2023-04-23T13:51:01.000Z</time>
      </trkpt>
      <trkpt lat="42.98351" lon="1.93362">
        <ele>397.2</ele>
        <time>2023-04-23T13:51:03.000Z</time>
      </trkpt>
      <trkpt lat="42.98352" lon="1.93369">
        <ele>397.8</ele>
        <time>2023-04-23T13:51:05.000Z</time>
      </trkpt>
      <trkpt lat="42.98354" lon="1.93376">
        <ele>398.5</ele>
        <time>2023-04-23T13:51:07.000Z</time>
      </trkpt>
      <trkpt lat="42.98356" lon="1.93382">
        <ele>399.3</ele>
        <time>2023-04-23T13:51:09.000Z</time>
      </trkpt>
      <trkpt lat="42.98358" lon="1.93389">
        <ele>400.2</ele>
        <time>2023-04-23T13:51:11.000Z</time>
      </trkpt>
      <trkpt lat="42.98359" lon="1.93397">
        <ele>401.2</ele>
        <time>2023-04-23T13:51:13.000Z</time>
      </trkpt>
      <trkpt lat="42.98358" lon="1.93405">
        <ele>401.8</ele>
        <time>2023-04-23T13:51:16.000Z</time>
      </trkpt>
      <trkpt lat="42.98356" lon="1.93414">
        <ele>401.9</ele>
        <time>2023-04-23T13:51:19.000Z</time>
      </trkpt>
      <trkpt lat="42.98354" lon="1.93422">
        <ele>402</ele>
        <time>2023-04-23T13:51:22.000Z</time>
      </trkpt>
      <trkpt lat="42.98353" lon="1.9343">
        <ele>402.1</ele>
        <time>2023-04-23T13:51:25.000Z</time>
      </trkpt>
      <trkpt lat="42.98351" lon="1.93436">
        <ele>401.5</ele>
        <time>2023-04-23T13:51:27.000Z</time>
      </trkpt>
      <trkpt lat="42.98349" lon="1.93442">
        <ele>400.5</ele>
        <time>2023-04-23T13:51:29.000Z</time>
      </trkpt>
      <trkpt lat="42.98348" lon="1.93448">
        <ele>399.4</ele>
        <time>2023-04-23T13:51:31.000Z</time>
      </trkpt>
      <trkpt lat="42.98347" lon="1.93455">
        <ele>398.1</ele>
        <time>2023-04-23T13:51:34.000Z</time>
      </trkpt>
      <trkpt lat="42.98346" lon="1.93462">
        <ele>397.5</ele>
        <time>2023-04-23T13:51:37.000Z</time>
      </trkpt>
      <trkpt lat="42.98348" lon="1.93469">
        <ele>397.7</ele>
        <time>2023-04-23T13:51:40.000Z</time>
      </trkpt>
      <trkpt lat="42.9835" lon="1.93476">
        <ele>398.5</ele>
        <time>2023-04-23T13:51:43.000Z</time>
      </trkpt>
      <trkpt lat="42.98353" lon="1.93482">
        <ele>399.4</ele>
        <time>2023-04-23T13:51:46.000Z</time>
      </trkpt>
      <trkpt lat="42.98357" lon="1.93488">
        <ele>401.4</ele>
        <time>2023-04-23T13:51:49.000Z</time>
      </trkpt>
      <trkpt lat="42.9836" lon="1.93495">
        <ele>403.1</ele>
        <time>2023-04-23T13:51:52.000Z</time>
      </trkpt>
      <trkpt lat="42.98364" lon="1.93501">
        <ele>404.8</ele>
        <time>2023-04-23T13:51:55.000Z</time>
      </trkpt>
      <trkpt lat="42.98366" lon="1.93508">
        <ele>405.2</ele>
        <time>2023-04-23T13:51:58.000Z</time>
      </trkpt>
      <trkpt lat="42.98368" lon="1.93516">
        <ele>406.4</ele>
        <time>2023-04-23T13:52:01.000Z</time>
      </trkpt>
      <trkpt lat="42.98371" lon="1.93524">
        <ele>408.9</ele>
        <time>2023-04-23T13:52:04.000Z</time>
      </trkpt>
      <trkpt lat="42.98372" lon="1.9353">
        <ele>410.6</ele>
        <time>2023-04-23T13:52:06.000Z</time>
      </trkpt>
      <trkpt lat="42.98373" lon="1.93537">
        <ele>412.3</ele>
        <time>2023-04-23T13:52:09.000Z</time>
      </trkpt>
      <trkpt lat="42.98374" lon="1.93545">
        <ele>413.5</ele>
        <time>2023-04-23T13:52:13.000Z</time>
      </trkpt>
      <trkpt lat="42.98373" lon="1.93551">
        <ele>413.4</ele>
        <time>2023-04-23T13:52:16.000Z</time>
      </trkpt>
      <trkpt lat="42.98373" lon="1.93558">
        <ele>413.6</ele>
        <time>2023-04-23T13:52:19.000Z</time>
      </trkpt>
      <trkpt lat="42.98371" lon="1.93565">
        <ele>413</ele>
        <time>2023-04-23T13:52:23.000Z</time>
      </trkpt>
      <trkpt lat="42.98369" lon="1.93572">
        <ele>412.6</ele>
        <time>2023-04-23T13:52:26.000Z</time>
      </trkpt>
      <trkpt lat="42.98368" lon="1.93579">
        <ele>411.9</ele>
        <time>2023-04-23T13:52:29.000Z</time>
      </trkpt>
      <trkpt lat="42.98366" lon="1.93586">
        <ele>411.1</ele>
        <time>2023-04-23T13:52:32.000Z</time>
      </trkpt>
      <trkpt lat="42.98364" lon="1.93594">
        <ele>410.4</ele>
        <time>2023-04-23T13:52:35.000Z</time>
      </trkpt>
      <trkpt lat="42.98362" lon="1.936">
        <ele>410.3</ele>
        <time>2023-04-23T13:52:37.000Z</time>
      </trkpt>
      <trkpt lat="42.9836" lon="1.93609">
        <ele>410.8</ele>
        <time>2023-04-23T13:52:40.000Z</time>
      </trkpt>
      <trkpt lat="42.98359" lon="1.93618">
        <ele>411.2</ele>
        <time>2023-04-23T13:52:43.000Z</time>
      </trkpt>
      <trkpt lat="42.98359" lon="1.93627">
        <ele>411.6</ele>
        <time>2023-04-23T13:52:46.000Z</time>
      </trkpt>
      <trkpt lat="42.98359" lon="1.93633">
        <ele>411.7</ele>
        <time>2023-04-23T13:52:48.000Z</time>
      </trkpt>
      <trkpt lat="42.98359" lon="1.9364">
        <ele>411.8</ele>
        <time>2023-04-23T13:52:50.000Z</time>
      </trkpt>
      <trkpt lat="42.98359" lon="1.93647">
        <ele>411.9</ele>
        <time>2023-04-23T13:52:52.000Z</time>
      </trkpt>
      <trkpt lat="42.9836" lon="1.93655">
        <ele>412</ele>
        <time>2023-04-23T13:52:54.000Z</time>
      </trkpt>
      <trkpt lat="42.98361" lon="1.93664">
        <ele>412</ele>
        <time>2023-04-23T13:52:56.000Z</time>
      </trkpt>
      <trkpt lat="42.98361" lon="1.93673">
        <ele>412</ele>
        <time>2023-04-23T13:52:58.000Z</time>
      </trkpt>
      <trkpt lat="42.9836" lon="1.93683">
        <ele>412.1</ele>
        <time>2023-04-23T13:53:00.000Z</time>
      </trkpt>
      <trkpt lat="42.98359" lon="1.93694">
        <ele>412.3</ele>
        <time>2023-04-23T13:53:02.000Z</time>
      </trkpt>
      <trkpt lat="42.98357" lon="1.937">
        <ele>412.5</ele>
        <time>2023-04-23T13:53:04.000Z</time>
      </trkpt>
      <trkpt lat="42.98353" lon="1.93702">
        <ele>413</ele>
        <time>2023-04-23T13:53:29.000Z</time>
      </trkpt>
    </trkseg>
  </trk>
</gpx>